     2              OBSERVATION DATA    GPS                 RINEX VERSION / TYPE
teqc 1997Jul24 19970902 21:12:55UTC                         PGM / RUN BY / DATE
                                                            COMMENT
BIT 2 OF LLI FLAGS DATA COLLECTED UNDER A-S CONDITION       COMMENT
BIT 2 OF LLI FLAGS DATA COLLECTED UNDER A-S CONDITION       COMMENT
Original Marker Name: 55455.SAND                            COMMENT
Campaign Name: Salt. Tr. Crust. Monit. May-Jun 1986         COMMENT
4-Character Station Name: SAND                              COMMENT
6-Character Antenna Code: TI4100                            COMMENT
Vertical Measurement Point: PAE                             COMMENT
Vertical Offset to Rinex Ref. Point: 0.0000                 COMMENT
Radial Measurement Point: RRP                               COMMENT
Radial Offset to Rinex Ref. Point: 0.0000                   COMMENT
Antenna Height from Field Measurement: 1.2270 m             COMMENT
Original XYZ: -2336674.9245 -4732364.2989 3570245.3723      COMMENT
New XYZ position is based on association with SCEC monument COMMENT
E1F2G8K4+0012. Position of that monument is believed to be  COMMENT
valid to within 1 m horizontally; vertical accuracy         COMMENT
should be no worse than 3-times this value.                 COMMENT
                                                            COMMENT
Revised Rinex header created by UCSD GPS archive for        COMMENT
GSAC on 29-Apr-1999 (1999:119) 01:28:12 GMT                 COMMENT
For assistance contact dagnew@ucsd.edu or hjohnson@ucsd.edu COMMENT
                                                            COMMENT
SAND HILL 1939 1981                                         MARKER NAME
5 NATIONAL GEODETIC SURVEY                                  OBSERVER / AGENCY
UT-16 TI 4100 1.0                                           REC # / TYPE / VERS
4011 TI 4100                                                ANT # / TYPE
 -2336820.0000 -4732587.0000  3570330.0000                  APPROX POSITION XYZ
        1.2270        0.0000        0.0000                  ANTENNA: DELTA H/E/N
     1     1     0                                          WAVELENGTH FACT L1/2
     4    P1    P2    L1    L2                              # / TYPES OF OBSERV
     6                                                      INTERVAL
  1986     6    11     1    14   53.000000                  TIME OF FIRST OBS
  1986     6    11     3     2   41.000000                  TIME OF LAST OBS
     0                                                      # OF SATELLITES
                                                            END OF HEADER
 86  6 11  1 14 53.0800000  0  4G 6G 8G 9G11
  20807035.646    20807036.005    37463931.440 9 -49122931.507 8
  24555025.414    24555027.257    57729280.746 7 -33360659.207 9
  20402489.921    20402491.295    22512900.012 9 -60555069.248 8
  21095514.275    21095515.606    37644848.727 9 -48858548.960 9
 86  6 11  1 14 59.0800000  0  4G 6G 8G 9G11
  20808769.263    20808771.108    37473041.875 8 -49115832.472 8
  24559255.627    24559257.290    57751505.449 5 -33343341.266 8
  20400817.821    20400818.537    22504116.028 8 -60561913.914 9
  21097452.016    21097454.445    37655035.537 9 -48850611.185 8
 86  6 11  1 15  5.0800000  0  4G 6G 8G 9G11
  20810507.184    20810509.158    37482173.589 9 -49108716.860 8
  24563484.265    24563486.487    57773729.828 6 -33326023.574 9
  20399149.587    20399150.986    22495351.078 9 -60568743.741 8
  21099394.085    21099395.637    37665237.944 9 -48842661.270 8
 86  6 11  1 15 11.0800000  0  4G 6G 8G 9G11
  20812248.656    20812250.501    37491326.556 9 -49101584.683 9
  24567712.751    24567715.147    57795953.880 6 -33308706.136 9
  20397486.205    20397486.601    22486605.224 8 -60575558.693 9
  21101338.432    21101340.184    37675455.925 8 -48834699.214 8
 86  6 11  1 15 17.0800000  0  4G 6G 8G 9G11
  20813994.735    20813994.793    37500500.672 9 -49094436.022 8
  24571942.413    24571944.915    57818177.581 6 -33291389.003 8
  20395825.351    20395825.597    22477878.337 9 -60582358.871 8
  21103286.431    21103287.698    37685689.451 9 -48826725.040 8
 86  6 11  1 15 23.0800000  0  4G 6G 8G 9G11
  20815744.749    20815745.893    37509696.100 8 -49087270.767 8
  24576171.616    24576173.861    57840400.888 6 -33274072.137 9
  20394168.567    20394169.272    22469170.553 8 -60589144.152 8
  21105236.280    21105238.844    37695938.512 8 -48818738.750 7
 86  6 11  1 15 29.0800000  0  4G 6G 8G 9G11
  20817499.084    20817498.111    37518912.774 9 -49080088.939 8
  24580399.404    24580402.012    57862623.805 6 -33256755.604 9
  20392515.348    20392516.103    22460481.880 8 -60595914.542 8
  21107189.568    21107192.295    37706203.077 9 -48810740.389 8
 86  6 11  1 15 35.0800000  0  4G 6G 8G 9G11
  20819256.196    20819256.940    37528150.659 9 -49072890.592 8
  24584626.670    24584631.265    57884846.280 6 -33239439.401 9
  20390864.746    20390866.201    22451812.379 8 -60602670.000 8
  21109146.191    21109147.068    37716483.135 9 -48802729.967 8
 86  6 11  1 15 41.0800000  0  4G 6G 8G 9G11
  20821019.332    20821019.260    37537409.777 9 -49065675.702 8
  24588856.902    24588860.326    57907068.308 6 -33222123.541 8
  20389218.993    20389220.509    22443162.048 8 -60609410.516 8
  21111105.510    21111106.633    37726778.708 9 -48794707.438 8
 86  6 11  1 15 47.0800000  0  4G 6G 8G 9G11
  20822784.256    20822783.754    37546690.225 8 -49058444.192 8
  24593083.094    24593088.799    57929289.914 6 -33204808.010 8
  20387576.135    20387577.580    22434530.856 8 -60616136.123 7
  21113067.326    21113069.422    37737089.769 9 -48786672.858 8
 86  6 11  1 15 53.0800000  0  4G 6G 8G 9G11
  20824554.288    20824556.091    37555991.834 9 -49051196.180 8
  24597314.074    24597318.140    57951511.040 6 -33187492.867 9
  20385937.733    20385937.783    22425918.770 9 -60622846.836 8
  21115032.106    21115034.642    37747416.249 9 -48778626.249 9
 86  6 11  1 15 59.0800000  0  4G 6G 8G 9G11
  20826328.600    20826328.313    37565314.695 9 -49043931.621 9
  24601543.053    24601545.496    57973731.637 6 -33170178.124 8
  20384302.980    20384303.728    22417325.972 9 -60629542.522 8
  21116999.630    21117002.631    37757758.204 9 -48770567.588 7
 86  6 11  1 16  5.0800000  0  4G 6G 8G 9G11
  20828107.045    20828106.744    37574658.775 9 -49036650.525 8
  24605769.796    24605773.791    57995951.757 6 -33152863.766 9
  20382671.263    20382672.488    22408752.462 8 -60636223.181 8
  21118970.360    21118973.104    37768115.585 9 -48762496.901 8
 86  6 11  1 16 11.0800000  0  4G 6G 8G 9G11
  20829887.725    20829889.642    37584024.123 9 -49029352.853 8
  24609998.947    24610002.809    58018171.315 6 -33135549.831 8
  20381043.073    20381044.779    22400198.061 9 -60642888.950 8
  21120944.420    21120946.684    37778488.358 9 -48754414.228 8
 86  6 11  1 16 17.0800000  0  4G 6G 8G 9G11
  20831675.272    20831676.544    37593410.702 9 -49022038.630 8
  24614227.087    24614229.501    58040390.353 7 -33118236.306 7
  20379418.086    20379419.130    22391663.079 9 -60649539.583 9
  21122921.792    21122923.485    37788876.448 8 -48746319.610 8
 86  6 11  1 16 23.0800000  0  4G 6G 8G 9G11
  20833465.881    20833465.938    37602818.524 9 -49014707.862 8
  24618455.481    24618458.603    58062608.832 6 -33100923.213 9
  20377798.103    20377799.676    22383147.216 9 -60656175.317 9
  21124901.752    21124903.523    37799279.911 9 -48738213.019 8
 86  6 11  1 16 29.0800000  0  4G 6G 8G 9G11
  20835259.982    20835260.682    37612247.539 9 -49007360.588 8
  24622684.132    24622685.418    58084826.715 6 -33083610.587 8
  20376181.193    20376181.356    22374650.726 9 -60662795.955 9
  21126883.658    21126885.912    37809698.707 8 -48730094.469 8
 86  6 11  1 16 35.0800000  0  4G 6G 8G 9G11
  20837058.733    20837058.976    37621697.781 8 -48999996.777 8
  24626912.150    24626914.270    58107044.007 7 -33066298.412 8
  20374568.675    20374569.673    22366173.617 9 -60669401.495 8
  21128869.652    21128871.734    37820132.784 9 -48721964.029 8
 86  6 11  1 16 41.0800000  0  4G 6G 8G 9G11
  20838860.545    20838861.247    37631169.275 9 -48992616.396 8
  24631138.591    24631141.264    58129260.656 7 -33048986.743 8
  20372959.177    20372960.325    22357715.916 9 -60675991.917 9
  21130858.432    21130858.398    37830582.161 9 -48713821.662 8
 86  6 11  1 16 47.0800000  0  4G 6G 8G 9G11
  20840666.782    20840667.753    37640661.981 9 -48985219.485 7
  24635366.849    24635368.649    58151476.640 8 -33031675.582 7
  20371352.516    20371354.404    22349277.432 9 -60682567.342 9
  21132849.028    21132851.138    37841046.787 9 -48705667.410 9
 86  6 11  1 16 53.0800000  0  4G 6G 8G 9G11
  20842477.609    20842477.066    37650175.899 9 -48977806.047 7
  24639594.501    24639597.315    58173692.009 8 -33014364.910 8
  20369749.951    20369752.741    22340858.384 8 -60689127.640 8
  21134843.535    21134845.946    37851526.740 9 -48697501.215 8
 86  6 11  1 16 59.0800000  0  4G 6G 8G 9G11
  20844292.272    20844291.384    37659711.016 9 -48970376.090 8
  24643821.836    24643824.615    58195906.678 7 -32997054.785 8
  20368152.590    20368153.592    22332458.706 9 -60695672.849 9
  21136840.573    21136842.487    37862021.961 9 -48689323.122 7
 86  6 11  1 17  5.0800000  0  4G 6G 8G 9G11
  20846110.426    20846110.941    37669267.370 9 -48962929.582 9
  24648048.515    24648050.722    58218120.662 7 -32979745.200 8
  20366557.652    20366558.879    22324078.487 9 -60702202.888 8
  21138840.018    21138843.469    37872532.385 9 -48681133.195 8
 86  6 11  1 17 11.0800000  0  3G 6G 9G11
  20847932.178    20847934.154    37678844.961 9 -48955466.531 8
  20364967.441    20364968.323    22315717.703 9 -60708717.796 8
  21140844.163    21140846.301    37883057.941 9 -48672931.450 8
 86  6 11  1 17 17.0800000  0  3G 6G 9G11
  20849758.956    20849759.417    37688443.745 9 -48947986.966 8
  20363379.422    20363381.873    22307376.443 8 -60715217.476 8
  21142850.103    21142851.327    37893598.671 9 -48664717.905 9
 86  6 11  1 17 23.0800000  0  3G 6G 9G11
  20851590.142    20851590.793    37698063.732 9 -48940490.877 9
  20361796.500    20361797.860    22299054.635 8 -60721701.983 8
  21144858.656    21144860.867    37904154.556 9 -48656492.546 8
 86  6 11  1 17 29.0800000  0  3G 6G 9G11
  20853424.656    20853424.866    37707704.991 8 -48932978.219 8
  20360216.393    20360217.956    22290752.390 8 -60728171.276 9
  21146869.749    21146872.088    37914725.619 9 -48648255.349 8
 86  6 11  1 17 35.0800000  0  3G 6G 9G11
  20855262.929    20855264.109    37717367.431 9 -48925449.041 8
  20358640.979    20358640.894    22282469.647 8 -60734625.361 8
  21148884.512    21148886.071    37925311.806 9 -48640006.379 9
 86  6 11  1 17 41.0800000  0  3G 6G 9G11
  20857106.452    20857106.928    37727051.049 9 -48917903.371 8
  20357067.149    20357069.022    22274206.378 8 -60741064.267 8
  21150902.301    21150903.889    37935912.988 9 -48631745.721 9
 86  6 11  1 17 47.0800000  0  3G 6G 9G11
  20858953.698    20858952.521    37736755.784 9 -48910341.248 8
  20355498.928    20355500.551    22265962.681 9 -60747487.924 9
  21152921.499    21152924.762    37946529.196 9 -48623473.354 9
 86  6 11  1 17 53.0800000  0  3G 6G 9G11
  20860803.680    20860804.849    37746481.669 8 -48902762.637 9
  20353934.349    20353935.623    22257738.521 9 -60753896.364 9
  21154945.163    21154947.266    37957160.491 9 -48615189.229 9
 86  6 11  1 17 59.0800000  0  3G 6G 9G11
  20862658.286    20862659.377    37756228.846 9 -48895167.434 9
  20352373.070    20352374.143    22249534.046 9 -60760289.445 9
  21156971.093    21156972.568    37967806.859 9 -48606893.362 9
 86  6 11  1 18  5.0800000  0  3G 6G 9G11
  20864517.462    20864518.278    37765997.232 9 -48887555.711 7
  20350815.433    20350815.861    22241349.261 9 -60766667.206 8
  21158999.744    21159000.988    37978468.275 9 -48598585.768 9
 86  6 11  1 18 11.0800000  0  3G 6G 9G11
  20866380.493    20866380.643    37775786.844 9 -48879927.454 8
  20349262.169    20349262.419    22233184.068 8 -60773029.698 9
  21161031.289    21161034.167    37989144.718 9 -48590266.465 8
 86  6 11  1 18 17.0800000  0  3G 6G 9G11
  20868246.558    20868248.168    37785597.695 9 -48872282.637 8
  20347711.145    20347712.543    22225038.592 8 -60779376.811 9
  21163066.623    21163068.741    37999836.148 8 -48581935.485 9
 86  6 11  1 18 23.0800000  0  3G 6G 9G11
  20870117.796    20870119.066    37795429.594 9 -48864621.426 9
  20346163.861    20346167.036    22216912.782 9 -60785708.616 8
  21165102.793    21165105.504    38010542.483 9 -48573592.892 9
 86  6 11  1 18 29.0800000  0  3G 6G 9G11
  20871992.712    20871993.201    37805282.645 9 -48856943.723 8
  20344622.902    20344623.515    22208806.631 8 -60792025.091 7
  21167143.934    21167145.995    38021263.811 9 -48565238.611 9
 86  6 11  1 18 35.0800000  0  3G 6G 9G11
  20873872.814    20873873.157    37815156.972 9 -48849249.449 8
  20343083.517    20343084.582    22200720.233 8 -60798326.190 8
  21169187.159    21169189.269    38031999.987 9 -48556872.763 8
 86  6 11  1 18 41.0800000  0  3G 6G 9G11
  20875755.439    20875755.825    37825052.508 9 -48841538.655 8
  20341548.928    20341549.802    22192653.557 9 -60804611.912 9
  21171232.614    21171233.923    38042751.101 9 -48548495.286 8
 86  6 11  1 18 47.0800000  0  3G 6G 9G11
  20877641.884    20877642.850    37834969.217 9 -48833811.350 9
  20340017.281    20340018.423    22184606.732 9 -60810882.173 8
  21173281.555    21173283.214    38053517.154 9 -48540106.144 8
 86  6 11  1 18 53.0800000  0  3G 6G 9G11
  20879532.941    20879534.385    37844907.101 8 -48826067.544 7
  20338489.445    20338489.620    22176579.780 9 -60817136.928 9
  21175332.269    21175334.458    38064298.061 9 -48531705.438 9
 86  6 11  1 18 59.0800000  0  3G 6G 9G11
  20881428.171    20881428.983    37854866.139 9 -48818307.264 7
  20336967.007    20336966.523    22168572.505 8 -60823376.372 8
  21177386.884    21177388.722    38075093.779 9 -48523293.189 9
 86  6 11  1 19  5.0800000  0  3G 6G 9G11
  20883327.105    20883329.203    37864846.384 9 -48810530.451 9
  20335446.964    20335446.120    22160585.038 9 -60829600.370 8
  21179443.321    21179446.628    38085904.271 9 -48514869.444 8
 86  6 11  1 19 11.0800000  0  3G 6G 9G11
  20885230.931    20885231.039    37874847.719 9 -48802737.207 8
  20333929.850    20333930.920    22152617.374 9 -60835808.934 8
  21181504.896    21181505.632    38096729.469 9 -48506434.228 8
 86  6 11  1 19 17.0800000  0  3G 6G 9G11
  20887138.686    20887138.397    37884870.222 9 -48794927.471 8
  20332418.624    20332417.339    22144669.629 8 -60842001.979 9
  21183566.437    21183568.540    38107569.491 9 -48497987.448 9
 86  6 11  1 19 23.0800000  0  3G 6G 9G11
  20889049.697    20889049.540    37894913.891 9 -48787101.233 8
  20330909.848    20330909.774    22136741.904 9 -60848179.442 8
  21185632.890    21185634.779    38118424.334 9 -48489529.137 8
 86  6 11  1 19 29.0800000  0  3G 6G 9G11
  20890964.571    20890965.662    37904978.756 9 -48779258.492 8
  20329404.162    20329405.584    22128833.996 7 -60854341.443 9
  21187701.434    21187703.073    38129293.913 9 -48481059.346 9
 86  6 11  1 19 35.0800000  0  3G 6G 9G11
  20892883.348    20892884.353    37915064.818 9 -48771399.229 9
  20327902.914    20327903.823    22120946.030 9 -60860487.909 8
  21189772.712    21189773.834    38140178.254 9 -48472578.037 8
 86  6 11  1 19 41.0800000  0  3G 6G 9G11
  20894807.032    20894807.869    37925171.987 9 -48763523.512 8
  20326406.393    20326407.879    22113077.950 9 -60866618.885 9
  21191846.521    21191848.052    38151077.250 9 -48464085.324 8
 86  6 11  1 19 47.0800000  0  3G 6G 9G11
  20896735.027    20896734.630    37935300.222 9 -48755631.387 8
  20324912.106    20324913.756    22105229.844 9 -60872734.295 8
  21193923.493    21193925.903    38161990.848 9 -48455581.224 8
 86  6 11  1 19 53.0800000  0  3G 6G 9G11
  20898665.158    20898667.102    37945449.571 9 -48747722.797 9
  20323423.402    20323423.350    22097401.581 7 -60878834.243 8
  21196002.597    21196004.736    38172919.125 9 -48447065.675 9
 86  6 11  1 19 59.0800000  0  3G 6G 9G11
  20900601.123    20900601.371    37955620.174 9 -48739797.673 8
  20321935.874    20321938.140    22089593.500 8 -60884918.474 9
  21198085.986    21198087.632    38183862.069 9 -48438538.724 8
 86  6 11  1 20  5.0800000  0  3G 6G 9G11
  20902540.512    20902541.718    37965811.873 8 -48731856.095 8
  20320455.036    20320455.408    22081805.444 8 -60890987.073 8
  21200170.393    21200172.489    38194819.629 9 -48430000.355 8
 86  6 11  1 20 11.0800000  0  3G 6G 9G11
  20904483.663    20904485.883    37976024.744 9 -48723898.019 8
  20318977.866    20318976.832    22074037.337 8 -60897040.152 8
  21202258.318    21202260.013    38205791.850 9 -48421450.585 9
 86  6 11  1 20 17.0800000  0  3G 6G 9G11
  20906430.495    20906433.014    37986258.716 9 -48715923.505 8
  20317502.233    20317503.444    22066289.396 9 -60903077.508 8
  21204348.633    21204351.631    38216778.656 9 -48412889.437 8
 86  6 11  1 20 23.0800000  0  3G 6G 9G11
  20908382.841    20908383.882    37996513.774 9 -48707932.550 8
  20316031.986    20316031.886    22058561.412 8 -60909099.318 8
  21206442.884    21206444.866    38227779.974 9 -48404316.984 9
 86  6 11  1 20 29.0800000  0  3G 6G 9G11
  20910337.437    20910339.236    38006789.935 9 -48699925.152 8
  20314564.652    20314566.355    22050853.601 8 -60915105.394 9
  21208539.845    21208540.597    38238795.906 9 -48395733.154 9
 86  6 11  1 20 35.0800000  0  3G 6G 9G11
  20912297.646    20912298.414    38017087.260 9 -48691901.271 9
  20313102.000    20313102.760    22043165.915 8 -60921095.795 9
  21210637.973    21210639.899    38249826.353 9 -48387138.002 8
 86  6 11  1 20 41.0800000  0  3G 6G 9G11
  20914260.538    20914262.684    38027405.700 8 -48683860.929 7
  20311643.742    20311644.482    22035498.355 8 -60927070.514 7
  21212739.422    21212741.211    38260871.333 9 -48378531.531 8
 86  6 11  1 20 47.0800000  0  3G 6G 9G11
  20916228.463    20916230.444    38037745.365 9 -48675804.058 8
  20310187.792    20310189.269    22027850.984 8 -60933029.519 7
  21214844.232    21214846.163    38271930.809 9 -48369913.749 8
 86  6 11  1 20 53.0800000  0  3G 6G 9G11
  20918200.369    20918202.176    38048106.162 9 -48667730.706 8
  20308736.307    20308737.571    22020223.852 8 -60938972.725 9
  21216951.718    21216953.320    38283004.760 9 -48361284.703 9
 86  6 11  1 20 59.0800000  0  3G 6G 9G11
  20920175.109    20920177.020    38058487.989 8 -48659640.972 8
  20307289.190    20307289.122    22012616.828 8 -60944900.288 9
  21219061.523    21219063.863    38294093.147 9 -48352644.412 9
 86  6 11  1 21  5.0800000  0  3G 6G 9G11
  20922155.655    20922156.808    38068890.903 9 -48651534.810 9
  20305844.795    20305847.167    22005030.029 8 -60950812.076 8
  21221174.003    21221176.900    38305195.929 9 -48343992.885 8
 86  6 11  1 21 11.0800000  0  3G 6G 9G11
  20924139.254    20924140.409    38079314.915 9 -48643412.211 8
  20304405.132    20304406.785    21997463.478 8 -60956708.084 8
  21223289.803    21223292.199    38316313.094 9 -48335330.163 9
 86  6 11  1 21 17.0800000  0  3G 6G 9G11
  20926127.103    20926127.683    38089760.051 8 -48635273.155 8
  20302969.033    20302971.012    21989917.134 8 -60962588.349 8
  21225407.364    21225411.505    38327444.638 9 -48326656.234 9
 86  6 11  1 21 23.0800000  0  3G 6G 9G11
  20928118.593    20928119.351    38100226.259 9 -48627117.668 9
  20301536.758    20301537.888    21982391.065 8 -60968452.822 7
  21227529.408    21227531.061    38338590.585 9 -48317971.095 9
 86  6 11  1 21 29.0800000  0  3G 6G 9G11
  20930113.899    20930115.826    38110713.604 9 -48618945.719 7
  20300110.539    20300109.581    21974885.347 8 -60974301.437 8
  21229652.871    21229654.324    38349750.862 9 -48309274.768 8
 86  6 11  1 21 35.0800000  0  3G 6G 9G11
  20932113.997    20932114.651    38121222.027 8 -48610757.336 8
  20298684.184    20298685.165    21967399.979 9 -60980134.199 8
  21231778.058    21231781.807    38360925.503 9 -48300567.267 8
 86  6 11  1 21 41.0800000  0  3G 6G 9G11
  20934117.281    20934118.783    38131751.547 9 -48602552.527 7
  20297263.592    20297264.833    21959934.918 9 -60985951.125 8
  21233909.454    21233909.763    38372114.422 9 -48291848.634 8
 86  6 11  1 21 47.0800000  0  3G 6G 9G11
  20936125.458    20936126.352    38142302.101 8 -48594331.315 8
  20295847.482    20295848.513    21952490.169 9 -60991752.227 8
  21236040.580    21236042.204    38383317.565 9 -48283118.904 9
 86  6 11  1 21 53.0800000  0  3G 6G 9G11
  20938136.529    20938138.043    38152873.706 9 -48586093.704 9
  20294434.873    20294434.511    21945065.780 9 -60997537.452 9
  21238175.068    21238176.427    38394534.975 9 -48274378.072 9
 86  6 11  1 21 59.0800000  0  3G 6G 9G11
  20940151.710    20940153.935    38163466.373 9 -48577839.677 8
  20293026.144    20293026.168    21937661.873 8 -61003306.745 8
  21240312.425    21240314.808    38405766.663 9 -48265626.124 9
 86  6 11  1 22  5.0800000  0  3G 6G 9G11
  20942171.750    20942173.151    38174080.164 8 -48569569.199 8
  20291619.750    20291620.887    21930278.307 8 -61009060.173 8
  21242453.187    21242455.062    38417012.602 9 -48256863.044 9
 86  6 11  1 22 11.0800000  0  3G 6G 9G11
  20944196.285    20944196.972    38184715.074 9 -48561282.268 8
  20290218.307    20290221.008    21922915.251 9 -61014797.616 8
  21244594.737    21244596.861    38428272.752 9 -48248088.907 8
 86  6 11  1 22 17.0800000  0  3G 6G 9G11
  20946223.568    20946225.285    38195371.103 8 -48552978.878 8
  20288822.138    20288823.427    21915572.669 9 -61020519.102 8
  21246740.514    21246742.739    38439547.067 9 -48239303.734 9
 86  6 11  1 22 23.0800000  0  3G 6G 9G11
  20948255.770    20948256.549    38206048.095 9 -48544659.141 9
  20287429.228    20287431.005    21908250.454 9 -61026224.724 9
  21248888.875    21248890.370    38450835.530 9 -48230507.532 9
 86  6 11  1 22 29.0800000  0  3G 6G 9G11
  20950290.753    20950293.185    38216746.106 8 -48536323.030 9
  20286039.308    20286041.121    21900948.771 8 -61031914.341 7
  21251038.931    21251040.584    38462138.088 9 -48221700.344 8
 86  6 11  1 22 35.0800000  0  3G 6G 9G11
  20952330.724    20952333.575    38227465.096 9 -48527970.574 9
  20284653.572    20284654.499    21893667.515 9 -61037588.067 9
  21253192.900    21253194.760    38473454.768 9 -48212882.162 8
 86  6 11  1 22 41.0800000  0  3G 6G 9G11
  20954375.296    20954377.088    38238205.195 9 -48519601.672 8
  20283272.007    20283273.433    21886406.783 8 -61043245.774 8
  21255349.289    21255351.248    38484785.581 9 -48204052.954 9
 86  6 11  1 22 47.0800000  0  3G 6G 9G11
  20956422.286    20956423.789    38248966.374 8 -48511216.345 8
  20281894.434    20281894.331    21879166.650 8 -61048887.428 8
  21257507.143    21257510.491    38496130.529 9 -48195212.741 8
 86  6 11  1 22 53.0800000  0  3G 6G 9G11
  20958474.512    20958476.264    38259748.564 9 -48502814.638 8
  20280520.802    20280520.713    21871947.120 8 -61054513.058 8
  21259669.555    21259671.917    38507489.506 9 -48186361.596 8
 86  6 11  1 22 59.0800000  0  3G 6G 9G11
  20960530.868    20960531.929    38270551.821 8 -48494396.525 8
  20279150.422    20279152.829    21864748.171 8 -61060122.610 8
  21261832.906    21261835.867    38518862.566 9 -48177499.457 8
 86  6 11  1 23  5.0800000  0  3G 6G 9G11
  20962590.360    20962590.593    38281376.116 9 -48485962.017 9
  20277784.791    20277784.895    21857569.723 9 -61065716.211 9
  21264000.340    21264002.143    38530249.661 9 -48168626.403 9
 86  6 11  1 23 11.0800000  0  3G 6G 9G11
  20964653.852    20964655.515    38292221.392 9 -48477511.160 9
  20276421.888    20276423.446    21850411.880 8 -61071293.745 8
  21266170.128    21266171.738    38541650.778 9 -48159742.432 9
 86  6 11  1 23 17.0800000  0  3G 6G 9G11
  20966721.706    20966723.635    38303087.697 9 -48469043.908 8
  20275064.170    20275064.892    21843274.695 9 -61076855.188 8
  21268342.220    21268344.459    38553065.858 9 -48150847.567 8
 86  6 11  1 23 23.0800000  0  3G 6G 9G11
  20968792.830    20968794.865    38313974.980 9 -48460560.309 9
  20273709.933    20273710.852    21836158.138 8 -61082400.558 9
  21270517.504    21270520.080    38564494.852 8 -48141941.857 8
 86  6 11  1 23 29.0800000  0  3G 6G 9G11
  20970868.864    20970870.028    38324883.327 9 -48452060.304 8
  20272360.384    20272359.968    21829062.372 9 -61087929.734 8
  21272694.433    21272696.894    38575937.842 9 -48133025.245 9
 86  6 11  1 23 35.0800000  0  3G 6G 9G11
  20972949.020    20972950.855    38335812.686 9 -48443543.929 9
  20271013.299    20271013.720    21821987.232 8 -61093442.831 9
  21274874.387    21274876.598    38587394.811 9 -48124097.743 8
 86  6 11  1 23 41.0800000  0  3G 6G 9G11
  20975032.206    20975034.001    38346762.995 9 -48435011.218 9
  20269670.945    20269672.358    21814932.828 9 -61098939.765 8
  21277057.376    21277059.451    38598865.683 9 -48115159.394 8
 86  6 11  1 23 47.0800000  0  3G 6G 9G11
  20977120.903    20977121.140    38357734.274 9 -48426462.184 8
  20268332.385    20268333.415    21807899.148 8 -61104420.563 8
  21279242.962    21279244.179    38610350.400 9 -48106210.273 9
 86  6 11  1 23 53.0800000  0  3G 6G 9G11
  20979212.872    20979213.770    38368726.546 9 -48417896.780 8
  20266997.433    20266999.090    21800886.121 8 -61109885.242 8
  21281430.817    21281433.284    38621848.931 8 -48097250.383 8
 86  6 11  1 23 59.0800000  0  3G 6G 9G11
  20981308.174    20981308.878    38379739.791 8 -48409315.034 8
  20265667.549    20265667.995    21793893.934 8 -61115333.713 7
  21283622.205    21283624.830    38633361.300 8 -48088279.710 8
 86  6 11  1 24  5.0800000  0  3G 6G 9G11
  20983407.303    20983409.235    38390774.066 9 -48400716.898 9
  20264340.202    20264341.908    21786922.604 8 -61120765.921 8
  21285815.181    21285817.707    38644887.507 8 -48079298.255 8
 86  6 11  1 24 11.0800000  0  3G 6G 9G11
  20985511.191    20985512.461    38401829.329 9 -48392102.415 8
  20263018.430    20263019.406    21779972.021 8 -61126181.951 8
  21288011.084    21288013.939    38656427.544 9 -48070306.028 8
 86  6 11  1 24 17.0800000  0  3G 6G 9G11
  20987619.783    20987620.856    38412905.607 9 -48383471.551 8
  20261699.583    20261701.465    21773042.283 7 -61131581.745 8
  21290209.406    21290212.031    38667981.394 9 -48061303.027 9
 86  6 11  1 24 23.0800000  0  3G 6G 9G11
  20989731.487    20989733.422    38424002.857 9 -48374824.338 8
  20260384.628    20260384.519    21766133.341 7 -61136965.334 8
  21292411.131    21292413.693    38679549.028 9 -48052289.301 9
 86  6 11  1 24 29.0800000  0  3G 6G 9G11
  20991847.111    20991847.430    38435121.066 9 -48366160.815 8
  20259074.591    20259074.378    21759245.269 8 -61142332.673 9
  21294615.262    21294616.694    38691130.333 9 -48043264.902 9
 86  6 11  1 24 35.0800000  0  3G 6G 9G11
  20993966.649    20993967.723    38446260.174 8 -48357481.003 8
  20257767.223    20257766.883    21752378.111 8 -61147683.704 8
  21296821.654    21296823.888    38702725.336 9 -48034229.838 8
 86  6 11  1 24 41.0800000  0  3G 6G 9G11
  20996090.159    20996090.978    38457420.246 9 -48348784.846 9
  20256463.699    20256466.250    21745531.792 8 -61153018.486 8
  21299030.478    21299033.189    38714334.020 8 -48025184.119 9
 86  6 11  1 24 47.0800000  0  3G 6G 9G11
  20998218.236    20998219.127    38468601.288 8 -48340072.344 8
  20255165.194    20255166.049    21738706.423 9 -61158336.955 8
  21301242.129    21301244.475    38725956.355 9 -48016127.755 9
 86  6 11  1 24 53.0800000  0  3G 6G 9G11
  21000349.904    21000350.906    38479803.304 9 -48331343.495 8
  20253870.503    20253871.101    21731902.121 8 -61163639.014 7
  21303456.312    21303458.916    38737592.417 9 -48007060.691 8
 86  6 11  1 24 59.0800000  0  3G 6G 9G11
  21002484.654    21002486.850    38491026.340 9 -48322598.289 9
  20252579.772    20252580.166    21725118.738 8 -61168924.773 8
  21305673.907    21305675.817    38749242.158 9 -47997982.972 9
 86  6 11  1 25  5.0800000  0  3G 6G 9G11
  21004625.162    21004626.195    38502270.258 9 -48313836.804 9
  20251291.984    20251294.392    21718356.238 8 -61174194.241 8
  21307892.447    21307894.400    38760905.528 9 -47988894.645 8
 86  6 11  1 25 11.0800000  0  3G 6G 9G11
  21006769.319    21006770.052    38513535.087 8 -48305059.012 8
  20250010.016    20250011.325    21711614.775 8 -61179447.333 8
  21310115.036    21310116.818    38772582.486 9 -47979795.724 9
 86  6 11  1 25 17.0800000  0  3G 6G 9G11
  21008916.480    21008917.418    38524820.893 8 -48296264.881 9
  20248731.236    20248731.812    21704894.296 8 -61184684.064 8
  21312338.255    21312341.268    38784273.016 9 -47970686.214 9
 86  6 11  1 25 23.0800000  0  3G 6G 9G11
  21011067.141    21011069.285    38536127.487 9 -48287454.558 8
  20247457.106    20247457.834    21698194.758 9 -61189904.483 8
  21314566.653    21314568.100    38795977.075 9 -47961566.171 9
 86  6 11  1 25 29.0800000  0  3G 6G 9G11
  21013223.708    21013225.264    38547455.039 9 -48278627.890 8
  20246185.436    20246186.497    21691516.386 7 -61195108.411 8
  21316796.442    21316798.839    38807694.729 9 -47952435.545 9
 86  6 11  1 25 35.0800000  0  3G 6G 9G11
  21015383.044    21015384.929    38558803.575 9 -48269784.891 8
  20244918.576    20244919.603    21684859.171 8 -61200295.858 8
  21319028.525    21319031.923    38819425.886 8 -47943294.373 8
 86  6 11  1 25 41.0800000  0  3G 6G 9G11
  21017546.383    21017547.362    38570172.993 9 -48260925.601 8
  20243656.685    20243657.578    21678222.905 9 -61205466.967 8
  21321263.657    21321266.453    38831170.594 9 -47934142.659 8
 86  6 11  1 25 47.0800000  0  3G 6G 9G11
  21019714.274    21019715.828    38581563.316 9 -48252050.035 8
  20242396.683    20242397.875    21671607.793 9 -61210621.610 7
  21323501.621    21323503.216    38842928.781 9 -47924980.447 8
 86  6 11  1 25 53.0800000  0  3G 6G 9G11
  21021885.923    21021886.564    38592974.564 9 -48243158.156 8
  20241142.183    20241143.388    21665013.731 8 -61215759.836 8
  21325741.475    21325743.678    38854700.398 9 -47915807.757 8
 86  6 11  1 25 59.0800000  0  3G 6G 9G11
  21024061.865    21024061.558    38604406.580 9 -48234250.090 9
  20239890.609    20239890.933    21658440.809 8 -61220881.597 8
  21327984.919    21327986.421    38866485.417 9 -47906624.626 8
 86  6 11  1 26  5.0800000  0  3G 6G 9G11
  21026240.397    21026241.406    38615859.518 9 -48225325.729 9
  20238645.268    20238645.410    21651889.001 7 -61225986.902 8
  21330228.995    21330231.713    38878283.891 9 -47897431.021 8
 86  6 11  1 26 11.0800000  0  3G 6G 9G11
  21028423.926    21028424.921    38627333.320 9 -48216385.104 9
  20237402.854    20237402.750    21645358.538 9 -61231075.575 8
  21332476.303    21332479.136    38890095.802 9 -47888226.930 8
 86  6 11  1 26 17.0800000  0  3G 6G 9G11
  21030612.173    21030613.049    38638828.027 8 -48207428.205 9
  20236163.324    20236163.166    21638849.093 9 -61236147.862 8
  21334727.160    21334729.951    38901921.087 9 -47879012.426 8
 86  6 11  1 26 23.0800000  0  3G 6G 9G11
  21032803.124    21032803.901    38650343.688 9 -48198454.962 8
  20234928.312    20234930.111    21632360.974 9 -61241203.539 7
  21336979.813    21336982.304    38913759.741 9 -47869787.515 9
 86  6 11  1 26 29.0800000  0  3G 6G 9G11
  21034998.011    21034999.328    38661880.188 8 -48189465.490 8
  20233698.855    20233699.031    21625894.019 9 -61246242.731 7
  21339235.015    21339237.411    38925611.706 9 -47860552.214 9
 86  6 11  1 26 35.0800000  0  3G 6G 9G11
  21037197.502    21037198.032    38673437.508 9 -48180459.786 8
  20232471.433    20232471.803    21619448.340 9 -61251265.337 8
  21341493.032    21341495.609    38937476.995 9 -47851306.534 9
 86  6 11  1 26 41.0800000  0  3G 6G 9G11
  21039401.382    21039401.994    38685015.649 9 -48171437.861 7
  20231248.914    20231248.968    21613023.940 8 -61256271.374 8
  21343753.041    21343756.046    38949355.590 9 -47842050.501 8
 86  6 11  1 26 47.0800000  0  3G 6G 9G11
  21041608.301    21041609.155    38696614.630 9 -48162399.701 8
  20230030.470    20230031.841    21606620.794 8 -61261260.818 8
  21346017.049    21346018.543    38961247.429 8 -47832784.124 8
 86  6 11  1 26 53.0800000  0  3G 6G 9G11
  21043819.589    21043820.597    38708234.470 9 -48153345.284 8
  20228815.739    20228817.517    21600238.944 8 -61266233.701 8
  21348282.372    21348284.933    38973152.583 9 -47823507.383 8
 86  6 11  1 26 59.0800000  0  3G 6G 9G11
  21046034.548    21046035.710    38719875.187 8 -48144274.596 8
  20227605.696    20227605.774    21593878.396 8 -61271189.965 8
  21350550.644    21350552.782    38985071.030 9 -47814220.296 9
 86  6 11  1 27  5.0800000  0  3G 6G 9G11
  21048253.552    21048255.810    38731536.769 9 -48135187.663 8
  20226399.925    20226401.126    21587539.207 8 -61276129.606 9
  21352820.782    21352822.486    38997002.746 8 -47804922.865 8
 86  6 11  1 27 11.0800000  0  3G 6G 9G11
  21050476.765    21050476.750    38743219.163 9 -48126084.500 8
  20225197.756    20225197.405    21581221.365 9 -61281052.603 8
  21355094.013    21355095.758    39008947.626 9 -47795615.163 8
 86  6 11  1 27 17.0800000  0  3G 6G 9G11
  21052704.444    21052704.208    38754922.376 9 -48116965.114 9
  20223998.763    20223999.998    21574924.945 9 -61285958.899 8
  21357368.652    21357371.964    39020905.641 9 -47786297.229 8
 86  6 11  1 27 23.0800000  0  3G 6G 9G11
  21054934.353    21054936.159    38766646.376 9 -48107829.528 9
  20222805.125    20222805.620    21568649.818 9 -61290848.598 9
  21359647.777    21359648.077    39032876.799 9 -47776969.057 9
 86  6 11  1 27 29.0800000  0  3G 6G 9G11
  21057169.603    21057170.740    38778391.225 8 -48098677.707 8
  20221614.954    20221614.488    21562396.225 8 -61295721.521 8
  21361928.783    21361929.813    39044861.148 9 -47767630.610 9
 86  6 11  1 27 35.0800000  0  3G 6G 9G11
  21059409.195    21059408.740    38790156.886 9 -48089509.662 8
  20220429.323    20220429.735    21556164.053 8 -61300577.776 7
  21364211.721    21364213.940    39056858.664 9 -47758281.905 8
 86  6 11  1 27 41.0800000  0  3G 6G 9G11
  21061650.933    21061652.769    38801943.305 9 -48080325.453 9
  20219245.856    20219247.563    21549953.294 8 -61305417.325 8
  21366496.478    21366498.609    39068869.301 9 -47748922.983 8
 86  6 11  1 27 47.0800000  0  3G 6G 9G11
  21063898.578    21063899.140    38813750.569 9 -48071124.980 8
  20218068.965    20218069.394    21543764.061 9 -61310240.099 8
  21368785.039    21368787.128    39080893.020 9 -47739553.843 8
 86  6 11  1 27 53.0800000  0  3G 6G 9G11
  21066149.442    21066149.747    38825578.569 9 -48061908.368 9
  20216895.231    20216896.237    21537596.261 9 -61315046.181 9
  21371075.005    21371076.641    39092929.793 9 -47730174.554 8
 86  6 11  1 27 59.0800000  0  3G 6G 9G11
  21068403.970    21068404.389    38837427.320 8 -48052675.588 9
  20215724.354    20215727.419    21531449.930 8 -61319835.529 8
  21373367.780    21373369.390    39104979.535 9 -47720785.136 9
 86  6 11  1 28  5.0800000  0  3G 6G 9G11
  21070661.862    21070663.752    38849296.847 9 -48043426.603 9
  20214559.745    20214562.312    21525325.061 8 -61324608.154 7
  21375663.761    21375665.608    39117042.294 9 -47711385.597 8
 86  6 11  1 28 11.0800000  0  3G 6G 9G11
  21072925.631    21072926.265    38861187.169 8 -48034161.421 8
  20213397.997    20213399.921    21519221.730 9 -61329364.002 8
  21377961.781    21377963.921    39129118.064 8 -47701975.908 8
 86  6 11  1 28 17.0800000  0  3G 6G 9G11
  21075190.869    21075194.153    38873098.253 5 -48024880.068 5
  20212240.736    20212240.634    21513140.025 5 -61334102.990 6
  21380261.644    21380263.961    39141206.815 5 -47692556.100 5
 86  6 11  1 28 23.0800000  0  3G 6G 9G11
  21077463.065    21077464.443    38885030.066 9 -48015582.554 8
  20211088.116    20211089.551    21507079.884 9 -61338825.166 8
  21382563.504    21382566.423    39153308.538 9 -47683126.201 9
 86  6 11  1 28 29.0800000  0  4G 6G13G 9G11
  21079737.097    21079738.374    38896982.667 9 -48006268.852 8
                  21335490.517    -4791050.455 9
  20209938.865    20209940.240    21501041.333 8 -61343530.550 7
  21384870.503    21384871.397    39165423.198 9 -47673686.204 8
 86  6 11  1 28 35.0800000  0  4G 6G13G 9G11
  21082015.206    21082016.999    38908956.022 9 -47996938.974 9
                  21333178.581    -4803187.433 9
  20208793.293    20208795.733    21495024.374 8 -61348219.083 8
  21387177.545    21387179.720    39177550.756 9 -47664236.166 8
 86  6 11  1 28 41.0800000  0  4G 6G13G 9G11
  21084298.080    21084298.884    38920950.082 9 -47987592.948 8
                  21330898.076    -4815306.140 9
  20207653.651    20207653.755    21489029.020 8 -61352890.776 8
  21389488.344    21389490.169    39189691.203 8 -47654776.080 9
 86  6 11  1 28 47.0800000  0  4G 6G13G 9G11
  21086584.130    21086585.408    38932964.872 9 -47978230.784 9
  21328594.967    21328595.708    -4827405.143 9   6316047.719 8
  20206516.704    20206517.603    21483055.289 8 -61357545.645 7
  21391800.566    21391803.335    39201844.518 9 -47645305.969 8
 86  6 11  1 28 53.0800000  0  4G 6G13G 9G11
  21088874.188    21088875.479    38945000.409 9 -47968852.444 8
  21326296.381    21326298.295    -4839485.218 9   6306634.698 8
  20205383.491    20205384.821    21477103.272 8 -61362183.576 7
  21394117.073    21394117.682    39214010.727 9 -47635825.808 8
 86  6 11  1 28 59.0800000  0  4G 6G13G 9G11
  21091168.424    21091170.186    38957056.711 9 -47959457.934 8
  21324001.171    21324003.211    -4851546.289 9   6297236.476 8
  20204254.663    20204257.339    21471172.858 8 -61366804.679 7
  21396433.110    21396435.684    39226189.791 9 -47626335.629 9
 86  6 11  1 29  5.0800000  0  4G 6G13G 9G11
  21093466.666    21093467.756    38969133.703 9 -47950047.303 8
  21321709.996    21321711.669    -4863588.358 8   6287853.038 8
  20203130.801    20203132.457    21465264.130 9 -61371408.890 7
  21398753.817    21398756.014    39238381.694 9 -47616835.458 9
 86  6 11  1 29 11.0800000  0  4G 6G13G 9G11
  21095768.857    21095770.591    38981231.386 9 -47940620.527 8
  21319421.637    21319422.449    -4875611.460 9   6278484.399 8
  20202011.572    20202011.626    21459377.123 8 -61375996.163 7
  21401076.606    21401078.561    39250586.389 9 -47607325.302 8
 86  6 11  1 29 17.0800000  0  4G 6G13G 9G11
  21098074.983    21098076.003    38993349.774 9 -47931177.631 8
  21317137.692    21317139.260    -4887615.526 9   6269130.590 7
  20200894.186    20200895.694    21453511.918 8 -61380566.442 8
  21403401.629    21403403.453    39262803.898 9 -47597805.178 9
 86  6 11  1 29 23.0800000  0  4G 6G13G 9G11
  21100384.931    21100386.508    39005488.913 9 -47921718.574 8
  21314856.921    21314859.272    -4899600.640 9   6259791.539 9
  20199781.691    20199782.407    21447668.443 8 -61385119.808 8
  21405728.831    21405730.650    39275034.127 9 -47588275.126 9
 86  6 11  1 29 29.0800000  0  4G 6G13G 9G11
  21102699.714    21102700.590    39017648.699 9 -47912243.420 8
  21312580.386    21312582.221    -4911566.763 9   6250467.293 8
  20198674.803    20198674.918    21441846.711 9 -61389656.220 8
  21408057.883    21408061.109    39287277.093 9 -47578735.154 8
 86  6 11  1 29 35.0800000  0  4G 6G13G 9G11
  21105017.546    21105017.734    39029829.216 9 -47902752.107 9
  21310305.821    21310308.247    -4923513.853 9   6241157.887 9
  20197571.124    20197571.676    21436046.761 8 -61394175.662 8
  21410390.924    21410392.707    39299532.776 9 -47569185.275 8
 86  6 11  1 29 41.0800000  0  4G 6G13G 9G11
  21107339.026    21107340.202    39042030.352 9 -47893244.731 9
  21308036.297    21308037.790    -4935441.904 9   6231863.294 9
  20196471.241    20196472.168    21430268.541 9 -61398678.173 7
  21412725.268    21412727.751    39311801.183 9 -47559625.500 9
 86  6 11  1 29 47.0800000  0  4G 6G13G 9G11
  21109664.341    21109665.418    39054252.158 9 -47883721.255 8
  21305770.806    21305772.323    -4947350.949 9   6222583.527 8
  20195375.929    20195376.785    21424512.218 7 -61403163.619 7
  21415062.732    21415064.499    39324082.290 9 -47550055.791 8
 86  6 11  1 29 53.0800000  0  4G 6G13G 9G11
  21111994.450    21111995.641    39066494.644 9 -47874181.671 9
  21303507.012    21303509.385    -4959240.912 9   6213318.620 9
  20194284.897    20194286.127    21418777.736 8 -61407632.047 7
  21417401.033    21417402.486    39336376.049 9 -47540476.248 8
 86  6 11  1 29 59.0800000  0  4G 6G13G 9G11
  21114327.621    21114328.439    39078757.766 9 -47864625.999 9
  21301248.024    21301250.628    -4971111.993 9   6204068.439 8
  20193197.451    20193199.308    21413065.090 8 -61412083.466 8
  21419743.111    21419745.337    39348682.423 9 -47530886.868 8
 86  6 11  1 30  5.0800000  0  4G 6G13G 9G11
  21116665.585    21116666.589    39091041.523 9 -47855054.241 9
  21298992.633    21298995.027    -4982964.021 9   6194833.093 8
  20192115.133    20192115.069    21407374.321 9 -61416517.837 8
  21422087.429    21422089.484    39361001.473 9 -47521287.613 8
 86  6 11  1 30 11.0800000  0  4G 6G13G 9G11
  21119006.297    21119008.061    39103345.922 9 -47845466.396 8
  21296740.993    21296743.593    -4994797.101 9   6185612.511 9
  20191036.691    20191037.711    21401705.415 7 -61420935.164 7
  21424434.609    21424435.518    39373333.147 9 -47511678.525 8
 86  6 11  1 30 17.0800000  0  4G 6G13G 9G11
  21121351.860    21121352.220    39115670.986 9 -47835862.458 8
  21294493.398    21294495.638    -5006611.117 9   6176406.792 8
  20189960.662    20189961.549    21396058.415 9 -61425335.435 8
  21426784.092    21426785.846    39385677.379 9 -47502059.640 8
 86  6 11  1 30 23.0800000  0  4G 6G13G 9G11
  21123701.671    21123701.102    39128016.654 9 -47826242.460 7
  21292248.858    21292250.669    -5018406.123 9   6167215.886 8
  20188891.708    20188891.497    21390433.267 9 -61429718.666 7
  21429134.392    21429136.022    39398034.115 9 -47492431.024 9
 86  6 11  1 30 29.0800000  0  4G 6G13G 9G11
  21126053.988    21126055.423    39140382.956 9 -47816606.380 9
  21290008.300    21290007.770    -5030182.082 9   6158039.830 8
  20187826.316    20187826.246    21384830.083 8 -61434084.779 8
  21431487.896    21431490.000    39410403.407 9 -47482792.615 8
 86  6 11  1 30 35.0800000  0  4G 6G13G 9G11
  21128412.000    21128412.862    39152769.874 9 -47806954.253 8
  21287770.148    21287772.319    -5041939.063 9   6148878.532 8
  20186763.469    20186762.940    21379248.781 9 -61438433.843 7
  21433844.298    21433846.581    39422785.251 9 -47473144.429 9
 86  6 11  1 30 41.0800000  0  4G 6G13G 9G11
  21130773.304    21130774.822    39165177.357 9 -47797286.080 9
  21285536.540    21285537.885    -5053676.935 9   6139732.153 8
  20185706.152    20185706.201    21373689.523 8 -61442765.738 8
  21436203.791    21436205.122    39435179.569 9 -47463486.524 8
 86  6 11  1 30 47.0800000  0  4G 6G13G 9G11
  21133138.197    21133138.101    39177605.480 9 -47787601.844 9
  21283306.993    21283309.440    -5065395.690 8   6130600.650 8
  20184652.280    20184650.999    21368152.244 8 -61447080.497 7
  21438564.156    21438565.686    39447586.343 9 -47453818.902 9
 86  6 11  1 30 53.0800000  0  4G 6G13G 9G11
  21135506.726    21135507.960    39190054.170 9 -47777901.565 8
  21281080.489    21281081.812    -5077095.451 9   6121483.954 9
  20183601.366    20183602.668    21362636.952 9 -61451378.141 8
  21440927.976    21440929.666    39460005.543 9 -47444141.616 9
 86  6 11  1 30 59.0800000  0  4G 6G13G 9G11
  21137879.261    21137880.595    39202523.440 9 -47768185.258 9
  21278857.332    21278859.346    -5088776.159 9   6112382.111 8
  20182556.805    20182557.615    21357143.759 8 -61455658.554 8
  21443293.050    21443295.018    39472437.188 9 -47434454.619 8
 86  6 11  1 31  5.0800000  0  4G 6G13G 9G11
  21140255.918    21140257.438    39215013.284 9 -47758452.928 8
  21276638.690    21276640.941    -5100437.803 9   6103295.115 8
  20181515.708    20181516.988    21351672.489 8 -61459921.867 8
  21445661.236    21445663.153    39484881.271 9 -47424757.933 8
 86  6 11  1 31 11.0800000  0  4G 6G13G 9G11
  21142637.625    21142639.203    39227523.727 9 -47748704.532 8
  21274423.241    21274424.851    -5112080.395 9   6094222.979 9
  20180479.159    20180478.525    21346223.289 8 -61464168.007 8
  21448031.175    21448034.080    39497337.757 9 -47415051.586 8
 86  6 11  1 31 17.0800000  0  4G 6G13G 9G11
  21145021.680    21145022.713    39240054.731 9 -47738940.113 8
  21272211.122    21272213.276    -5123703.916 9   6085165.674 8
  20179446.272    20179445.593    21340796.169 8 -61468396.930 8
  21450404.819    21450405.815    39509806.571 9 -47405335.637 8
 86  6 11  1 31 23.0800000  0  4G 6G13G 9G11
  21147410.170    21147410.631    39252606.284 9 -47729159.693 9
  21270002.602    21270005.055    -5135308.354 9   6076123.270 8
  20178416.865    20178417.945    21335391.185 9 -61472608.613 7
  21452778.985    21452781.740    39522287.803 9 -47395610.000 8
 86  6 11  1 31 29.0800000  0  4G 6G13G 9G11
  21149802.867    21149803.414    39265178.346 9 -47719363.279 8
  21267799.019    21267799.791    -5146893.689 9   6067095.740 9
  20177392.107    20177392.813    21330008.164 9 -61476803.174 8
  21455156.472    21455158.469    39534781.373 9 -47385874.757 8
 86  6 11  1 31 35.0800000  0  4G 6G13G 9G11
  21152198.755    21152200.691    39277770.962 9 -47709550.863 8
  21265597.209    21265599.152    -5158460.001 9   6058083.039 9
  20176372.977    20176373.315    21324647.315 8 -61480980.453 7
  21457536.799    21457538.632    39547287.255 9 -47376129.921 9
 86  6 11  1 31 41.0800000  0  4G 6G13G 9G11
  21154598.693    21154599.798    39290384.130 9 -47699722.422 8
  21263400.273    21263402.187    -5170007.253 9   6049085.174 8
  20175357.760    20175357.115    21319308.615 8 -61485140.486 8
  21459919.000    21459920.296    39559805.400 8 -47366375.523 9
 86  6 11  1 31 47.0800000  0  4G 6G13G 9G11
  21157002.552    21157003.341    39303017.823 9 -47689878.000 9
  21261206.280    21261207.142    -5181535.341 8   6040102.270 8
  20174345.266    20174344.373    21313992.048 8 -61489283.258 7
  21462303.469    21462304.134    39572335.819 9 -47356611.557 8
 86  6 11  1 31 53.0800000  0  4G 6G13G 9G11
  21159411.718    21159411.664    39315672.037 9 -47680017.570 8
  21259016.007    21259018.980    -5193044.354 9   6031134.196 8
  20173336.551    20173336.836    21308697.692 8 -61493408.742 8
  21464690.450    21464692.604    39584878.484 9 -47346838.062 9
 86  6 11  1 31 59.0800000  0  4G 6G13G 9G11
  21161822.489    21161823.937    39328346.731 9 -47670141.193 9
  21256829.916    21256830.607    -5204534.271 9   6022181.019 8
  20172333.769    20172334.874    21303425.465 8 -61497516.962 7
  21467079.013    21467080.478    39597433.363 9 -47337055.038 8
 86  6 11  1 32  5.0800000  0  4G 6G13G 9G11
  21164238.694    21164240.445    39341041.960 9 -47660248.819 8
  21254647.210    21254648.348    -5216005.109 9   6013242.721 8
  20171336.118    20171334.197    21298175.516 8 -61501607.830 8
  21469471.058    21469471.517    39610000.509 9 -47327262.473 8
 86  6 11  1 32 11.0800000  0  4G 6G13G 9G11
  21166658.308    21166659.699    39353757.712 8 -47650340.450 8
  21252468.017    21252469.177    -5227456.891 9   6004319.248 9
  20170340.471    20170341.740    21292947.803 8 -61505681.384 8
  21471864.657    21471866.482    39622579.830 9 -47317460.389 8
 86  6 11  1 32 17.0800000  0  4G 6G13G 9G11
  21169081.627    21169083.131    39366493.967 8 -47640416.092 8
  21250291.875    21250294.336    -5238889.528 9   5995410.708 9
  20169350.331    20169350.406    21287742.284 8 -61509737.634 7
  21474260.100    21474262.905    39635171.372 9 -47307648.799 8
 86  6 11  1 32 23.0800000  0  4G 6G13G 9G11
  21171509.911    21171510.887    39379250.712 8 -47630475.784 8
  21248120.006    21248122.608    -5250303.050 9   5986517.061 9
  20168363.483    20168363.351    21282558.958 8 -61513776.583 9
  21476658.772    21476660.941    39647775.081 9 -47297827.740 8
 86  6 11  1 32 29.0800000  0  4G 6G13G 9G11
  21173940.584    21173942.104    39392027.909 9 -47620519.534 9
  21245952.380    21245953.749    -5261697.486 9   5977638.282 9
  20167382.027    20167382.523    21277397.882 9 -61517798.206 7
  21479059.619    21479060.564    39660390.977 9 -47287997.166 8
 86  6 11  1 32 35.0800000  0  4G 6G13G 9G11
  21176376.481    21176377.728    39404825.524 9 -47610547.369 9
  21243788.056    21243788.822    -5273072.801 9   5968774.406 8
  20166403.731    20166404.854    21272259.120 9 -61521802.429 8
  21481463.462    21481465.009    39673018.992 9 -47278157.171 8
 86  6 11  1 32 41.0800000  0  4G 6G13G 9G11
  21178816.011    21178817.646    39417643.693 9 -47600559.192 7
  21241626.288    21241628.402    -5284428.873 9   5959925.527 9
  20165430.015    20165430.069    21267142.776 8 -61525789.197 7
  21483867.980    21483870.441    39685659.094 9 -47268307.737 8
 86  6 11  1 32 47.0800000  0  4G 6G13G 9G11
  21181259.277    21181259.824    39430482.306 9 -47590555.079 8
  21239468.881    21239470.831    -5295765.795 9   5951091.566 8
  20164460.425    20164461.706    21262048.616 8 -61529758.678 8
  21486275.365    21486277.911    39698311.217 9 -47258448.938 9
 86  6 11  1 32 53.0800000  0  4G 6G13G 9G11
  21183705.362    21183706.868    39443341.320 9 -47580535.072 9
  21237315.375    21237317.139    -5307083.557 9   5942272.538 8
  20163495.076    20163495.820    21256976.815 8 -61533710.718 8
  21488686.557    21488686.943    39710975.386 9 -47248580.759 9
 86  6 11  1 32 59.0800000  0  4G 6G13G 9G11
  21186156.527    21186157.459    39456220.777 9 -47570499.138 9
  21235164.994    21235167.393    -5318382.169 9   5933468.422 8
  20162534.524    20162534.452    21251927.418 8 -61537645.336 8
  21491097.198    21491100.231    39723651.578 9 -47238703.206 8
 86  6 11  1 33  5.0800000  0  4G 6G13G 9G11
  21188611.568    21188612.631    39469120.703 9 -47560447.256 8
  21233018.442    21233020.640    -5329661.682 9   5924679.197 8
  20161576.517    20161578.234    21246900.376 8 -61541562.502 7
  21493512.260    21493513.627    39736339.871 9 -47228816.233 9
 86  6 11  1 33 11.0800000  0  4G 6G13G 9G11
  21191069.073    21191070.836    39482041.064 8 -47550379.452 8
  21230875.455    21230876.904    -5340922.011 9   5915904.921 8
  20160626.644    20160626.240    21241895.655 8 -61545462.280 8
  21495928.703    21495931.187    39749040.129 9 -47218919.934 9
 86  6 11  1 33 17.0800000  0  4G 6G13G 9G11
  21193532.514    21193534.106    39494981.792 9 -47540295.776 8
  21228737.401    21228738.424    -5352163.148 9   5907145.597 9
  20159677.391    20159679.312    21236913.331 8 -61549344.622 8
  21498348.502    21498350.149    39761752.349 9 -47209014.312 8
 86  6 11  1 33 23.0800000  0  4G 6G13G 9G11
  21195998.388    21195999.322    39507942.906 9 -47530196.206 8
  21226601.582    21226603.128    -5363385.186 9   5898401.156 8
  20158732.873    20158734.240    21231953.488 8 -61553209.436 7
  21500769.516    21500771.599    39774476.537 9 -47199099.367 8
 86  6 11  1 33 29.0800000  0  4G 6G13G 9G11
  21198469.400    21198470.747    39520924.472 9 -47520080.721 8
  21224469.058    21224471.358    -5374588.054 9   5889671.658 8
  20157793.771    20157796.417    21227015.999 8 -61557056.823 8
  21503193.194    21503194.954    39787212.638 9 -47189175.126 8
 86  6 11  1 33 35.0800000  0  4G 6G13G 9G11
  21200942.800    21200944.091    39533926.477 9 -47509949.274 9
  21222340.847    21222343.026    -5385771.731 9   5880957.102 9
  20156859.352    20156859.451    21222101.012 8 -61560886.674 8
  21505618.258    21505620.634    39799960.665 9 -47179241.604 8
 86  6 11  1 33 41.0800000  0  4G 6G13G 9G11
  21203422.068    21203422.559    39546948.795 9 -47499802.025 9
  21220216.619    21220219.435    -5396936.219 9   5872257.518 9
  20155928.273    20155929.032    21217208.478 9 -61564699.049 7
  21508046.922    21508048.498    39812720.580 9 -47169298.807 9
 86  6 11  1 33 47.0800000  0  4G 6G13G 9G11
  21205902.896    21205904.773    39559991.444 9 -47489638.934 8
  21218096.033    21218097.750    -5408081.553 9   5863572.839 8
  20155001.381    20155000.723    21212338.382 8 -61568493.924 7
  21510477.596    21510479.549    39825492.389 9 -47159346.758 9
 86  6 11  1 33 53.0800000  0  4G 6G13G 9G11
  21208388.746    21208390.595    39573054.527 9 -47479459.916 8
  21215977.711    21215981.237    -5419207.657 9   5854903.147 8
  20154078.209    20154079.659    21207490.912 8 -61572271.176 8
  21512909.571    21512911.368    39838276.062 9 -47149385.452 9
 86  6 11  1 33 59.0800000  0  4G 6G13G 9G11
  21210879.675    21210880.251    39586137.936 9 -47469265.049 8
  21213865.190    21213866.921    -5430314.577 9   5846248.411 9
  20153160.708    20153161.115    21202665.851 8 -61576030.960 8
  21515345.812    21515347.643    39851071.529 9 -47139414.963 8
 86  6 11  1 34  5.0800000  0  4G 6G13G 9G11
  21213372.925    21213373.828    39599241.716 8 -47459054.326 8
  21211755.092    21211757.156    -5441402.353 9   5837608.586 9
  20152246.869    20152247.545    21197863.380 8 -61579773.154 8
  21517782.738    21517783.912    39863878.822 9 -47129435.257 8
 86  6 11  1 34 11.0800000  0  4G 6G13G 9G11
  21215869.462    21215871.354    39612365.853 9 -47448827.717 9
  21209649.580    21209650.941    -5452470.897 9   5828983.753 8
  20151336.672    20151337.423    21193083.368 9 -61583497.838 8
  21520221.425    21520223.837    39876697.966 9 -47119446.308 9
 86  6 11  1 34 17.0800000  0  4G 6G13G 9G11
  21218371.453    21218372.229    39625510.358 9 -47438585.270 9
  21207547.287    21207547.871    -5463520.174 9   5820373.940 9
  20150430.925    20150432.170    21188325.927 8 -61587204.929 7
  21522663.095    21522665.370    39889528.917 9 -47109448.177 9
 86  6 11  1 34 23.0800000  0  4G 6G13G 9G11
  21220876.463    21220877.367    39638675.152 8 -47428326.984 9
  21205446.689    21205448.831    -5474550.285 9   5811779.039 9
  20149530.191    20149530.780    21183591.175 9 -61590894.362 8
  21525106.469    21525109.367    39902371.593 9 -47099440.902 8
 86  6 11  1 34 29.0800000  0  4G 6G13G 9G11
  21223386.123    21223386.627    39651860.271 9 -47418052.878 8
  21203351.775    21203354.129    -5485561.203 9   5803199.107 8
  20148633.751    20148633.582    21178878.897 8 -61594566.255 7
  21527553.318    21527554.693    39915226.008 9 -47089424.478 9
 86  6 11  1 34 35.0800000  0  4G 6G13G 9G11
  21225897.087    21225899.665    39665065.727 9 -47407762.914 9
  21201259.636    21201262.559    -5496552.955 9   5794634.119 8
  20147741.727    20147743.565    21174189.298 8 -61598220.491 8
  21530001.457    21530002.903    39928092.100 9 -47079398.950 8
 86  6 11  1 34 41.0800000  0  4G 6G13G 9G11
  21228414.588    21228417.251    39678291.498 9 -47397457.124 8
  21199172.317    21199174.489    -5507525.585 9   5786084.013 9
  20146853.454    20146853.480    21169522.246 8 -61601857.153 8
  21532451.878    21532454.310    39940969.889 9 -47069364.315 8
 86  6 11  1 34 47.0800000  0  4G 6G13G 9G11
  21230935.911    21230937.273    39691537.599 9 -47387135.504 8
  21197087.983    21197089.722    -5518478.945 9   5777548.933 9
  20145968.842    20145970.591    21164877.882 7 -61605476.146 8
  21534904.959    21534907.049    39953859.390 9 -47059320.547 8
 86  6 11  1 34 53.0800000  0  4G 6G13G 9G11
  21233460.552    21233461.701    39704803.918 9 -47376798.107 8
  21195007.813    21195009.119    -5529413.078 9   5769028.828 9
  20145088.844    20145090.518    21160256.138 8 -61609077.492 6
  21537360.625    21537362.785    39966760.575 9 -47049267.678 9
 86  6 11  1 34 59.0800000  0  4G 6G13G 9G11
  21235988.872    21235989.647    39718090.493 9 -47366444.943 8
  21192930.576    21192933.037    -5540327.949 9   5760523.741 9
  20144214.738    20144216.080    21155657.158 8 -61612661.110 7
  21539817.620    21539819.839    39979673.381 9 -47039205.754 8
 86  6 11  1 35  5.0800000  0  4G 6G13G 9G11
  21238520.840    21238521.001    39731397.367 9 -47356075.952 8
  21190857.038    21190858.691    -5551223.612 9   5752033.628 8
  20143344.378    20143344.861    21151080.759 7 -61616227.133 8
  21542276.719    21542278.873    39992597.775 9 -47029134.799 9
 86  6 11  1 35 11.0800000  0  4G 6G13G 9G11
  21241056.987    21241058.707    39744724.504 9 -47345691.181 8
  21188787.584    21188788.559    -5562100.019 9   5743558.502 8
  20142476.429    20142478.796    21146527.111 8 -61619775.441 7
  21544738.336    21544739.503    40005533.758 9 -47019054.805 8
 86  6 11  1 35 17.0800000  0  4G 6G13G 9G11
  21243596.582    21243598.159    39758071.902 9 -47335290.612 9
  21186720.697    21186723.517    -5572957.207 9   5735098.363 8
  20141615.694    20141615.233    21141996.209 8 -61623306.015 8
  21547201.779    21547204.890    40018481.352 9 -47008965.780 8
 86  6 11  1 35 23.0800000  0  4G 6G13G 9G11
  21246140.471    21246141.647    39771439.560 9 -47324874.262 8
  21184658.754    21184661.626    -5583795.265 9   5726653.120 8
  20140757.655    20140758.369    21137488.054 8 -61626818.860 8
  21549668.053    21549669.850    40031440.415 9 -46998867.813 9
 86  6 11  1 35 29.0800000  0  4G 6G13G 9G11
  21248688.065    21248689.885    39784827.430 9 -47314442.162 9
  21182600.898    21182600.969    -5594614.061 9   5718222.895 9
  20139903.099    20139905.328    21133002.592 8 -61630314.024 8
  21552135.952    21552137.584    40044411.010 9 -46988760.853 9
 86  6 11  1 35 35.0800000  0  4G 6G13G 9G11
  21251240.481    21251240.613    39798235.460 9 -47303994.354 7
  21180544.016    21180546.571    -5605413.682 9   5709807.624 9
  20139055.540    20139056.385    21128539.914 8 -61633791.437 8
  21554607.450    21554608.402    40057393.150 9 -46978644.898 8
 86  6 11  1 35 41.0800000  0  4G 6G13G 9G11
  21253795.445    21253796.806    39811663.704 9 -47293530.779 8
  21178493.637    21178494.324    -5616194.030 9   5701407.344 9
  20138210.247    20138210.028    21124099.982 8 -61637251.122 8
  21557079.763    21557081.581    40070386.801 9 -46968519.988 8
 86  6 11  1 35 47.0800000  0  4G 6G13G 9G11
  21256354.544    21256355.663    39825112.154 9 -47283051.477 9
  21176445.820    21176447.308    -5626955.092 9   5693022.110 8
  20137369.298    20137370.772    21119682.846 8 -61640693.044 7
  21559554.109    21559555.998    40083391.901 9 -46958386.142 8
 86  6 11  1 35 53.0800000  0  4G 6G13G 9G11
  21258916.933    21258918.552    39838580.839 9 -47272556.403 8
  21174401.738    21174403.425    -5637696.883 9   5684651.892 9
  20136532.550    20136534.278    21115288.527 9 -61644117.194 8
  21562030.408    21562033.084    40096408.492 9 -46948243.349 9
 86  6 11  1 35 59.0800000  0  4G 6G13G 9G11
  21261484.045    21261485.336    39852069.778 9 -47262045.537 8
  21172360.814    21172362.721    -5648419.449 9   5676296.637 9
  20135700.470    20135701.657    21110916.970 7 -61647523.597 8
  21564510.441    21564512.036    40109436.506 9 -46938091.648 9
 86  6 11  1 36  5.0800000  0  4G 6G13G 9G11
  21264054.391    21264056.154    39865578.897 8 -47251518.951 8
  21170324.554    21170325.756    -5659122.799 9   5667956.370 9
  20134873.624    20134874.997    21106568.257 8 -61650912.195 7
  21566991.755    21566993.064    40122475.906 9 -46927931.085 8
 86  6 11  1 36 11.0800000  0  4G 6G13G 9G11
  21266628.799    21266631.693    39879108.104 9 -47240976.724 8
  21168291.426    21168293.107    -5669806.973 9   5659631.043 8
  20134051.175    20134051.332    21102242.438 8 -61654282.966 8
  21569474.750    21569476.510    40135526.671 9 -46917761.649 8
 86  6 11  1 36 17.0800000  0  4G 6G13G 9G11
  21269207.473    21269209.266    39892657.482 9 -47230418.772 8
  21166261.656    21166263.935    -5680471.886 9   5651320.723 8
  20133230.393    20133232.205    21097939.409 8 -61657635.978 7
  21571961.101    21571962.483    40148588.820 9 -46907583.355 8
 86  6 11  1 36 23.0800000  0  4G 6G13G 9G11
  21271790.154    21271791.817    39906226.996 9 -47219845.138 8
  21164235.725    21164237.918    -5691117.484 9   5643025.458 8
  20132416.888    20132417.945    21093659.261 7 -61660971.158 8
  21574449.212    21574450.865    40161662.353 9 -46897396.187 9
 86  6 11  1 36 29.0800000  0  4G 6G13G 9G11
  21274376.355    21274377.372    39919816.660 9 -47209255.791 9
  21162213.610    21162215.042    -5701743.819 9   5634745.200 9
  20131606.886    20131606.964    21089402.066 8 -61664288.457 7
  21576938.189    21576940.664    40174747.169 9 -46887200.232 9
 86  6 11  1 36 35.0800000  0  4G 6G13G 9G11
  21276965.144    21276966.736    39933426.481 9 -47198650.733 9
  21160195.749    21160197.437    -5712350.873 9   5626479.973 9
  20130801.384    20130801.980    21085167.796 7 -61667587.877 7
  21579429.949    21579432.739    40187843.283 9 -46876995.475 8
 86  6 11  1 36 41.0800000  0  4G 6G13G 9G11
  21279560.145    21279560.965    39947056.497 9 -47188029.954 8
  21158180.210    21158182.650    -5722938.633 9   5618229.766 8
  20129999.154    20129999.740    21080956.505 7 -61670869.415 8
  21581924.520    21581927.016    40200950.707 9 -46866781.895 9
 86  6 11  1 36 47.0800000  0  4G 6G13G 9G11
  21282156.849    21282159.913    39960706.614 9 -47177393.509 8
  21156169.329    21156171.292    -5733507.054 9   5609994.642 8
  20129202.444    20129203.336    21076768.072 8 -61674133.131 8
  21584421.974    21584422.954    40214069.371 9 -46856559.559 8
 86  6 11  1 36 53.0800000  0  4G 6G13G 9G11
  21284758.559    21284759.579    39974376.785 9 -47166741.437 9
  21154161.362    21154164.281    -5744056.262 9   5601774.486 8
  20128410.909    20128410.791    21072602.582 9 -61677378.958 7
  21586919.922    21586921.942    40227199.288 9 -46846328.460 9
 86  6 11  1 36 59.0800000  0  4G 6G13G 9G11
  21287363.319    21287365.597    39988067.040 8 -47156073.710 9
  21152157.596    21152159.578    -5754586.197 8   5593569.339 8
  20127621.939    20127622.103    21068460.082 8 -61680606.875 7
  21589419.982    21589422.587    40240340.421 9 -46836088.617 9
 86  6 11  1 37  5.0800000  0  4G 6G13G 9G11
  21289972.801    21289973.162    40001777.439 9 -47145390.280 8
  21150157.554    21150159.756    -5765096.880 9   5585379.201 8
  20126837.502    20126839.365    21064340.646 9 -61683816.830 7
  21591923.297    21591926.080    40253492.769 9 -46825840.035 9
 86  6 11  1 37 11.0800000  0  4G 6G13G 9G11
  21292585.100    21292586.478    40015507.958 9 -47134691.187 9
  21148161.468    21148163.514    -5775588.320 9   5577204.063 9
  20126059.596    20126059.792    21060244.206 9 -61687008.854 7
  21594428.650    21594430.581    40266656.346 9 -46815582.707 9
 86  6 11  1 37 17.0800000  0  4G 6G13G 9G11
  21295202.824    21295203.371    40029258.552 9 -47123976.435 9
  21146167.839    21146169.641    -5786060.491 9   5569043.927 8
  20125282.611    20125283.158    21056170.712 8 -61690183.011 7
  21596935.027    21596937.431    40279831.125 9 -46805316.648 9
 86  6 11  1 37 23.0800000  0  4G 6G13G 9G11
  21297822.551    21297824.185    40043029.154 9 -47113246.105 9
  21144179.856    21144181.859    -5796513.299 9   5560898.886 8
  20124511.949    20124512.958    21052120.321 8 -61693339.159 8
  21599444.551    21599447.449    40293017.058 9 -46795041.894 8
 86  6 11  1 37 29.0800000  0  4G 6G13G 9G11
  21300446.728    21300449.178    40056819.815 9 -47102500.142 9
  21142194.423    21142195.661    -5806946.804 9   5552768.875 9
  20123744.276    20123746.393    21048092.981 9 -61696477.363 8
  21601955.693    21601958.069    40306214.122 9 -46784758.473 8
 86  6 11  1 37 35.0800000  0  4G 6G13G 9G11
  21303074.781    21303075.888    40070630.519 9 -47091738.563 8
  21140211.438    21140214.074    -5817361.096 8   5544653.862 9
  20122984.203    20122985.463    21044088.683 7 -61699597.580 7
  21604469.617    21604471.694    40319422.376 9 -46774466.329 8
 86  6 11  1 37 41.0800000  0  4G 6G13G 9G11
  21305706.444    21305708.093    40084461.265 8 -47080961.365 8
  21138234.454    21138236.571    -5827756.068 9   5536553.877 8
  20122228.154    20122226.528    21040107.512 8 -61702699.790 8
  21606984.515    21606986.955    40332641.733 9 -46764165.531 8
 86  6 11  1 37 47.0800000  0  4G 6G13G 9G11
  21308342.197    21308344.589    40098312.072 9 -47070168.540 9
  21136259.817    21136260.994    -5838131.719 9   5528468.964 8
  20121473.133    20121474.462    21036149.373 9 -61705784.054 7
  21609502.997    21609504.693    40345872.082 9 -46753856.178 8
 86  6 11  1 37 53.0800000  0  4G 6G13G 9G11
  21310981.655    21310984.292    40112182.909 9 -47059360.093 8
  21134288.926    21134291.199    -5848488.063 9   5520399.087 8
  20120724.799    20120725.335    21032214.439 9 -61708850.238 7
  21612022.288    21612024.406    40359113.421 9 -46743538.243 9
 86  6 11  1 37 59.0800000  0  4G 6G13G 9G11
  21313625.865    21313628.087    40126073.726 9 -47048536.094 8
  21132321.806    21132323.917    -5858825.042 9   5512344.308 8
  20119979.043    20119979.608    21028302.579 8 -61711898.437 8
  21614544.454    21614546.487    40372365.804 9 -46733211.719 8
 86  6 11  1 38  5.0800000  0  4G 6G13G 9G11
  21316273.166    21316273.370    40139984.595 8 -47037696.466 8
  21130358.831    21130361.127    -5869142.712 8   5504304.563 8
  20119240.252    20119242.201    21024413.847 8 -61714928.624 8
  21617068.238    21617070.320    40385629.249 9 -46722876.563 8
 86  6 11  1 38 11.0800000  0  4G 6G13G 9G11
  21318923.242    21318925.491    40153915.420 9 -47026841.284 9
  21128398.318    21128401.226    -5879441.065 9   5496279.876 8
  20118504.434    20118505.500    21020548.317 7 -61717940.729 7
  21619594.283    21619597.073    40398903.669 9 -46712532.863 9
 86  6 11  1 38 17.0800000  0  4G 6G13G 9G11
  21321578.140    21321579.647    40167866.209 8 -47015970.536 9
  21126443.378    21126444.755    -5889720.188 9   5488270.168 9
  20117772.895    20117773.080    21016705.886 8 -61720934.839 7
  21622122.724    21622124.169    40412189.057 9 -46702180.624 8
 86  6 11  1 38 23.0800000  0  4G 6G13G 9G11
  21324236.446    21324238.437    40181837.018 9 -47005084.197 8
  21124489.744    21124492.438    -5899979.932 8   5480275.554 8
  20117046.545    20117047.053    21012886.646 7 -61723910.854 7
  21624652.160    21624654.356    40425485.395 9 -46691819.828 8
 86  6 11  1 38 29.0800000  0  4G 6G13G 9G11
  21326899.128    21326901.121    40195827.712 9 -46994182.372 8
  21122541.598    21122544.292    -5910220.414 9   5472295.979 8
  20116324.550    20116325.880    21009090.600 8 -61726868.817 7
  21627184.843    21627186.341    40438792.645 9 -46681450.549 9
 86  6 11  1 38 35.0800000  0  4G 6G13G 9G11
  21329564.917    21329566.464    40209838.403 9 -46983264.955 8
  21120596.417    21120598.342    -5920441.664 9   5464331.360 8
  20115606.475    20115607.278    21005317.810 8 -61729808.647 7
  21629719.567    21629721.563    40452110.732 9 -46671072.822 9
 86  6 11  1 38 41.0800000  0  4G 6G13G 9G11
  21332235.670    21332237.218    40223869.036 9 -46972331.997 8
  21118655.529    21118657.847    -5930643.682 9   5456381.741 9
  20114892.585    20114893.645    21001568.202 9 -61732730.432 7
  21632255.549    21632257.231    40465439.750 9 -46660686.578 8
 86  6 11  1 38 47.0800000  0  4G 6G13G 9G11
  21334909.814    21334911.005    40237919.617 9 -46961383.489 8
  21116717.827    21116720.492    -5940826.405 9   5448447.160 9
  20114184.313    20114184.081    20997841.926 8 -61735634.014 7
  21634793.749    21634796.297    40478779.682 9 -46650291.831 8
 86  6 11  1 38 53.0800000  0  4G 6G13G 9G11
  21337586.034    21337587.797    40251990.103 9 -46950419.484 9
  21114782.938    21114786.247    -5950989.850 9   5440527.595 9
  20113479.487    20113480.490    20994138.791 9 -61738519.574 8
  21637335.313    21637336.679    40492130.517 9 -46639888.579 9
 86  6 11  1 38 59.0800000  0  4G 6G13G 9G11
  21340268.019    21340270.313    40266080.493 9 -46939439.971 8
  21112853.773    21112855.411    -5961133.937 9   5432623.113 8
  20112778.763    20112778.972    20990458.946 8 -61741386.982 7
  21639876.954    21639879.472    40505492.145 9 -46629476.925 9
 86  6 11  1 39  5.0800000  0  4G 6G13G 9G11
  21342953.597    21342955.060    40280190.759 9 -46928444.965 8
  21110927.022    21110929.337    -5971258.710 9   5424733.676 8
  20112083.597    20112083.577    20986802.433 8 -61744236.219 8
  21642421.915    21642423.911    40518864.548 9 -46619056.879 9
 86  6 11  1 39 11.0800000  0  4G 6G13G 9G11
  21345641.508    21345643.986    40294321.000 9 -46917434.390 9
  21109003.466    21109005.168    -5981364.065 9   5416859.381 8
  20111392.067    20111392.095    20983169.323 8 -61747067.218 7
  21644968.472    21644970.926    40532247.756 9 -46608628.406 8
 86  6 11  1 39 17.0800000  0  4G 6G13G 9G11
  21348334.568    21348335.459    40308471.076 9 -46906408.367 9
  21107084.070    21107086.012    -5991450.126 9   5409000.110 8
  20110705.719    20110704.477    20979559.314 8 -61749880.207 8
  21647517.340    21647519.036    40545641.716 9 -46598191.560 8
 86  6 11  1 39 23.0800000  0  4G 6G13G 9G11
  21351030.864    21351033.171    40322641.048 9 -46895366.826 8
  21105167.883    21105170.494    -6001516.797 9   5401155.961 9
  20110020.869    20110022.250    20975972.716 9 -61752674.957 7
  21650068.669    21650069.828    40559046.453 9 -46587746.313 9
 86  6 11  1 39 29.0800000  0  4G 6G13G 9G11
  21353731.481    21353733.258    40336830.870 9 -46884309.830 8
  21103256.468    21103259.162    -6011564.157 9   5393326.842 9
  20109343.162    20109345.813    20972409.421 8 -61755451.551 7
  21652621.493    21652623.439    40572461.882 9 -46577292.731 9
 86  6 11  1 39 35.0800000  0  4G 6G13G 9G11
  21356435.503    21356436.666    40351040.674 9 -46873237.256 8
  21101347.925    21101351.105    -6021592.210 9   5385512.781 8
  20108670.333    20108671.586    20968869.510 9 -61758209.927 8
  21655176.120    21655177.630    40585888.039 9 -46566830.799 9
 86  6 11  1 39 41.0800000  0  4G 6G13G 9G11
  21359142.859    21359144.564    40365270.272 8 -46862149.269 9
  21099443.301    21099445.865    -6031600.879 9   5377713.824 8
  20108001.581    20108003.484    20965352.936 8 -61760950.117 7
  21657733.444    21657734.790    40599324.850 9 -46556360.560 9
 86  6 11  1 39 47.0800000  0  4G 6G13G 9G11
  21361854.966    21361855.956    40379519.586 9 -46851045.909 9
  21097542.929    21097544.374    -6041590.196 8   5369929.941 8
  20107336.203    20107336.533    20961859.821 8 -61763672.025 8
  21660292.442    21660294.075    40612772.390 9 -46545881.955 9
 86  6 11  1 39 53.0800000  0  4G 6G13G 9G11
  21364569.792    21364571.526    40393788.709 8 -46839927.117 9
  21095645.400    21095647.482    -6051560.136 9   5362161.155 9
  20106675.984    20106676.645    20958390.103 8 -61766375.692 7
  21662853.137    21662855.435    40626230.564 9 -46535395.074 9
 86  6 11  1 39 59.0800000  0  4G 6G13G 9G11
  21367288.867    21367290.301    40408077.736 9 -46828792.820 9
  21093752.088    21093754.265    -6061510.749 9   5354407.433 9
  20106020.076    20106021.424    20954943.762 8 -61769061.156 7
  21665415.634    21665417.566    40639699.368 9 -46524899.905 9
 86  6 11  1 40  5.0800000  0  4G 6G13G 9G11
  21370012.365    21370013.398    40422386.596 9 -46817643.071 9
  21091862.437    21091864.376    -6071442.015 9   5346668.799 8
  20105368.782    20105369.326    20951520.858 8 -61771728.344 8
  21667981.237    21667982.605    40653178.788 9 -46514396.464 9
 86  6 11  1 40 11.0800000  0  4G 6G13G 9G11
  21372738.165    21372739.899    40436715.165 9 -46806477.956 8
  21089976.121    21089978.692    -6081353.925 8   5338945.229 9
  20104722.589    20104723.148    20948121.429 9 -61774377.258 8
  21670548.042    21670549.987    40666668.779 9 -46503884.795 8
 86  6 11  1 40 17.0800000  0  4G 6G13G 9G11
  21375468.473    21375470.523    40451063.537 8 -46795297.409 9
  21088093.013    21088096.537    -6091246.491 9   5331236.740 8
  20104078.747    20104080.443    20944745.395 8 -61777007.941 7
  21673118.049    21673118.630    40680169.341 9 -46493364.876 8
 86  6 11  1 40 23.0800000  0  4G 6G13G 9G11
  21378203.460    21378204.522    40465431.714 9 -46784101.440 9
  21086214.287    21086216.565    -6101119.703 9   5323543.329 9
  20103440.643    20103442.406    20941392.864 8 -61779620.296 6
  21675688.510    21675689.871    40693680.447 9 -46482836.737 8
 86  6 11  1 40 29.0800000  0  4G 6G13G 9G11
  21380941.796    21380943.817    40479819.649 9 -46772890.077 9
  21084339.102    21084341.725    -6110973.558 9   5315865.005 9
  20102807.464    20102807.859    20938063.836 8 -61782214.340 7
  21678261.483    21678263.343    40707202.075 9 -46472300.404 8
 86  6 11  1 40 35.0800000  0  4G 6G13G 9G11
  21383682.823    21383684.198    40494227.393 9 -46761663.262 8
  21082468.032    21082470.569    -6120808.040 9   5308201.780 8
  20102178.465    20102179.102    20934758.269 8 -61784790.110 8
  21680836.621    21680839.305    40720734.256 9 -46461755.860 9
 86  6 11  1 40 41.0800000  0  4G 6G13G 9G11
  21386428.470    21386429.445    40508654.867 9 -46750421.072 8
  21080599.782    21080603.033    -6130623.161 8   5300553.635 9
  20101554.082    20101554.255    20931476.278 7 -61787347.503 8
  21683413.192    21683416.012    40734276.911 9 -46451203.141 8
 86  6 11  1 40 47.0800000  0  4G 6G13G 9G11
  21389177.108    21389178.727    40523102.080 9 -46739163.523 8
  21078735.616    21078738.224    -6140418.917 9   5292920.567 9
  20100935.789    20100934.724    20928217.813 8 -61789886.561 7
  21685993.432    21685994.334    40747830.001 9 -46440642.291 9
 86  6 11  1 40 53.0800000  0  4G 6G13G 9G11
  21391930.898    21391931.731    40537568.983 9 -46727890.609 8
  21076875.399    21076878.301    -6150195.316 9   5285302.602 8
  20100318.444    20100318.691    20924982.824 7 -61792407.339 7
  21688573.573    21688575.726    40761393.528 9 -46430073.320 9
 86  6 11  1 40 59.0800000  0  4G 6G13G 9G11
  21394686.991    21394688.310    40552055.640 9 -46716602.309 8
  21075018.216    21075021.597    -6159952.376 9   5277699.701 9
  20099707.380    20099708.061    20921771.418 9 -61794909.721 8
  21691157.448    21691157.727    40774967.538 9 -46419496.175 9
 86  6 11  1 41  5.0800000  0  4G 6G13G 9G11
  21397447.548    21397448.697    40566562.040 9 -46705298.629 8
  21073166.950    21073168.846    -6169690.098 9   5270111.872 9
  20099101.115    20099102.831    20918583.600 8 -61797393.748 8
  21693741.917    21693744.264    40788552.023 9 -46408910.860 9
 86  6 11  1 41 11.0800000  0  4G 6G13G 9G11
  21400211.498    21400212.946    40581088.085 9 -46693979.640 9
  21071317.425    21071318.653    -6179408.468 9   5262539.117 9
  20098499.131    20098499.999    20915419.335 8 -61799859.400 8
  21696328.260    21696331.059    40802146.915 9 -46398317.446 8
 86  6 11  1 41 17.0800000  0  4G 6G13G 9G11
  21402979.769    21402981.860    40595633.810 9 -46682645.319 9
  21069469.729    21069473.389    -6189107.536 9   5254981.405 8
  20097900.735    20097901.912    20912278.705 8 -61802306.647 7
  21698917.896    21698920.163    40815752.132 9 -46387715.978 8
 86  6 11  1 41 23.0800000  0  4G 6G13G 9G11
  21405751.917    21405753.322    40610199.162 9 -46671295.706 8
  21067629.221    21067631.581    -6198787.244 9   5247438.784 8
  20097308.277    20097310.251    20909161.664 8 -61804735.505 7
  21701508.116    21701510.849    40829367.730 9 -46377106.427 9
 86  6 11  1 41 29.0800000  0  4G 6G13G 9G11
  21408527.484    21408528.161    40624784.205 9 -46659930.735 9
  21065790.739    21065792.596    -6208447.673 9   5239911.177 9
  20096718.611    20096720.783    20906068.196 8 -61807146.014 7
  21704102.866    21704102.925    40842993.658 9 -46366488.821 9
 86  6 11  1 41 35.0800000  0  4G 6G13G 9G11
  21411306.844    21411307.777    40639388.878 8 -46648550.482 8
  21063956.626    21063959.030    -6218088.724 8   5232398.685 8
  20096134.307    20096137.110    20902998.338 8 -61809538.109 7
  21706697.008    21706698.205    40856629.891 8 -46355863.186 9
 86  6 11  1 41 41.0800000  0  4G 6G13G 9G11
  21414089.368    21414091.087    40654013.183 9 -46637154.917 9
  21062124.778    21062126.770    -6227710.330 9   5224901.315 9
  20095555.428    20095555.395    20899952.191 8 -61811911.714 7
  21709293.369    21709295.094    40870276.439 9 -46345229.522 9
 86  6 11  1 41 47.0800000  0  4G 6G13G 9G11
  21416876.254    21416877.974    40668657.187 8 -46625744.022 9
  21060298.045    21060300.001    -6237312.597 9   5217419.037 9
  20094980.448    20094983.427    20896929.750 8 -61814266.873 8
  21711892.204    21711894.151    40883933.261 9 -46334587.850 9
 86  6 11  1 41 53.0800000  0  4G 6G13G 9G11
  21419665.674    21419667.579    40683320.847 9 -46614317.803 8
  21058474.502    21058476.502    -6246895.534 8   5209951.820 9
  20094410.054    20094410.276    20893930.963 8 -61816603.590 8
  21714492.763    21714494.866    40897600.324 9 -46323938.186 8
 86  6 11  1 41 59.0800000  0  4G 6G13G 9G11
  21422459.471    21422461.392    40698004.063 9 -46602876.338 8
  21056654.774    21056656.709    -6256459.052 9   5202499.734 9
  20093844.308    20093844.302    20890955.832 9 -61818921.881 8
  21717096.007    21717097.681    40911277.675 9 -46313280.517 9
 86  6 11  1 42  5.0800000  0  4G 6G13G 9G11
  21425259.093    21425258.752    40712706.860 9 -46591419.623 9
  21054838.991    21054840.497    -6266003.113 9   5195062.799 9
  20093282.182    20093282.315    20888004.425 8 -61821221.660 7
  21719699.971    21719702.611    40924965.250 9 -46302614.886 8
 86  6 11  1 42 11.0800000  0  4G 6G13G 9G11
  21428059.059    21428060.636    40727429.187 8 -46579947.679 9
  21053026.556    21053027.765    -6275527.773 9   5187640.994 9
  20092725.007    20092725.798    20885076.685 8 -61823503.028 8
  21722306.433    21722308.659    40938663.011 9 -46291941.303 8
 86  6 11  1 42 17.0800000  0  4G 6G13G 9G11
  21430864.934    21430866.383    40742171.032 9 -46568460.545 8
  21051217.047    21051219.111    -6285033.092 9   5180234.251 9
  20092172.658    20092173.706    20882172.659 8 -61825765.900 7
  21724915.450    21724917.253    40952370.894 9 -46281259.839 9
 86  6 11  1 42 23.0800000  0  4G 6G13G 9G11
  21433674.987    21433674.904    40756932.541 9 -46556958.067 9
  21049412.158    21049414.060    -6294519.083 9   5172842.576 9
  20091624.907    20091627.152    20879292.413 7 -61828010.246 7
  21727525.662    21727527.858    40966088.945 9 -46270570.453 8
 86  6 11  1 42 29.0800000  0  4G 6G13G 9G11
  21436486.986    21436487.920    40771713.598 9 -46545440.364 9
  21047610.426    21047612.884    -6303985.748 9   5165465.955 7
  20091080.881    20091082.201    20876435.859 7 -61830236.124 7
  21730138.262    21730140.416    40979817.113 9 -46259873.186 8
 86  6 11  1 42 35.0800000  0  4G 6G13G 9G11
  21439303.465    21439305.600    40786514.241 9 -46533907.409 8
  21045812.869    21045815.091    -6313433.007 9   5158104.458 9
  20090542.066    20090544.022    20873603.081 8 -61832443.496 7
  21732752.358    21732753.674    40993555.365 9 -46249168.055 8
 86  6 11  1 42 41.0800000  0  4G 6G13G 9G11
  21442123.792    21442124.653    40801334.444 9 -46522359.201 8
  21044018.626    21044020.739    -6322860.951 9   5150758.017 9
  20090007.022    20090008.691    20870794.112 8 -61834632.299 7
  21735369.295    21735368.853    41007303.726 9 -46238455.053 8
 86  6 11  1 42 47.0800000  0  4G 6G13G 9G11
  21444947.268    21444948.744    40816174.073 8 -46510795.865 9
  21042228.160    21042230.544    -6332269.539 9   5143426.643 9
  20089477.635    20089477.337    20868008.891 7 -61836802.587 7
  21737987.382    21737988.528    41021062.163 9 -46227734.191 8
 86  6 11  1 42 53.0800000  0  4G 6G13G 9G11
  21447775.050    21447776.212    40831033.170 9 -46499217.349 8
  21040441.542    21040443.674    -6341658.834 9   5136110.317 9
  20088951.490    20088952.000    20865247.477 7 -61838954.344 7
  21740607.096    21740608.678    41034830.661 9 -46217005.503 8
 86  6 11  1 42 59.0800000  0  4G 6G13G 9G11
  21450605.736    21450607.284    40845911.853 9 -46487623.565 8
  21038659.046    21038660.344    -6351028.697 9   5128809.125 9
  20088430.314    20088431.522    20862509.948 8 -61841087.490 8
  21743228.017    21743232.088    41048609.165 9 -46206269.012 9
 86  6 11  1 43  5.0800000  0  4G 6G13G 9G11
  21453441.174    21453443.280    40860810.026 9 -46476014.613 8
  21036879.651    21036881.250    -6360379.067 9   5121523.126 8
  20087913.869    20087914.585    20859796.224 7 -61843202.094 8
  21745852.495    21745854.942    41062397.709 9 -46195524.697 9
 86  6 11  1 43 11.0800000  0  4G 6G13G 9G11
  21456280.018    21456280.965    40875727.660 9 -46464390.497 9
  21035103.479    21035105.641    -6369710.041 8   5114252.245 9
  20087402.756    20087403.668    20857106.343 7 -61845298.099 7
  21748478.282    21748480.593    41076196.249 9 -46184772.588 9
 86  6 11  1 43 17.0800000  0  4G 6G13G 9G11
  21459121.738    21459123.142    40890664.757 9 -46452751.211 8
  21033331.775    21033334.312    -6379021.638 9   5106996.456 9
  20086894.582    20086895.527    20854440.392 8 -61847375.471 8
  21751106.472    21751108.105    41090004.820 8 -46174012.672 9
 86  6 11  1 43 23.0800000  0  4G 6G13G 9G11
  21461968.952    21461968.868    40905621.320 9 -46441096.741 9
  21031563.531    21031564.998    -6388313.849 9   5099755.775 9
  20086393.685    20086394.363    20851798.264 7 -61849434.261 8
  21753735.930    21753737.475    41103823.341 9 -46163244.985 9
 86  6 11  1 43 29.0800000  0  4G 6G13G 9G11
  21464818.399    21464819.862    40920597.334 9 -46429427.132 9
  21029798.410    21029800.567    -6397586.731 8   5092530.152 9
  20085893.979    20085894.387    20849179.994 9 -61851474.477 8
  21756367.770    21756369.601    41117651.767 9 -46152469.600 9
 86  6 11  1 43 35.0800000  0  4G 6G13G 9G11
  21467671.479    21467673.057    40935592.747 9 -46417742.398 9
  21028038.468    21028040.079    -6406840.231 9   5085319.635 9
  20085400.244    20085400.874    20846585.637 8 -61853496.056 8
  21759000.281    21759002.714    41131490.092 9 -46141686.492 9
 86  6 11  1 43 41.0800000  0  4G 6G13G 9G11
  21470528.924    21470529.973    40950607.583 8 -46406042.541 9
  21026281.035    21026282.463    -6416074.339 9   5078124.232 9
  20084911.817    20084911.470    20844014.987 7 -61855499.158 8
  21761635.713    21761638.223    41145338.320 9 -46130895.661 9
 86  6 11  1 43 47.0800000  0  4G 6G13G 9G11
  21473389.876    21473391.410    40965641.812 8 -46394327.573 9
  21024525.967    21024529.390    -6425289.072 9   5070943.932 9
  20084426.854    20084427.415    20841468.425 7 -61857483.497 8
  21764273.454    21764274.492    41159196.444 9 -46120097.146 8
 86  6 11  1 43 53.0800000  0  4G 6G13G 9G11
  21476254.776    21476255.881    40980695.426 9 -46382597.483 8
  21022777.147    21022779.247    -6434484.384 9   5063778.755 9
  20083947.220    20083947.088    20838945.785 7 -61859449.187 7
  21766912.106    21766914.174    41173064.368 8 -46109290.960 8
 86  6 11  1 43 59.0800000  0  4G 6G13G 9G11
  21479123.569    21479124.960    40995768.421 9 -46370852.302 8
  21021030.788    21021033.392    -6443660.352 9   5056628.645 8
  20083471.379    20083471.492    20836447.048 8 -61861396.254 8
  21769552.866    21769555.443    41186942.150 8 -46098477.118 8
 86  6 11  1 44  5.0800000  0  4G 6G13G 9G11
  21481995.237    21481996.701    41010860.833 9 -46359091.984 8
  21019289.495    21019291.464    -6452816.976 9   5049493.623 9
  20082999.898    20083000.470    20833972.358 8 -61863324.595 7
  21772195.910    21772197.321    41200829.759 9 -46087655.599 9
 86  6 11  1 44 11.0800000  0  4G 6G13G 9G11
  21484870.484    21484872.075    41025972.568 9 -46347316.607 9
  21017549.540    21017552.241    -6461954.260 9   5042373.672 9
  20082534.552    20082535.063    20831521.604 8 -61865234.263 6
  21774840.499    21774843.347    41214727.096 9 -46076826.513 8
 86  6 11  1 44 17.0800000  0  4G 6G13G 9G11
  21487750.781    21487751.342    41041103.646 9 -46335526.165 8
  21015815.395    21015817.448    -6471072.059 8   5035268.882 8
  20082072.161    20082073.048    20829094.769 7 -61867125.311 8
  21777486.655    21777489.545    41228634.249 9 -46065989.777 9
 86  6 11  1 44 23.0800000  0  4G 6G13G 9G11
  21490633.554    21490634.099    41056254.110 9 -46323720.617 8
  21014083.863    21014085.814    -6480170.533 9   5028179.173 8
  20081615.096    20081615.235    20826692.002 9 -61868997.594 8
  21780135.651    21780137.849    41242551.216 9 -46055145.387 8
 86  6 11  1 44 29.0800000  0  4G 6G13G 9G11
  21493520.433    21493521.810    41071423.926 9 -46311899.990 9
  21012356.970    21012357.829    -6489249.628 9   5021104.566 8
  20081162.217    20081162.565    20824313.214 8 -61870851.204 8
  21782785.864    21782787.460    41256477.936 9 -46044293.407 9
 86  6 11  1 44 35.0800000  0  4G 6G13G 9G11
  21496411.346    21496411.693    41086613.033 9 -46300064.330 8
  21010632.318    21010634.937    -6498309.363 8   5014045.025 8
  20080714.480    20080715.889    20821958.425 8 -61872686.096 8
  21785436.555    21785440.119    41270414.387 9 -46033433.843 9
 86  6 11  1 44 41.0800000  0  4G 6G13G 9G11
  21499304.380    21499305.670    41101821.406 9 -46288213.668 8
  21008911.510    21008914.217    -6507349.709 8   5007000.613 8
  20080270.458    20080270.969    20819627.632 8 -61874502.304 7
  21788090.946    21788092.665    41284360.473 9 -46022566.758 8
 86  6 11  1 44 47.0800000  0  4G 6G13G 9G11
  21502201.705    21502203.339    41117049.056 9 -46276347.965 7
  21007195.189    21007197.297    -6516370.668 9   4999971.285 8
  20079831.881    20079832.793    20817320.932 8 -61876299.741 7
  21790746.940    21790748.157    41298316.230 9 -46011692.153 9
 86  6 11  1 44 53.0800000  0  4G 6G13G 9G11
  21505103.738    21505105.186    41132296.066 9 -46264467.200 8
  21005482.054    21005483.792    -6525372.225 9   4992957.091 8
  20079397.388    20079397.331    20815038.228 8 -61878078.463 7
  21793403.886    21793406.231    41312281.679 9 -46000809.983 8
 86  6 11  1 44 59.0800000  0  4G 6G13G 9G11
  21508008.489    21508009.809    41147562.326 9 -46252571.407 8
  21003772.759    21003775.282    -6534354.462 9   4985957.948 9
  20078967.666    20078969.065    20812779.662 8 -61879838.384 7
  21796064.665    21796066.569    41326256.810 9 -45989920.280 9
 86  6 11  1 45  5.0800000  0  4G 6G13G 9G11
  21510917.620    21510918.753    41162847.813 9 -46240660.639 8
  21002067.616    21002069.894    -6543317.293 9   4978973.928 8
  20078542.361    20078542.829    20810545.137 8 -61881579.578 7
  21798724.815    21798726.568    41340241.523 9 -45979023.104 8
 86  6 11  1 45 11.0800000  0  4G 6G13G 9G11
  21513829.898    21513831.103    41178152.609 8 -46228734.832 9
  21000364.798    21000368.455    -6552260.693 8   4972005.054 8
  20078121.453    20078123.062    20808334.718 7 -61883301.976 8
  21801388.265    21801389.560    41354235.843 9 -45968118.446 8
 86  6 11  1 45 17.0800000  0  4G 6G13G 9G11
  21516745.380    21516747.603    41193476.628 9 -46216794.040 8
  20998666.803    20998670.324    -6561184.663 9   4965051.317 8
  20077705.130    20077705.959    20806148.486 8 -61885005.534 8
  21804053.522    21804054.254    41368239.772 9 -45957206.294 9
 86  6 11  1 45 23.0800000  0  4G 6G13G 9G11
  21519665.272    21519666.992    41208819.866 8 -46204838.287 8
  20996973.200    20996975.678    -6570089.227 8   4958112.688 9
  20077294.294    20077295.709    20803986.253 7 -61886690.406 7
  21806719.984    21806721.673    41382253.251 8 -45946286.703 8
 86  6 11  1 45 29.0800000  0  4G 6G13G 9G11
  21522588.997    21522590.760    41224182.324 9 -46192867.540 9
  20995282.572    20995283.885    -6578974.449 9   4951189.138 8
  20076887.609    20076887.556    20801848.235 7 -61888356.370 8
  21809388.019    21809389.599    41396276.269 9 -45935359.684 9
 86  6 11  1 45 35.0800000  0  4G 6G13G 9G11
  21525516.458    21525515.988    41239563.963 9 -46180881.852 8
  20993594.494    20993596.463    -6587840.316 8   4944280.690 8
  20076485.545    20076486.472    20799734.380 7 -61890003.546 7
  21812058.314    21812060.361    41410308.779 9 -45924425.266 8
 86  6 11  1 45 41.0800000  0  4G 6G13G 9G11
  21528446.336    21528447.855    41254964.787 9 -46168881.219 9
  20991911.486    20991913.962    -6596686.827 9   4937387.302 8
  20076085.836    20076086.667    20797644.677 8 -61891631.884 8
  21814730.168    21814732.215    41424350.725 8 -45913483.492 9
 86  6 11  1 45 47.0800000  0  4G 6G13G 9G11
  21531380.722    21531382.156    41270384.762 8 -46156865.656 8
  20990231.444    20990233.809    -6605513.879 8   4930509.078 9
  20075694.218    20075696.676    20795579.065 8 -61893241.450 8
  21817404.077    21817405.273    41438402.164 9 -45902534.326 8
 86  6 11  1 45 53.0800000  0  4G 6G13G 9G11
  21534318.828    21534320.175    41285823.919 9 -46144835.153 8
  20988555.057    20988557.272    -6614321.533 9   4923645.977 9
  20075304.079    20075306.918    20793537.651 7 -61894832.158 8
  21820081.092    21820081.686    41452463.062 9 -45891577.791 9
 86  6 11  1 45 59.0800000  0  4G 6G13G 9G11
  21537260.183    21537261.660    41301282.262 9 -46132789.697 8
  20986883.936    20986885.525    -6623109.722 9   4916798.030 8
  20074921.328    20074922.828    20791520.375 8 -61896404.058 7
  21822757.068    21822760.631    41466533.405 9 -45880613.885 9
 86  6 11  1 46  5.0800000  0  4G 6G13G 9G11
  21540205.286    21540206.863    41316759.715 9 -46120729.352 8
  20985215.396    20985216.322    -6631878.593 8   4909965.159 9
  20074542.628    20074544.474    20789527.376 8 -61897957.052 8
  21825437.422    21825438.883    41480613.201 9 -45869642.628 9
 86  6 11  1 46 11.0800000  0  4G 6G13G 9G11
  21543154.740    21543155.988    41332256.292 8 -46108654.101 8
  20983549.537    20983550.928    -6640628.096 9   4903147.373 9
  20074167.738    20074170.306    20787558.608 7 -61899491.152 8
  21828117.928    21828119.773    41494702.421 9 -45858664.012 8
 86  6 11  1 46 17.0800000  0  4G 6G13G 9G11
  21546106.497    21546108.432    41347771.997 9 -46096563.941 8
  20981888.208    20981889.938    -6649358.212 9   4896344.679 9
  20073797.580    20073798.257    20785613.988 7 -61901006.442 8
  21830800.830    21830803.219    41508800.993 9 -45847678.120 9
 86  6 11  1 46 23.0800000  0  4G 6G13G 9G11
  21549063.491    21549065.913    41363306.797 9 -46084458.905 7
  20980230.255    20980232.194    -6658068.918 9   4889557.124 8
  20073432.396    20073433.665    20783693.573 7 -61902502.863 8
  21833484.969    21833487.244    41522908.914 9 -45836684.939 9
 86  6 11  1 46 29.0800000  0  4G 6G13G 9G11
  21552023.348    21552024.051    41378860.697 9 -46072338.995 9
  20978576.653    20978579.402    -6666760.211 9   4882784.691 8
  20073071.249    20073072.715    20781797.511 7 -61903980.316 8
  21836171.814    21836173.244    41537026.213 9 -45825684.447 8
 86  6 11  1 46 35.0800000  0  4G 6G13G 9G11
  21554987.238    21554988.545    41394433.682 9 -46060204.214 8
  20976926.248    20976928.852    -6675432.112 9   4876027.371 9
  20072715.250    20072716.085    20779925.658 9 -61905438.897 8
  21838860.180    21838862.385    41551152.841 9 -45814676.691 8
 86  6 11  1 46 41.0800000  0  4G 6G13G 9G11
  21557953.921    21557955.755    41410025.743 9 -46048054.566 9
  20975279.847    20975282.028    -6684084.714 9   4869285.092 9
  20072363.953    20072365.759    20778078.102 7 -61906878.564 8
  21841549.793    21841551.325    41565288.776 9 -45803661.684 9
 86  6 11  1 46 47.0800000  0  4G 6G13G 9G11
  21560924.666    21560926.515    41425636.834 9 -46035890.074 8
  20973636.929    20973639.069    -6692717.920 9   4862557.917 8
  20072016.783    20072018.189    20776254.788 7 -61908299.322 8
  21844241.810    21844244.660    41579433.985 9 -45792639.457 8
 86  6 11  1 46 53.0800000  0  4G 6G13G 9G11
  21563899.576    21563899.708    41441266.968 9 -46023710.756 8
  20971998.175    20971999.822    -6701331.809 9   4855845.788 9
  20071674.517    20071675.218    20774455.846 7 -61909701.106 8
  21846935.080    21846937.628    41593588.465 9 -45781609.986 9
 86  6 11  1 46 59.0800000  0  4G 6G13G 9G11
  21566877.032    21566878.280    41456916.144 9 -46011516.607 8
  20970362.656    20970365.054    -6709926.318 9   4849148.782 8
  20071335.794    20071337.701    20772681.191 8 -61911083.941 8
  21849630.381    21849633.357    41607752.235 9 -45770573.295 9
 86  6 11  1 47  5.0800000  0  4G 6G13G 9G11
  21569857.581    21569859.543    41472584.371 9 -45999307.607 8
  20968730.415    20968733.501    -6718501.455 9   4842466.858 9
  20071003.541    20071005.333    20770930.863 8 -61912447.821 7
  21852327.706    21852329.373    41621925.234 9 -45759529.394 8
 86  6 11  1 47 11.0800000  0  4G 6G13G 9G11
  21572843.751    21572844.097    41488271.593 9 -45987083.793 9
  20967103.459    20967105.415    -6727057.215 8   4835800.041 8
  20070674.987    20070676.604    20769204.878 7 -61913792.759 8
  21855025.769    21855029.510    41636107.470 9 -45748478.313 9
 86  6 11  1 47 17.0800000  0  4G 6G13G 9G11
  21575832.597    21575833.631    41503977.822 9 -45974845.179 9
  20965477.820    20965480.306    -6735593.600 9   4829148.302 8
  20070349.232    20070352.654    20767503.135 8 -61915118.786 8
  21857726.951    21857729.084    41650298.879 9 -45737420.085 9
 86  6 11  1 47 23.0800000  0  4G 6G13G 9G11
  21578824.520    21578826.225    41519703.004 9 -45962591.807 9
  20963857.315    20963859.872    -6744110.676 9   4822511.624 9
  20070031.700    20070033.388    20765825.821 8 -61916425.791 7
  21860429.342    21860431.181    41664499.414 9 -45726354.724 9
 86  6 11  1 47 29.0800000  0  4G 6G13G 9G11
  21581820.680    21581821.827    41535447.147 9 -45950323.646 9
  20962241.076    20962242.054    -6752608.395 9   4815890.035 8
  20069718.202    20069720.274    20764172.823 8 -61917713.843 7
  21863133.957    21863136.348    41678709.070 9 -45715282.264 8
 86  6 11  1 47 35.0800000  0  4G 6G13G 9G11
  21584820.058    21584820.604    41551210.260 9 -45938040.710 9
  20960626.882    20960628.885    -6761086.676 9   4809283.589 9
  20069406.904    20069408.334    20762544.271 7 -61918982.845 8
  21865838.632    21865841.206    41692927.892 9 -45704202.668 9
 86  6 11  1 47 41.0800000  0  4G 6G13G 9G11
  21587823.557    21587824.046    41566992.383 9 -45925742.961 9
  20959017.181    20959019.559    -6769545.526 9   4802692.278 9
  20069101.694    20069103.358    20760940.089 8 -61920232.843 8
  21868547.053    21868548.306    41707155.827 9 -45693115.973 9
 86  6 11  1 47 47.0800000  0  4G 6G13G 9G11
  21590831.791    21590831.781    41582793.451 8 -45913430.456 9
  20957412.117    20957413.885    -6777985.040 9   4796116.039 8
  20068801.090    20068803.115    20759360.382 8 -61921463.785 8
  21871255.183    21871258.474    41721392.862 9 -45682022.185 8
 86  6 11  1 47 53.0800000  0  4G 6G13G 9G11
  21593841.187    21593842.034    41598613.380 9 -45901103.240 8
  20955810.114    20955811.129    -6786405.250 9   4789554.845 8
  20068505.130    20068507.440    20757805.005 9 -61922675.774 8
  21873966.338    21873968.708    41735638.921 8 -45670921.358 9
 86  6 11  1 47 59.0800000  0  4G 6G13G 9G11
  21596854.402    21596856.238    41614452.147 9 -45888761.346 8
  20954211.094    20954212.425    -6794806.090 9   4783008.723 8
  20068214.202    20068216.348    20756273.990 8 -61923868.769 8
  21876680.212    21876681.744    41749894.019 9 -45659813.500 9
 86  6 11  1 48  5.0800000  0  4G 6G13G 9G11
  21599872.082    21599873.560    41630309.857 9 -45876404.701 7
  20952615.203    20952617.619    -6803187.569 9   4776477.716 8
  20067927.782    20067928.883    20754767.440 8 -61925042.702 7
  21879393.363    21879396.240    41764158.186 9 -45648698.568 9
 86  6 11  1 48 11.0800000  0  4G 6G13G 9G11
  21602894.026    21602894.143    41646186.456 9 -45864033.328 9
  20951024.351    20951026.986    -6811549.671 8   4769961.786 9
  20067646.267    20067646.578    20753285.311 7 -61926197.605 7
  21882109.054    21882112.195    41778431.414 9 -45637576.570 9
 86  6 11  1 48 17.0800000  0  4G 6G13G 9G11
  21605919.103    21605919.307    41662081.961 9 -45851647.229 9
  20949436.216    20949439.290    -6819892.352 9   4763461.004 8
  20067367.721    20067368.357    20751827.651 8 -61927333.451 7
  21884827.050    21884829.741    41792713.642 9 -45626447.569 8
 86  6 11  1 48 23.0800000  0  4G 6G13G 9G11
  21608947.186    21608948.047    41677996.266 9 -45839246.479 8
  20947853.005    20947855.039    -6828215.656 8   4756975.309 8
  20067095.605    20067097.275    20750394.434 8 -61928450.237 7
  21887546.963    21887549.661    41807004.769 9 -45615311.633 9
 86  6 11  1 48 29.0800000  0  4G 6G13G 9G11
  21611979.332    21611981.338    41693929.417 9 -45826831.033 8
  20946272.944    20946274.060    -6836519.588 9   4750504.727 8
  20066827.759    20066828.770    20748985.680 7 -61929547.974 8
  21890268.135    21890270.375    41821304.854 9 -45604168.714 9
 86  6 11  1 48 35.0800000  0  4G 6G13G 9G11
  21615014.155    21615014.972    41709881.469 9 -45814400.864 9
  20944696.614    20944697.977    -6844804.151 9   4744049.219 8
  20066564.752    20066566.194    20747601.437 7 -61930626.607 8
  21892991.409    21892993.385    41835613.897 9 -45593018.815 9
 86  6 11  1 48 41.0800000  0  4G 6G13G 9G11
  21618053.398    21618055.248    41725852.320 9 -45801956.049 8
  20943123.590    20943124.398    -6853069.349 8   4737608.809 8
  20066306.628    20066307.744    20746241.724 7 -61931686.118 8
  21895715.422    21895717.828    41849931.904 9 -45581861.926 8
 86  6 11  1 48 47.0800000  0  4G 6G13G 9G11
  21621096.361    21621097.810    41741842.006 9 -45789496.563 8
  20941554.468    20941555.385    -6861315.244 8   4731183.445 9
  20066052.525    20066053.140    20744906.493 7 -61932726.546 8
  21898441.753    21898444.264    41864258.817 9 -45570698.105 8
 86  6 11  1 48 53.0800000  0  4G 6G13G 9G11
  21624143.089    21624144.237    41757850.503 9 -45777022.416 8
  20939988.685    20939991.063    -6869541.778 9   4724773.160 7
  20065801.996    20065803.162    20743595.771 7 -61933747.902 8
  21901170.708    21901172.849    41878594.628 8 -45559527.344 9
 86  6 11  1 48 59.0800000  0  4G 6G13G 9G11
  21627193.064    21627193.698    41773877.747 9 -45764533.664 7
  20938427.467    20938429.695    -6877748.964 9   4718377.958 8
  20065556.440    20065559.219    20742309.592 7 -61934750.120 7
  21903899.436    21903901.818    41892939.253 9 -45548349.723 9
 86  6 11  1 49  5.0800000  0  4G 6G13G 9G11
  21630246.418    21630246.965    41789923.712 9 -45752030.319 7
  20936868.716    20936871.027    -6885936.799 9   4711997.827 8
  20065317.641    20065319.029    20741047.929 8 -61935733.231 7
  21906631.297    21906632.778    41907292.699 9 -45537165.220 9
 86  6 11  1 49 11.0800000  0  4G 6G13G 9G11
  21633303.605    21633304.753    41805988.434 9 -45739512.356 9
  20935314.473    20935317.513    -6894105.342 9   4705632.722 8
  20065082.054    20065082.674    20739810.763 8 -61936697.260 7
  21909363.715    21909366.735    41921654.942 9 -45525973.864 8
 86  6 11  1 49 17.0800000  0  4G 6G13G 9G11
  21636364.985    21636364.916    41822071.907 9 -45726979.788 8
  20933763.803    20933765.982    -6902254.470 8   4699282.761 9
  20064850.835    20064852.606    20738598.297 8 -61937642.030 8
  21912099.304    21912101.371    41936026.022 8 -45514775.621 9
 86  6 11  1 49 23.0800000  0  4G 6G13G 9G11
  21639428.253    21639429.114    41838174.168 9 -45714432.583 9
  20932216.990    20932218.725    -6910384.227 9   4692947.887 8
  20064625.234    20064626.502    20737410.302 7 -61938567.757 8
  21914835.228    21914837.654    41950405.887 9 -45503570.544 9
 86  6 11  1 49 29.0800000  0  4G 6G13G 9G11
  21642496.231    21642497.377    41854295.086 9 -45701870.834 8
  20930673.179    20930675.664    -6918494.575 9   4686628.138 8
  20064404.021    20064404.270    20736246.911 8 -61939474.289 7
  21917573.436    21917575.911    41964794.547 8 -45492358.599 9
 86  6 11  1 49 35.0800000  0  4G 6G13G 9G11
  21645567.183    21645566.785    41870434.713 9 -45689294.509 8
  20929134.114    20929134.701    -6926585.615 9   4680323.440 9
  20064186.279    20064187.639    20735108.189 8 -61940361.606 7
  21920312.838    21920315.593    41979191.913 9 -45481139.875 9
 86  6 11  1 49 41.0800000  0  4G 6G13G 9G11
  21648641.641    21648642.545    41886593.049 9 -45676703.606 8
  20927597.406    20927600.543    -6934657.272 9   4674033.836 8
  20063974.177    20063977.180    20733993.924 8 -61941229.848 8
  21923053.441    21923056.089    41993597.955 9 -45469914.391 9
 86  6 11  1 49 47.0800000  0  4G 6G13G 9G11
  21651719.792    21651720.997    41902770.064 9 -45664098.151 9
  20926064.835    20926068.051    -6942709.537 9   4667759.346 8
  20063767.624    20063768.094    20732904.345 7 -61942078.883 9
  21925797.622    21925800.306    42008012.704 9 -45458682.125 9
 86  6 11  1 49 53.0800000  0  4G 6G13G 9G11
  21654802.378    21654802.854    41918965.724 8 -45651478.154 8
  20924536.935    20924539.279    -6950742.530 9   4661499.876 8
  20063564.406    20063564.900    20731839.372 8 -61942908.728 8
  21928541.417    21928544.859    42022436.188 9 -45447443.044 9
 86  6 11  1 49 59.0800000  0  4G 6G13G 9G11
  21657886.653    21657889.032    41935180.047 9 -45638843.629 9
  20923012.666    20923013.951    -6958756.100 9   4655255.548 9
  20063365.887    20063368.172    20730799.068 8 -61943719.359 8
  21931288.380    21931291.050    42036868.320 9 -45436197.240 9
 86  6 11  1 50  5.0800000  0  4G 6G13G 9G11
  21660976.909    21660977.728    41951413.012 9 -45626194.568 8
  20921490.490    20921492.629    -6966750.300 9   4649026.300 8
  20063173.817    20063174.611    20729783.344 8 -61944510.842 7
  21934035.774    21934038.265    42051309.057 9 -45424944.718 9
 86  6 11  1 50 11.0800000  0  4G 6G13G 9G11
  21664069.382    21664071.261    41967664.557 8 -45613531.027 8
  20919973.443    20919974.760    -6974725.209 9   4642812.091 9
  20062984.904    20062986.366    20728792.333 7 -61945283.059 8
  21936786.030    21936788.884    42065758.416 9 -45413685.477 9
 86  6 11  1 50 17.0800000  0  4G 6G13G 9G11
  21667164.618    21667166.854    41983934.757 9 -45600852.975 8
  20918459.169    20918461.287    -6982680.760 9   4636612.963 8
  20062800.909    20062802.648    20727825.970 8 -61946036.056 9
  21939538.238    21939540.020    42080216.366 9 -45402419.544 9
 86  6 11  1 50 23.0800000  0  4G 6G13G 9G11
  21670264.275    21670266.596    42000223.506 9 -45588160.443 8
  20916948.386    20916950.476    -6990617.007 9   4630428.877 7
  20062621.636    20062622.945    20726884.273 7 -61946769.845 8
  21942290.747    21942292.558    42094682.958 9 -45391146.880 9
 86  6 11  1 50 29.0800000  0  4G 6G13G 9G11
  21673367.596    21673368.857    42016530.817 8 -45575453.460 8
  20915442.681    20915444.083    -6998533.945 9   4624259.835 9
  20062447.832    20062449.529    20725967.267 7 -61947484.393 7
  21945044.981    21945046.820    42109158.102 9 -45379867.555 9
 86  6 11  1 50 35.0800000  0  4G 6G13G 9G11
  21676474.908    21676476.126    42032856.713 8 -45562731.988 8
  20913939.074    20913941.532    -7006431.546 9   4618105.868 8
  20062276.412    20062278.369    20725074.978 8 -61948179.692 8
  21947801.274    21947803.185    42123641.792 9 -45368581.569 9
 86  6 11  1 50 41.0800000  0  4G 6G13G 9G11
  21679585.082    21679586.430    42049201.158 9 -45549996.063 8
  20912440.851    20912442.905    -7014309.778 9   4611966.987 9
  20062111.040    20062113.744    20724207.304 7 -61948855.796 7
  21950559.220    21950561.197    42138134.034 9 -45357288.909 9
 86  6 11  1 50 47.0800000  0  4G 6G13G 9G11
  21682698.804    21682699.854    42065564.148 9 -45537245.688 9
  20910944.590    20910947.401    -7022168.736 9   4605843.125 9
  20061953.560    20061954.683    20723364.400 8 -61949512.614 8
  21953317.589    21953320.100    42152634.745 8 -45345989.660 9
 86  6 11  1 50 53.0800000  0  4G 6G13G 9G11
  21685815.790    21685817.396    42081945.676 9 -45524480.876 8
  20909453.435    20909454.841    -7030008.380 9   4599734.310 8
  20061794.935    20061798.123    20722546.211 7 -61950150.155 7
  21956079.321    21956081.610    42167143.900 9 -45334683.833 9
 86  6 11  1 50 59.0800000  0  4G 6G13G 9G11
  21688936.725    21688938.173    42098345.731 9 -45511701.626 8
  20907964.545    20907966.870    -7037828.711 9   4593640.546 9
  20061644.713    20061646.688    20721752.709 8 -61950768.468 8
  21958840.988    21958844.193    42181661.569 9 -45323371.360 9
 86  6 11  1 51  5.0800000  0  4G 6G13G 9G11
  21692060.108    21692062.357    42114764.336 9 -45498907.907 8
  20906480.542    20906481.939    -7045629.662 9   4587561.895 9
  20061499.111    20061500.180    20720983.972 8 -61951367.477 8
  21961605.680    21961608.415    42196187.748 9 -45312052.265 9
 86  6 11  1 51 11.0800000  0  4G 6G13G 9G11
  21695189.355    21695190.404    42131201.393 9 -45486099.818 7
  20904999.770    20905001.792    -7053411.281 8   4581498.305 8
  20061357.035    20061358.473    20720240.025 7 -61951947.184 8
  21964371.933    21964375.096    42210722.362 9 -45300726.607 9
 86  6 11  1 51 17.0800000  0  4G 6G13G 9G11
  21698321.179    21698322.084    42147656.956 9 -45473277.317 8
  20903523.008    20903523.323    -7061173.575 8   4575449.759 9
  20061222.227    20061221.999    20719520.818 8 -61952507.607 7
  21967139.867    21967141.478    42225265.410 9 -45289394.358 9
 86  6 11  1 51 23.0800000  0  4G 6G13G 9G11
  21701454.578    21701456.055    42164130.997 9 -45460440.403 8
  20902047.616    20902052.147    -7068916.488 8   4569416.325 9
  20061088.544    20061089.807    20718826.408 7 -61953048.709 7
  21969908.052    21969909.740    42239816.871 9 -45278055.564 9
 86  6 11  1 51 29.0800000  0  4G 6G13G 9G11
  21704593.657    21704594.377    42180623.435 9 -45447589.155 8
  20900579.135    20900580.994    -7076640.034 8   4563397.987 8
  20060961.109    20060962.036    20718156.754 7 -61953570.499 8
  21972679.499    21972682.497    42254376.703 9 -45266710.244 9
 86  6 11  1 51 35.0800000  0  4G 6G13G 9G11
  21707735.884    21707736.703    42197134.389 9 -45434723.480 9
  20899113.372    20899114.901    -7084344.219 9   4557394.727 9
  20060837.442    20060838.715    20717511.935 8 -61954072.963 7
  21975451.506    21975453.223    42268944.935 8 -45255358.383 9
 86  6 11  1 51 41.0800000  0  4G 6G13G 9G11
  21710880.758    21710882.034    42213663.762 9 -45421843.459 8
  20897651.141    20897652.829    -7092029.048 9   4551406.551 9
  20060719.316    20060721.930    20716891.937 7 -61954556.074 8
  21978225.155    21978227.317    42283521.481 9 -45244000.037 8
 86  6 11  1 51 47.0800000  0  4G 6G13G 9G11
  21714029.540    21714031.316    42230211.515 9 -45408949.112 9
  20896192.368    20896193.156    -7099694.639 9   4545433.360 9
  20060607.067    20060607.793    20716296.707 7 -61955019.888 8
  21981001.382    21981003.106    42298106.279 9 -45232635.265 9
 86  6 11  1 51 53.0800000  0  4G 6G13G 9G11
  21717182.655    21717183.860    42246777.676 9 -45396040.411 8
  20894737.675    20894738.915    -7107340.904 9   4539475.240 8
  20060497.519    20060499.368    20715726.314 7 -61955464.356 8
  21983777.408    21983779.941    42312699.393 9 -45221263.999 8
 86  6 11  1 51 59.0800000  0  4G 6G13G 9G11
  21720337.317    21720338.750    42263362.223 9 -45383117.405 8
  20893286.482    20893287.380    -7114967.835 9   4533532.192 8
  20060394.493    20060395.576    20715180.766 8 -61955889.456 7
  21986556.633    21986558.301    42327300.833 9 -45209886.272 9
 86  6 11  1 52  5.0800000  0  4G 6G13G 9G11
  21723497.643    21723499.679    42279965.148 9 -45370180.068 8
  20891838.714    20891841.000    -7122575.478 9   4527604.156 8
  20060295.448    20060296.070    20714660.061 8 -61956295.196 8
  21989336.237    21989338.397    42341910.583 9 -45198502.052 8
 86  6 11  1 52 11.0800000  0  4G 6G13G 9G11
  21726660.548    21726662.784    42296586.408 9 -45357228.438 8
  20890394.620    20890396.112    -7130163.783 9   4521691.194 9
  20060201.157    20060202.234    20714164.170 8 -61956681.610 7
  21992118.423    21992120.039    42356528.571 9 -45187111.418 8
 86  6 11  1 52 17.0800000  0  4G 6G13G 9G11
  21729826.986    21729828.920    42313226.035 9 -45344262.496 9
  20888954.650    20888956.281    -7137732.701 9   4515793.338 8
  20060112.066    20060113.485    20713693.172 8 -61957048.622 7
  21994901.553    21994903.041    42371154.811 9 -45175714.354 9
 86  6 11  1 52 23.0800000  0  4G 6G13G 9G11
  21732996.773    21732998.864    42329883.987 9 -45331282.291 9
  20887517.055    20887519.051    -7145282.364 9   4509910.483 9
  20060026.510    20060027.258    20713247.110 8 -61957396.189 7
  21997686.801    21997688.577    42385789.233 9 -45164310.923 9
 86  6 11  1 52 29.0800000  0  4G 6G13G 9G11
  21736169.964    21736172.471    42346560.250 9 -45318287.805 8
  20886082.855    20886085.474    -7152812.769 9   4504042.638 9
  20059946.793    20059947.207    20712825.895 8 -61957724.420 7
  22000472.486    22000474.090    42400431.825 9 -45152901.104 8
 86  6 11  1 52 35.0800000  0  4G 6G13G 9G11
  21739347.492    21739348.625    42363254.874 9 -45305279.023 8
  20884654.741    20884656.476    -7160323.869 9   4498189.840 9
  20059871.122    20059871.401    20712429.594 7 -61958033.217 8
  22003260.818    22003263.001    42415082.591 9 -45141484.936 9
 86  6 11  1 52 41.0800000  0  4G 6G13G 9G11
  21742527.667    21742529.273    42379967.683 9 -45292256.057 8
  20883229.720    20883230.979    -7167815.730 8   4492352.034 8
  20059800.280    20059802.321    20712058.176 8 -61958322.653 7
  22006050.302    22006052.642    42429741.505 9 -45130062.410 9
 86  6 11  1 52 47.0800000  0  4G 6G13G 9G11
  21745711.004    21745713.297    42396698.827 9 -45279218.814 8
  20881807.061    20881809.479    -7175288.206 9   4486529.314 8
  20059735.144    20059736.207    20711711.649 8 -61958592.666 8
  22008841.468    22008843.743    42444408.548 9 -45118633.554 9
 86  6 11  1 52 53.0800000  0  4G 6G13G 9G11
  21748897.848    21748900.555    42413448.227 9 -45266167.329 8
  20880388.777    20880390.866    -7182741.374 9   4480721.656 8
  20059673.469    20059674.760    20711390.024 8 -61958843.284 8
  22011633.942    22011636.089    42459083.666 9 -45107198.401 9
 86  6 11  1 52 59.0800000  0  4G 6G13G 9G11
  21752089.999    21752090.818    42430215.878 9 -45253101.647 8
  20878974.562    20878976.477    -7190175.294 8   4474928.993 8
  20059617.205    20059617.202    20711093.344 7 -61959074.473 7
  22014428.134    22014430.159    42473766.845 9 -45095756.961 9
 86  6 11  1 53  5.0800000  0  4G 6G13G 9G11
  21755283.109    21755285.517    42447001.723 9 -45240021.767 8
  20877564.034    20877564.560    -7197589.929 9   4469151.366 8
  20059565.805    20059566.679    20710821.592 8 -61959286.223 8
  22017222.641    22017225.417    42488458.156 9 -45084309.203 8
 86  6 11  1 53 11.0800000  0  4G 6G13G 9G11
  21758481.227    21758483.277    42463805.817 9 -45226927.680 9
  20876155.844    20876158.131    -7204985.200 9   4463388.812 9
  20059518.929    20059518.297    20710574.696 8 -61959478.610 7
  22020020.524    22020022.520    42503157.547 9 -45072855.144 9
 86  6 11  1 53 17.0800000  0  4G 6G13G 9G11
  21761682.738    21761684.930    42480628.035 9 -45213819.464 9
  20874752.554    20874754.124    -7212361.312 9   4457641.202 8
  20059476.551    20059477.657    20710352.805 7 -61959651.522 8
  22022819.595    22022822.049    42517864.921 9 -45061394.850 8
 86  6 11  1 53 23.0800000  0  4G 6G13G 9G11
  21764887.681    21764889.759    42497468.507 8 -45200697.028 8
  20873353.024    20873354.441    -7219718.073 9   4451908.666 8
  20059438.718    20059440.406    20710155.837 7 -61959804.991 7
  22025619.489    22025622.157    42532580.317 9 -45049928.308 8
 86  6 11  1 53 29.0800000  0  4G 6G13G 9G11
  21768095.430    21768096.135    42514327.116 9 -45187560.463 9
  20871956.107    20871957.692    -7227055.632 9   4446191.086 9
  20059405.678    20059406.342    20709983.831 8 -61959939.018 8
  22028421.429    22028423.146    42547303.698 8 -45038455.546 9
 86  6 11  1 53 35.0800000  0  4G 6G13G 9G11
  21771307.057    21771308.319    42531203.946 9 -45174409.697 8
  20870563.379    20870564.858    -7234373.857 9   4440488.578 9
  20059377.792    20059379.380    20709836.872 8 -61960053.536 7
  22031225.559    22031226.023    42562035.129 9 -45026976.523 9
 86  6 11  1 53 41.0800000  0  4G 6G13G 9G11
  21774522.661    21774523.910    42548098.913 8 -45161244.794 8
  20869174.361    20869176.930    -7241672.786 9   4434801.101 9
  20059355.628    20059354.934    20709714.944 7 -61960148.546 7
  22034029.501    22034031.062    42576774.531 9 -45015491.276 7
 86  6 11  1 53 47.0800000  0  4G 6G13G 9G11
  21777740.126    21777741.503    42565012.008 9 -45148065.760 8
  20867789.535    20867790.583    -7248952.465 9   4429128.625 8
  20059336.317    20059337.631    20709617.975 7 -61960224.113 7
  22036836.414    22036837.051    42591521.826 9 -45003999.890 8
 86  6 11  1 53 53.0800000  0  4G 6G13G 9G11
  21780962.671    21780964.335    42581943.336 9 -45134872.526 9
  20866407.600    20866409.624    -7256212.818 9   4423471.218 8
  20059322.660    20059324.074    20709546.079 7 -61960280.140 8
  22039643.083    22039644.960    42606277.139 9 -44992502.245 9
 86  6 11  1 53 59.0800000  0  4G 6G13G 9G11
  21784187.863    21784188.222    42598892.616 9 -45121665.303 8
  20865029.717    20865032.263    -7263453.934 9   4417828.783 9
  20059314.013    20059314.219    20709499.110 8 -61960316.737 8
  22042452.565    22042454.089    42621040.232 9 -44980998.538 8
 86  6 11  1 54  5.0800000  0  4G 6G13G 9G11
  21787416.502    21787418.323    42615860.002 9 -45108443.966 8
  20863655.033    20863656.667    -7270675.732 9   4412201.410 9
  20059311.007    20059309.812    20709477.067 8 -61960333.902 7
  22045264.106    22045265.853    42635811.256 9 -44969488.653 9
 86  6 11  1 54 11.0800000  0  4G 6G13G 9G11
  21790648.635    21790650.255    42632845.472 8 -45095208.545 8
  20862284.269    20862286.201    -7277878.271 9   4406589.059 9
  20059309.547    20059310.888    20709480.126 8 -61960331.523 8
  22048076.613    22048077.429    42650590.156 9 -44957972.645 8
 86  6 11  1 54 17.0800000  0  4G 6G13G 9G11
  21793884.285    21793886.878    42649848.975 9 -45081959.067 9
  20860918.850    20860920.199    -7285061.710 9   4400991.566 8
  20059316.201    20059316.230    20709508.184 8 -61960309.666 8
  22050890.001    22050892.391    42665376.834 9 -44946450.561 8
 86  6 11  1 54 23.0800000  0  4G 6G13G 9G11
  21797122.785    21797124.964    42666870.522 9 -45068695.525 8
  20859554.321    20859556.761    -7292225.882 9   4395409.091 9
  20059325.005    20059326.968    20709561.341 9 -61960268.242 7
  22053706.292    22053707.360    42680171.426 9 -44934922.306 8
 86  6 11  1 54 29.0800000  0  4G 6G13G 9G11
  21800366.492    21800368.485    42683910.181 9 -45055417.881 9
  20858195.163    20858196.909    -7299370.716 9   4389841.696 9
  20059340.212    20059341.862    20709639.576 8 -61960207.279 7
  22056521.634    22056524.167    42694973.842 9 -44923387.970 9
 86  6 11  1 54 35.0800000  0  4G 6G13G 9G11
  21803611.931    21803614.440    42700967.839 9 -45042126.192 8
  20856839.424    20856841.315    -7306496.358 9   4384289.243 9
  20059359.986    20059359.937    20709742.849 8 -61960126.809 8
  22059341.060    22059343.364    42709783.997 9 -44911847.596 9
 86  6 11  1 54 41.0800000  0  4G 6G13G 9G11
  21806861.735    21806863.141    42718043.430 9 -45028820.546 8
  20855486.855    20855488.967    -7313602.765 9   4378751.788 8
  20059385.227    20059385.782    20709871.222 7 -61960026.787 7
  22062160.493    22062162.018    42724601.962 9 -44900301.130 8
 86  6 11  1 54 47.0800000  0  4G 6G13G 9G11
  21810114.400    21810115.104    42735137.058 9 -45015500.846 8
  20854137.924    20854139.770    -7320689.901 9   4373229.355 8
  20059413.054    20059414.605    20710024.670 7 -61959907.218 7
  22064981.392    22064983.526    42739427.676 9 -44888748.630 9
 86  6 11  1 54 53.0800000  0  4G 6G13G 9G11
  21813369.713    21813371.390    42752248.690 9 -45002167.113 9
  20852793.402    20852795.542    -7327757.802 9   4367721.901 8
  20059447.673    20059449.218    20710203.239 7 -61959768.072 7
  22067803.853    22067806.864    42754261.111 9 -44877190.112 9
 86  6 11  1 54 59.0800000  0  4G 6G13G 9G11
  21816630.277    21816631.052    42769378.245 9 -44988819.418 8
  20851451.645    20851453.275    -7334806.467 9   4362229.435 9
  20059485.632    20059486.211    20710406.893 8 -61959609.390 6
  22070629.338    22070630.677    42769102.215 9 -44865625.618 9
 86  6 11  1 55  5.0800000  0  4G 6G13G 9G11
  21819893.589    21819894.979    42786525.760 9 -44975457.722 8
  20850113.366    20850115.915    -7341835.915 9   4356751.950 9
  20059529.810    20059530.865    20710635.598 8 -61959431.166 8
  22073453.829    22073456.012    42783951.006 9 -44854055.142 9
 86  6 11  1 55 11.0800000  0  4G 6G13G 9G11
  21823159.975    21823160.794    42803691.215 9 -44962082.054 9
  20848780.096    20848782.669    -7348846.103 9   4351289.463 9
  20059577.632    20059579.370    20710889.477 7 -61959233.354 7
  22076281.104    22076282.843    42798807.503 9 -44842478.655 8
 86  6 11  1 55 17.0800000  0  4G 6G13G 9G11
  21826429.926    21826431.246    42820874.567 9 -44948692.434 8
  20847449.395    20847451.669    -7355837.086 9   4345841.940 9
  20059632.438    20059631.041    20711168.458 9 -61959015.950 8
  22079109.916    22079112.542    42813671.642 9 -44830896.208 8
 86  6 11  1 55 23.0800000  0  4G 6G13G 9G11
  21829702.767    21829704.904    42838075.826 9 -44935288.854 8
  20846123.852    20846124.574    -7362808.874 9   4340409.385 8
  20059688.407    20059690.986    20711472.608 8 -61958778.961 7
  22081939.803    22081941.763    42828543.464 9 -44819307.782 9
 86  6 11  1 55 29.0800000  0  4G 6G13G 9G11
  21832979.945    21832981.193    42855294.961 8 -44921871.357 8
  20844800.743    20844802.226    -7369761.340 9   4334991.881 9
  20059751.993    20059752.347    20711801.822 8 -61958522.432 8
  22084770.698    22084772.966    42843422.914 9 -44807713.413 9
 86  6 11  1 55 35.0800000  0  4G 6G13G 9G11
  21836260.084    21836260.831    42872532.017 9 -44908439.891 9
  20843479.888    20843482.454    -7376694.596 9   4329589.344 8
  20059819.052    20059819.722    20712156.247 7 -61958246.253 7
  22087603.767    22087606.279    42858309.983 9 -44796113.106 9
 86  6 11  1 55 41.0800000  0  4G 6G13G 9G11
  21839543.228    21839544.332    42889786.915 9 -44894994.523 8
  20842164.855    20842167.375    -7383608.551 9   4324201.850 8
  20059890.545    20059892.244    20712535.799 7 -61957950.491 9
  22090438.132    22090440.322    42873204.600 9 -44784506.918 9
 86  6 11  1 55 47.0800000  0  4G 6G13G 9G11
  21842830.549    21842832.441    42907059.648 9 -44881535.257 8
  20840852.949    20840855.336    -7390503.382 9   4318829.267 8
  20059968.504    20059968.708    20712940.439 7 -61957635.199 7
  22093274.278    22093275.445    42888106.727 9 -44772894.879 8
 86  6 11  1 55 53.0800000  0  4G 6G13G 9G11
  21846121.121    21846122.554    42924350.177 9 -44868062.127 8
  20839544.907    20839545.740    -7397378.965 9   4313471.656 9
  20060050.493    20060052.005    20713370.361 7 -61957300.192 9
  22096111.061    22096113.236    42903016.407 9 -44761276.945 8
 86  6 11  1 55 59.0800000  0  4G 6G13G 9G11
  21849414.194    21849415.270    42941658.548 9 -44854575.100 8
  20838239.047    20838241.092    -7404235.318 9   4308129.052 9
  20060136.816    20060137.613    20713825.435 7 -61956945.591 8
  22098949.434    22098950.757    42917933.685 9 -44749653.105 8
 86  6 11  1 56  5.0800000  0  4G 6G13G 9G11
  21852711.017    21852712.395    42958984.654 9 -44841074.242 9
  20836939.128    20836940.780    -7411072.517 9   4302801.368 9
  20060229.156    20060229.936    20714305.640 8 -61956571.416 8
  22101790.615    22101792.855    42932858.419 9 -44738023.447 8
 86  6 11  1 56 11.0800000  0  4G 6G13G 9G11
  21856012.220    21856012.896    42976328.581 9 -44827559.498 8
  20835642.010    20835643.116    -7417890.504 9   4297488.651 8
  20060326.252    20060325.215    20714811.116 8 -61956177.528 8
  22104631.849    22104633.959    42947790.638 9 -44726387.954 9
 86  6 11  1 56 17.0800000  0  4G 6G13G 9G11
  21859314.681    21859316.488    42993690.238 9 -44814030.946 9
  20834347.833    20834349.321    -7424689.230 9   4292190.939 9
  20060424.910    20060427.238    20715341.738 7 -61955764.059 8
  22107474.577    22107476.538    42962730.271 9 -44714746.680 9
 86  6 11  1 56 23.0800000  0  4G 6G13G 9G11
  21862622.695    21862624.630    43011069.628 9 -44800488.576 9
  20833058.029    20833059.114    -7431468.801 9   4286908.164 9
  20060531.114    20060532.335    20715897.541 7 -61955330.972 7
  22110318.042    22110321.463    42977677.429 9 -44703099.559 9
 86  6 11  1 56 29.0800000  0  4G 6G13G 9G11
  21865932.940    21865934.174    43028466.749 9 -44786932.392 9
  20831770.575    20831773.109    -7438229.196 9   4281640.318 8
  20060640.795    20060643.790    20716478.610 8 -61954878.202 8
  22113164.649    22113167.074    42992632.064 9 -44691446.598 9
 86  6 11  1 56 35.0800000  0  4G 6G13G 9G11
  21869247.507    21869248.726    43045881.613 8 -44773362.365 9
  20830488.894    20830490.256    -7444970.414 9   4276387.431 9
  20060757.747    20060758.277    20717084.894 8 -61954405.770 8
  22116010.698    22116013.380    43007594.070 9 -44679787.893 9
 86  6 11  1 56 41.0800000  0  4G 6G13G 9G11
  21872564.134    21872566.227    43063314.194 9 -44759778.545 9
  20829208.965    20829210.943    -7451692.460 9   4271149.478 9
  20060877.232    20060879.315    20717716.406 8 -61953913.679 9
  22118859.899    22118863.414    43022563.480 9 -44668123.428 8
 86  6 11  1 56 47.0800000  0  4G 6G13G 9G11
  21875885.227    21875885.501    43080764.492 9 -44746180.918 9
  20827934.094    20827936.004    -7458395.222 9   4265926.541 8
  20061002.939    20061004.316    20718373.184 8 -61953401.902 8
  22121710.778    22121711.723    43037540.246 9 -44656453.229 9
 86  6 11  1 56 53.0800000  0  4G 6G13G 9G11
  21879209.451    21879211.041    43098232.509 8 -44732569.487 8
  20826662.465    20826662.669    -7465078.843 9   4260718.532 8
  20061131.664    20061134.498    20719055.165 8 -61952870.490 8
  22124562.313    22124562.772    43052524.402 9 -44644777.270 8
 86  6 11  1 56 59.0800000  0  4G 6G13G 9G11
  21882536.052    21882537.958    43115718.125 9 -44718944.341 9
  20825392.953    20825394.062    -7471743.279 9   4255525.472 8
  20061266.765    20061268.217    20719762.397 8 -61952319.409 8
  22127414.450    22127416.655    43067515.867 9 -44633095.605 9
 86  6 11  1 57  5.0800000  0  4G 6G13G 9G11
  21885867.217    21885869.110    43133221.345 9 -44705305.472 9
  20824129.580    20824130.818    -7478388.577 9   4250347.317 9
  20061406.336    20061408.064    20720494.863 7 -61951748.655 8
  22130268.656    22130270.702    43082514.664 9 -44621408.233 8
 86  6 11  1 57 11.0800000  0  4G 6G13G 9G11
  21889200.988    21889203.094    43150742.275 8 -44691652.806 8
  20822868.883    20822870.132    -7485014.721 9   4245184.096 9
  20061549.498    20061552.125    20721252.697 8 -61951158.144 7
  22133124.326    22133126.372    43097520.750 9 -44609715.185 8
 86  6 11  1 57 17.0800000  0  4G 6G13G 9G11
  21892538.707    21892540.255    43168280.837 9 -44677986.399 8
  20821611.792    20821613.999    -7491621.627 9   4240035.853 9
  20061699.792    20061700.221    20722035.695 8 -61950548.013 8
  22135980.869    22135983.139    43112534.153 8 -44598016.437 9
 86  6 11  1 57 23.0800000  0  4G 6G13G 9G11
  21895880.117    21895881.308    43185836.979 9 -44664306.304 9
  20820356.883    20820358.056    -7498209.452 9   4234902.487 8
  20061853.061    20061853.162    20722844.025 7 -61949918.135 9
  22138840.062    22138842.244    43127554.854 9 -44586312.000 9
 86  6 11  1 57 29.0800000  0  4G 6G13G 9G11
  21899223.861    21899226.253    43203410.730 9 -44650612.476 9
  20819106.276    20819109.596    -7504778.126 9   4229784.041 9
  20062010.656    20062012.423    20723677.661 7 -61949268.560 8
  22141699.525    22141701.470    43142582.793 9 -44574601.916 9
 86  6 11  1 57 35.0800000  0  4G 6G13G 9G11
  21902572.426    21902572.888    43221002.029 9 -44636904.994 8
  20817860.723    20817862.819    -7511327.677 9   4224680.487 8
  20062176.406    20062177.103    20724536.673 8 -61948599.211 7
  22144560.597    22144563.137    43157617.928 9 -44562886.233 9
 86  6 11  1 57 41.0800000  0  4G 6G13G 9G11
  21905922.752    21905924.357    43238610.893 9 -44623183.801 8
  20816618.301    20816620.133    -7517858.102 9   4219591.852 9
  20062344.363    20062345.465    20725420.920 7 -61947910.184 8
  22147422.664    22147424.776    43172660.286 9 -44551164.922 8
 86  6 11  1 57 47.0800000  0  4G 6G13G 9G11
  21909276.911    21909277.975    43256237.264 9 -44609448.963 8
  20815379.562    20815380.843    -7524369.303 9   4214518.192 9
  20062515.952    20062517.916    20726330.473 9 -61947201.446 8
  22150286.242    22150289.212    43187709.830 9 -44539438.005 9
 86  6 11  1 57 53.0800000  0  4G 6G13G 9G11
  21912634.249    21912635.253    43273881.200 9 -44595700.466 8
  20814144.098    20814145.076    -7530861.442 9   4209459.390 9
  20062694.937    20062695.771    20727265.402 7 -61946472.932 8
  22153152.100    22153154.075    43202766.593 9 -44527705.471 9
 86  6 11  1 57 59.0800000  0  4G 6G13G 9G11
  21915993.962    21915997.713    43291542.590 9 -44581938.347 8
  20812912.452    20812913.322    -7537334.463 9   4204415.482 9
  20062876.967    20062878.876    20728225.577 8 -61945724.722 8
  22156018.568    22156020.571    43217830.452 9 -44515967.406 8
 86  6 11  1 58  5.0800000  0  4G 6G13G 9G11
  21919359.812    21919361.461    43309221.491 9 -44568162.593 8
  20811684.059    20811685.185    -7543788.341 9   4199386.484 8
  20063063.935    20063065.346    20729211.124 8 -61944956.773 8
  22158887.167    22158888.884    43232901.417 9 -44504223.804 8
 86  6 11  1 58 11.0800000  0  4G 6G13G 9G11
  21922726.522    21922728.357    43326917.873 9 -44554373.200 8
  20810460.114    20810460.955    -7550223.108 8   4194372.388 9
  20063257.678    20063258.084    20730221.933 7 -61944169.139 7
  22161755.574    22161757.506    43247979.470 9 -44492474.678 8
 86  6 11  1 58 17.0800000  0  4G 6G13G 9G11
  21926096.923    21926099.573    43344631.689 9 -44540570.239 8
  20809238.757    20809240.442    -7556638.644 9   4189373.266 9
  20063454.988    20063456.372    20731258.179 7 -61943361.671 7
  22164625.804    22164628.917    43263064.629 9 -44480720.003 8
 86  6 11  1 58 23.0800000  0  4G 6G13G 9G11
  21929471.474    21929473.309    43362362.961 9 -44526753.683 8
  20808020.909    20808022.772    -7563035.040 9   4184389.063 9
  20063655.070    20063657.569    20732319.643 8 -61942534.558 8
  22167497.437    22167500.550    43278156.902 9 -44468959.808 9
 86  6 11  1 58 29.0800000  0  4G 6G13G 9G11
  21932848.929    21932851.336    43380111.702 9 -44512923.494 9
  20806807.664    20806808.931    -7569412.327 8   4179419.752 8
  20063863.822    20063864.799    20733406.549 8 -61941687.622 8
  22170371.532    22170373.778    43293256.259 9 -44457194.079 9
 86  6 11  1 58 35.0800000  0  4G 6G13G 9G11
  21936229.991    21936231.941    43397877.812 9 -44499079.783 8
  20805597.460    20805599.192    -7575770.540 9   4174465.299 8
  20064074.501    20064075.753    20734518.859 8 -61940820.892 8
  22173246.734    22173248.445    43308362.631 9 -44445422.878 9
 86  6 11  1 58 41.0800000  0  4G 6G13G 9G11
  21939613.700    21939616.807    43415661.350 9 -44485222.487 9
  20804390.985    20804392.745    -7582109.627 9   4169525.753 9
  20064290.350    20064292.654    20735656.448 6 -61939934.455 8
  22176122.439    22176125.551    43323476.058 8 -44433646.200 8
 86  6 11  1 58 47.0800000  0  4G 6G13G 9G11
  21943000.958    21943003.536    43433462.260 9 -44471351.661 8
  20803189.278    20803189.484    -7588429.603 9   4164601.108 9
  20064512.954    20064514.071    20736819.455 8 -61939028.223 8
  22178998.716    22179001.835    43338596.476 8 -44421864.060 8
 86  6 11  1 58 53.0800000  0  4G 6G13G 9G11
  21946392.508    21946394.071    43451280.586 9 -44457467.266 8
  20801990.041    20801991.190    -7594730.510 8   4159691.312 8
  20064738.321    20064740.195    20738007.905 7 -61938102.162 7
  22181877.668    22181881.509    43353723.881 9 -44410076.472 9
 86  6 11  1 58 59.0800000  0  4G 6G13G 9G11
  21949785.776    21949787.381    43469116.214 9 -44443569.373 9
  20800793.789    20800796.268    -7601012.348 9   4154796.361 8
  20064968.570    20064970.682    20739221.682 7 -61937156.359 8
  22184758.015    22184760.175    43368858.289 9 -44398283.425 8
 86  6 11  1 59  5.0800000  0  4G 6G13G 9G11
  21953183.408    21953184.812    43486969.210 9 -44429657.969 9
  20799602.409    20799603.961    -7607275.172 9   4149916.250 9
  20065205.441    20065207.752    20740460.854 6 -61936190.769 8
  22187639.851    22187641.239    43383999.604 9 -44386485.011 9
 86  6 11  1 59 11.0800000  0  4G 6G13G 9G11
  21956584.245    21956586.308    43504839.541 9 -44415733.037 9
  20798414.231    20798415.987    -7613518.895 9   4145051.020 9
  20065446.038    20065447.523    20741725.438 8 -61935205.390 8
  22190521.614    22190524.684    43399147.893 8 -44374681.152 9
 86  6 11  1 59 17.0800000  0  4G 6G13G 9G11
  21959988.158    21959989.319    43522727.212 9 -44401794.592 9
  20797229.562    20797231.362    -7619743.487 9   4140200.675 9
  20065691.287    20065693.862    20743015.426 8 -61934200.208 7
  22193405.889    22193407.306    43414303.097 8 -44362871.910 8
 86  6 11  1 59 23.0800000  0  4G 6G13G 9G11
  21963394.761    21963397.541    43540632.152 9 -44387842.712 9
  20796048.943    20796050.785    -7625948.987 9   4135365.222 9
  20065940.868    20065943.272    20744330.862 7 -61933175.180 8
  22196291.072    22196293.198    43429465.243 9 -44351057.253 9
 86  6 11  1 59 29.0800000  0  4G 6G13G 9G11
  21966806.015    21966808.537    43558554.408 9 -44373877.322 8
  20794872.233    20794873.793    -7632135.348 9   4130544.688 9
  20066197.696    20066198.815    20745671.745 7 -61932130.351 8
  22199177.372    22199180.551    43444634.305 9 -44339237.211 9
 86  6 11  1 59 35.0800000  0  4G 6G13G 9G11
  21970219.530    21970221.366    43576493.854 9 -44359898.540 8
  20793698.533    20793699.441    -7638302.755 8   4125738.922 9
  20066455.962    20066458.907    20747038.042 8 -61931065.699 8
  22202066.142    22202067.673    43459810.176 9 -44327411.860 8
 86  6 11  1 59 41.0800000  0  4G 6G13G 9G11
  21973636.980    21973638.171    43594450.604 9 -44345906.273 9
  20792528.169    20792530.190    -7644451.123 9   4120948.002 9
  20066721.076    20066722.947    20748429.794 8 -61929981.219 7
  22204954.766    22204956.263    43474992.891 9 -44315581.182 8
 86  6 11  1 59 47.0800000  0  4G 6G13G 9G11
  21977057.263    21977059.412    43612424.529 9 -44331900.631 9
  20791361.666    20791363.801    -7650580.401 9   4116171.923 8
  20066992.206    20066992.275    20749846.889 8 -61928876.984 8
  22207844.780    22207848.006    43490182.386 9 -44303745.208 8
 86  6 11  1 59 53.0800000  0  4G 6G13G 9G11
  21980480.637    21980483.231    43630415.662 9 -44317881.581 9
  20790199.151    20790200.323    -7656690.616 9   4111410.723 8
  20067266.244    20067267.322    20751289.475 9 -61927752.912 8
  22210737.133    22210738.621    43505378.731 9 -44291903.901 9
 86  6 11  1 59 59.0800000  0  4G 6G13G 9G11
  21983907.617    21983909.567    43648424.015 9 -44303849.098 8
  20789040.260    20789041.931    -7662781.767 9   4106664.378 9
  20067545.374    20067547.317    20752757.460 7 -61926609.010 8
  22213630.057    22213633.127    43520581.855 8 -44280057.316 9
 86  6 11  2  0  5.0800000  0  4G 6G13G 9G11
  21987337.044    21987339.393    43666449.519 9 -44289803.265 9
  20787883.737    20787886.757    -7668853.813 9   4101932.902 9
  20067829.222    20067831.102    20754251.047 8 -61925445.200 8
  22216525.136    22216526.588    43535791.742 9 -44268205.474 9
 86  6 11  2  0 11.0800000  0  4G 6G13G 9G11
  21990770.877    21990772.942    43684492.237 9 -44275744.011 9
  20786733.543    20786735.024    -7674906.882 9   4097216.243 8
  20068118.242    20068120.153    20755770.044 8 -61924261.565 8
  22219419.978    22219421.940    43551008.457 8 -44256348.290 9
 86  6 11  2  0 17.0800000  0  4G 6G13G 9G11
  21994208.246    21994209.036    43702552.103 9 -44261671.410 9
  20785583.807    20785586.271    -7680940.903 9   4092514.406 8
  20068412.625    20068414.589    20757314.521 8 -61923058.060 8
  22222316.703    22222319.393    43566231.867 9 -44244485.902 8
 86  6 11  2  0 23.0800000  0  4G 6G13G 9G11
  21997647.374    21997649.881    43720629.105 9 -44247585.440 9
  20784440.334    20784440.974    -7686955.954 9   4087827.358 8
  20068711.433    20068712.282    20758884.489 8 -61921834.723 7
  22225216.189    22225218.014    43581461.916 9 -44232618.330 8
 86  6 11  2  0 29.0800000  0  4G 6G13G 9G11
  22001090.982    22001093.016    43738723.222 9 -44233486.132 8
  20783298.978    20783299.551    -7692951.929 9   4083155.165 8
  20069014.005    20069017.317    20760479.884 7 -61920591.549 8
  22228114.939    22228116.141    43596698.670 9 -44220745.543 8
 86  6 11  2  0 35.0800000  0  4G 6G13G 9G11
  22004536.822    22004539.356    43756834.458 9 -44219373.490 8
  20782161.491    20782162.907    -7698928.864 9   4078497.819 9
  20069323.380    20069324.958    20762100.807 8 -61919328.493 8
  22231015.625    22231018.008    43611942.083 8 -44208867.556 9
 86  6 11  2  0 41.0800000  0  4G 6G13G 9G11
  22007987.082    22007988.674    43774962.765 9 -44205247.536 8
  20781027.573    20781029.089    -7704886.730 9   4073855.316 8
  20069636.972    20069637.818    20763747.237 9 -61918045.557 7
  22233917.436    22233920.092    43627192.163 9 -44196984.383 8
 86  6 11  2  0 47.0800000  0  4G 6G13G 9G11
  22011440.133    22011442.026    43793108.113 8 -44191108.312 9
  20779897.764    20779899.983    -7710825.603 9   4069227.624 9
  20069953.931    20069955.938    20765419.179 8 -61916742.770 8
  22236820.894    22236823.312    43642448.913 8 -44185096.021 9
 86  6 11  2  0 53.0800000  0  4G 6G13G 9G11
  22014896.290    22014898.297    43811270.543 9 -44176955.774 9
  20778771.303    20778772.146    -7716745.410 9   4064614.797 9
  20070278.217    20070279.986    20767116.544 7 -61915420.151 7
  22239725.151    22239727.256    43657712.305 9 -44173202.460 8
 86  6 11  2  0 59.0800000  0  4G 6G13G 9G11
  22018355.966    22018357.228    43829449.971 9 -44162789.996 8
  20777647.917    20777650.292    -7722646.245 9   4060016.742 9
  20070604.746    20070607.325    20768839.493 8 -61914077.579 9
  22242631.276    22242633.045    43672982.294 9 -44161303.777 8
 86  6 11  2  1  5.0800000  0  4G 6G13G 9G11
  22021817.745    22021820.653    43847646.380 9 -44148610.994 9
  20776529.363    20776530.976    -7728528.166 9   4055433.433 9
  20070939.069    20070939.637    20770587.861 7 -61912715.219 8
  22245538.182    22245540.043    43688258.828 9 -44149399.984 8
 86  6 11  2  1 11.0800000  0  4G 6G13G 9G11
  22025282.687    22025285.968    43865859.788 9 -44134418.741 9
  20775413.182    20775414.584    -7734391.123 8   4050864.906 9
  20071275.049    20071276.847    20772361.780 7 -61911332.944 8
  22248446.760    22248449.545    43703541.979 9 -44137491.047 8
 86  6 11  2  1 17.0800000  0  4G 6G13G 9G11
  22028752.910    22028755.260    43884090.218 9 -44120213.214 8
  20774301.587    20774302.996    -7740235.096 9   4046311.157 8
  20071619.392    20071619.492    20774161.253 7 -61909930.764 7
  22251356.293    22251358.811    43718831.673 9 -44125576.995 8
 86  6 11  2  1 23.0800000  0  4G 6G13G 9G11
  22032225.264    22032227.700    43902337.662 9 -44105994.438 9
  20773192.631    20773193.965    -7746060.021 9   4041772.248 8
  20071965.245    20071968.317    20775986.217 8 -61908508.711 9
  22254266.560    22254269.380    43734127.910 9 -44113657.851 9
 86  6 11  2  1 29.0800000  0  4G 6G13G 9G11
  22035700.208    22035703.087    43920602.042 9 -44091762.464 9
  20772088.036    20772089.618    -7751866.082 9   4037248.049 9
  20072318.249    20072318.632    20777836.775 8 -61907066.715 7
  22257179.425    22257180.878    43749430.676 9 -44101733.629 8
 86  6 11  2  1 35.0800000  0  4G 6G13G 9G11
  22039179.946    22039182.054    43938883.351 9 -44077517.301 8
  20770987.476    20770988.199    -7757653.193 9   4032738.617 9
  20072674.737    20072676.877    20779712.864 9 -61905604.830 7
  22260092.861    22260094.301    43764739.964 9 -44089804.318 8
 86  6 11  2  1 41.0800000  0  4G 6G13G 9G11
  22042661.788    22042664.079    43957181.594 9 -44063258.943 9
  20769889.543    20769890.333    -7763421.321 9   4028243.970 9
  20073037.715    20073037.181    20781614.541 8 -61904123.010 7
  22263006.063    22263008.841    43780055.668 9 -44077870.007 9
 86  6 11  2  1 47.0800000  0  4G 6G13G 9G11
  22046147.578    22046149.198    43975496.727 9 -44048987.423 9
  20768794.950    20768796.317    -7769170.515 9   4023764.082 8
  20073404.127    20073404.860    20783541.742 7 -61902621.291 8
  22265922.205    22265924.265    43795377.862 9 -44065930.640 9
 86  6 11  2  1 53.0800000  0  4G 6G13G 9G11
  22049634.700    22049637.894    43993828.773 9 -44034702.718 9
  20767704.876    20767706.483    -7774900.706 9   4019298.989 9
  20073775.525    20073776.365    20785494.530 8 -61901099.656 8
  22268839.091    22268841.502    43810706.443 8 -44053986.290 9
 86  6 11  2  1 59.0800000  0  4G 6G13G 9G11
  22053126.200    22053129.622    44012177.723 9 -44020404.844 8
  20766617.706    20766618.690    -7780611.908 9   4014848.720 9
  20074153.108    20074152.343    20787472.828 8 -61899558.119 8
  22271757.666    22271760.035    43826041.448 8 -44042036.953 9
 86  6 11  2  2  5.0800000  0  4G 6G13G 9G11
  22056622.092    22056623.985    44030543.498 9 -44006093.857 8
  20765533.517    20765536.143    -7786304.096 9   4010413.239 8
  20074532.313    20074534.252    20789476.773 8 -61897996.617 8
  22274677.871    22274679.145    43841382.848 9 -44030082.607 9
 86  6 11  2  2 11.0800000  0  4G 6G13G 9G11
  22060120.933    22060123.441    44048926.044 9 -43991769.814 8
  20764454.818    20764456.610    -7791977.325 9   4005992.541 9
  20074919.908    20074920.628    20791506.261 7 -61896415.181 8
  22277597.525    22277598.864    43856730.633 8 -44018123.299 8
 86  6 11  2  2 17.0800000  0  4G 6G13G 9G11
  22063621.705    22063624.958    44067325.536 9 -43977432.548 9
  20763378.843    20763380.416    -7797631.592 9   4001586.617 8
  20075310.588    20075311.412    20793561.302 8 -61894813.858 7
  22280519.062    22280521.474    43872084.796 9 -44006159.030 8
 86  6 11  2  2 23.0800000  0  4G 6G13G 9G11
  22067125.182    22067128.906    44085741.750 9 -43963082.261 9
  20762306.654    20762308.479    -7803266.992 8   3997195.405 8
  20075705.433    20075707.268    20795641.922 8 -61893192.595 8
  22283442.143    22283443.920    43887445.298 9 -43994189.790 9
 86  6 11  2  2 29.0800000  0  4G 6G13G 9G11
  22070633.697    22070636.003    44104174.816 9 -43948718.845 9
  20761237.549    20761239.557    -7808883.438 9   3992818.952 9
  20076106.388    20076108.344    20797748.175 8 -61891551.379 9
  22286365.926    22286368.438    43902812.190 9 -43982215.604 8
 86  6 11  2  2 35.0800000  0  4G 6G13G 9G11
  22074144.471    22074148.137    44122624.605 9 -43934342.393 9
  20760172.906    20760174.133    -7814481.008 9   3988457.223 9
  20076512.188    20076514.202    20799879.934 8 -61889890.249 8
  22289292.349    22289294.433    43918185.370 9 -43970236.511 9
 86  6 11  2  2 41.0800000  0  4G 6G13G 9G11
  22077658.064    22077661.044    44141091.191 9 -43919952.855 9
  20759111.089    20759113.113    -7820059.626 9   3984110.248 9
  20076923.002    20076925.467    20802037.422 7 -61888209.094 9
  22292218.965    22292220.899    43933564.886 8 -43958252.475 8
 86  6 11  2  2 47.0800000  0  4G 6G13G 9G11
  22081175.350    22081177.870    44159574.475 9 -43905550.308 9
  20758052.787    20758054.169    -7825619.276 9   3979778.051 8
  20077338.998    20077340.115    20804220.474 8 -61886508.015 8
  22295146.412    22295148.481    43948950.711 9 -43946263.534 9
 86  6 11  2  2 53.0800000  0  4G 6G13G 9G11
  22084696.297    22084698.876    44178074.481 9 -43891134.730 9
  20756998.959    20757000.432    -7831159.965 9   3975460.644 9
  20077759.181    20077758.994    20806429.093 7 -61884787.014 8
  22298075.782    22298077.922    43964342.757 9 -43934269.724 9
 86  6 11  2  2 59.0800000  0  4G 6G13G 9G11
  22088219.992    22088222.944    44196591.171 9 -43876706.152 9
  20755947.476    20755949.863    -7836681.813 9   3971157.904 8
  20078184.578    20078185.120    20808663.311 8 -61883046.066 8
  22301006.283    22301007.143    43979741.038 9 -43922271.072 8
 86  6 11  2  3  5.0800000  0  4G 6G13G 9G11
  22091746.493    22091748.385    44215124.602 9 -43862264.526 9
  20754900.898    20754902.304    -7842184.766 9   3966869.875 8
  20078614.462    20078616.165    20810923.172 7 -61881285.137 8
  22303936.648    22303939.704    43995145.556 9 -43910267.552 8
 86  6 11  2  3 11.0800000  0  4G 6G13G 9G11
  22095276.056    22095278.749    44233674.682 8 -43847809.924 9
  20753857.876    20753858.352    -7847668.849 8   3962596.579 8
  20079049.369    20079050.242    20813208.633 7 -61879504.260 7
  22306870.654    22306871.579    44010556.254 9 -43898259.215 8
 86  6 11  2  3 17.0800000  0  4G 6G13G 9G11
  22098810.025    22098812.632    44252241.417 8 -43833342.350 8
  20752817.119    20752818.581    -7853134.064 9   3958337.970 8
  20079486.776    20079491.119    20815519.745 8 -61877703.393 7
  22309803.345    22309805.994    44025973.166 9 -43886246.054 8
 86  6 11  2  3 23.0800000  0  4G 6G13G 9G11
  22102346.570    22102348.806    44270824.774 9 -43818861.818 9
  20751779.835    20751782.456    -7858580.420 9   3954094.058 8
  20079932.702    20079934.047    20817856.472 8 -61875882.573 8
  22312738.054    22312740.086    44041396.174 9 -43874228.127 8
 86  6 11  2  3 29.0800000  0  4G 6G13G 9G11
  22105884.790    22105888.956    44289424.776 8 -43804368.326 9
  20750747.898    20750749.783    -7864007.914 9   3949864.844 8
  20080383.109    20080385.758    20820218.891 7 -61874041.733 7
  22315674.894    22315677.397    44056825.319 9 -43862205.410 8
 86  6 11  2  3 35.0800000  0  4G 6G13G 9G11
  22109427.260    22109431.054    44308041.349 9 -43789861.906 9
  20749718.974    20749720.841    -7869416.555 9   3945650.312 9
  20080837.290    20080839.222    20822606.818 8 -61872181.004 8
  22318611.354    22318613.051    44072260.580 8 -43850177.937 8
 86  6 11  2  3 41.0800000  0  4G 6G13G 9G11
  22112974.465    22112976.529    44326674.552 9 -43775342.546 9
  20748692.694    20748694.313    -7874806.326 9   3941450.493 9
  20081297.423    20081298.483    20825020.530 8 -61870300.187 7
  22321549.970    22321552.066    44087701.987 9 -43838145.685 9
 86  6 11  2  3 47.0800000  0  4G 6G13G 9G11
  22116522.086    22116525.381    44345324.348 9 -43760810.245 9
  20747671.660    20747671.601    -7880177.241 8   3937265.371 8
  20081760.973    20081761.349    20827459.818 8 -61868399.455 7
  22324489.235    22324491.482    44103149.487 8 -43826108.671 8
 86  6 11  2  3 53.0800000  0  4G 6G13G 9G11
  22120074.444    22120078.037    44363990.657 9 -43746265.080 8
  20746652.188    20746654.578    -7885529.297 9   3933094.950 9
  20082229.420    20082231.245    20829924.796 8 -61866478.697 7
  22327430.688    22327431.842    44118603.077 8 -43814066.918 9
 86  6 11  2  3 59.0800000  0  4G 6G13G 9G11
  22123630.206    22123633.099    44382673.521 8 -43731707.011 9
  20745637.316    20745638.958    -7890862.550 9   3928939.160 9
  20082703.447    20082705.479    20832415.332 7 -61864538.014 8
  22330372.123    22330374.384    44134062.704 9 -43802020.457 9
 86  6 11  2  4  5.0800000  0  4G 6G13G 9G11
  22127188.443    22127191.394    44401372.916 9 -43717136.053 8
  20744626.664    20744627.859    -7896176.959 9   3924798.062 9
  20083183.443    20083184.690    20834931.631 8 -61862577.273 7
  22333315.903    22333318.343    44149528.448 9 -43789969.230 8
 86  6 11  2  4 11.0800000  0  4G 6G13G 9G11
  22130749.573    22130753.067    44420088.758 8 -43702552.298 8
  20743618.853    20743620.312    -7901472.603 9   3920671.591 9
  20083665.923    20083668.585    20837473.574 8 -61860596.529 7
  22336260.082    22336261.722    44165000.159 9 -43777913.358 8
 86  6 11  2  4 17.0800000  0  4G 6G13G 9G11
  22134314.234    22134317.400    44438821.148 9 -43687955.639 9
  20742614.756    20742615.038    -7906749.296 9   3916559.887 9
  20084155.802    20084156.271    20840041.174 8 -61858595.810 8
  22339204.586    22339206.997    44180477.887 8 -43765852.792 9
 86  6 11  2  4 23.0800000  0  4G 6G13G 9G11
  22137882.432    22137885.370    44457569.983 9 -43673346.175 9
  20741614.199    20741615.631    -7912007.197 9   3912462.822 7
  20084647.798    20084650.721    20842634.385 8 -61856575.124 8
  22342151.807    22342152.830    44195961.588 9 -43753787.579 9
 86  6 11  2  4 29.0800000  0  4G 6G13G 9G11
  22141452.776    22141456.457    44476335.316 9 -43658723.837 9
  20740617.496    20740618.293    -7917246.230 9   3908380.465 8
  20085146.334    20085148.560    20845253.344 7 -61854534.364 8
  22345098.599    22345101.097    44211451.281 9 -43741717.693 9
 86  6 11  2  4 35.0800000  0  4G 6G13G 9G11
  22145027.741    22145030.663    44495117.061 8 -43644088.730 9
  20739624.906    20739625.508    -7922466.428 9   3904312.770 9
  20085650.714    20085652.020    20847897.871 8 -61852473.712 8
  22348046.980    22348049.885    44226946.975 9 -43729643.130 9
 86  6 11  2  4 41.0800000  0  4G 6G13G 9G11
  22148605.196    22148606.445    44513915.213 8 -43629440.827 8
  20738633.659    20738635.337    -7927667.899 9   3900259.680 9
  20086156.484    20086158.583    20850568.160 7 -61850392.974 8
  22350997.349    22350999.395    44242448.556 8 -43717563.976 9
 86  6 11  2  4 47.0800000  0  4G 6G13G 9G11
  22152184.627    22152187.350    44532729.763 9 -43614780.149 9
  20737647.566    20737648.818    -7932850.554 9   3896221.243 9
  20086671.104    20086673.217    20853264.123 7 -61848292.214 7
  22353947.941    22353950.688    44257956.102 9 -43705480.174 9
 86  6 11  2  4 53.0800000  0  4G 6G13G 9G11
  22155769.108    22155770.685    44551560.694 9 -43600106.706 8
  20736665.390    20736666.314    -7938014.421 9   3892197.463 9
  20087189.320    20087189.727    20855985.704 8 -61846171.510 7
  22356900.163    22356902.123    44273469.578 9 -43693391.755 8
 86  6 11  2  4 59.0800000  0  4G 6G13G 9G11
  22159354.276    22159357.513    44570407.987 8 -43585420.513 9
  20735686.458    20735687.575    -7943159.472 9   3888188.338 9
  20087711.724    20087712.780    20858733.069 8 -61844030.715 7
  22359853.336    22359856.205    44288989.004 9 -43681298.712 9
 86  6 11  2  5  5.0800000  0  4G 6G13G 9G11
  22162944.709    22162947.488    44589271.638 9 -43570721.576 9
  20734710.826    20734711.058    -7948285.733 9   3884193.844 8
  20088240.209    20088240.229    20861506.146 8 -61841869.870 8
  22362807.612    22362810.095    44304514.256 9 -43669201.106 8
 86  6 11  2  5 11.0800000  0  4G 6G13G 9G11
  22166537.748    22166539.668    44608151.585 9 -43556009.939 9
  20733739.156    20733740.096    -7953393.293 8   3880213.935 9
  20088771.531    20088774.038    20864304.850 8 -61839689.071 9
  22365762.982    22365765.838    44320045.333 8 -43657098.973 8
 86  6 11  2  5 17.0800000  0  4G 6G13G 9G11
  22170133.075    22170135.969    44627047.844 9 -43541285.591 8
  20732769.766    20732771.680    -7958482.058 9   3876248.648 9
  20089309.523    20089311.291    20867129.256 7 -61837488.233 8
  22368718.997    22368722.095    44335582.235 9 -43644992.304 9
 86  6 11  2  5 23.0800000  0  4G 6G13G 9G11
  22173730.621    22173735.618    44645960.455 8 -43526548.505 9
  20731804.678    20731806.756    -7963552.035 9   3872298.026 8
  20089852.621    20089853.274    20869979.421 7 -61835267.318 8
  22371677.444    22371679.726    44351124.978 9 -43632881.081 9
 86  6 11  2  5 29.0800000  0  4G 6G13G 9G11
  22177334.247    22177336.155    44664889.311 9 -43511798.752 9
  20730844.592    20730845.476    -7968603.262 9   3868362.009 8
  20090398.806    20090401.783    20872855.296 8 -61833026.377 8
  22374635.761    22374638.660    44366673.513 9 -43620765.342 9
 86  6 11  2  5 35.0800000  0  4G 6G13G 9G11
  22180938.877    22180942.843    44683834.464 9 -43497036.311 9
  20729886.355    20729887.787    -7973635.709 8   3864440.624 8
  20090952.179    20090953.348    20875756.900 8 -61830765.403 9
  22377595.367    22377598.559    44382227.830 9 -43608645.108 9
 86  6 11  2  5 41.0800000  0  4G 6G13G 9G11
  22184547.268    22184550.104    44702795.863 9 -43482261.207 9
  20728931.058    20728933.989    -7978649.395 9   3860533.847 8
  20091508.267    20091510.019    20878684.179 8 -61828484.411 8
  22380556.569    22380559.611    44397787.844 8 -43596520.425 8
 86  6 11  2  5 47.0800000  0  4G 6G13G 9G11
  22188159.051    22188161.201    44721773.509 9 -43467473.437 9
  20727981.226    20727983.608    -7983644.417 9   3856641.628 8
  20092070.186    20092072.746    20881637.316 8 -61826183.263 8
  22383517.935    22383521.934    44413353.639 9 -43584391.234 9
 86  6 11  2  5 53.0800000  0  4G 6G13G 9G11
  22191772.723    22191776.960    44740767.382 9 -43452673.027 8
  20727035.012    20727036.801    -7988620.691 9   3852764.009 8
  20092636.428    20092637.912    20884616.082 8 -61823862.140 8
  22386481.282    22386485.004    44428925.141 8 -43572257.615 9
 86  6 11  2  5 59.0800000  0  4G 6G13G 9G11
  22195392.133    22195393.953    44759777.439 9 -43437860.009 9
  20726091.438    20726092.512    -7993578.215 9   3848901.007 8
  20093209.377    20093211.424    20887620.596 8 -61821520.955 8
  22389445.211    22389449.031    44444502.371 9 -43560119.503 9
 86  6 11  2  6  5.0800000  0  4G 6G13G 9G11
  22199011.672    22199013.864    44778803.664 9 -43423034.383 9
  20725151.113    20725153.747    -7998516.999 9   3845052.606 9
  20093786.218    20093787.176    20890650.775 8 -61819159.786 8
  22392410.941    22392415.240    44460085.256 9 -43547977.001 9
 86  6 11  2  6 11.0800000  0  4G 6G13G 9G11
  22202634.773    22202638.011    44797846.050 8 -43408196.178 9
  20724214.374    20724216.352    -8003437.034 8   3841218.815 9
  20094367.524    20094368.971    20893706.768 8 -61816778.498 7
  22395378.266    22395380.513    44475673.757 8 -43535830.134 9
 86  6 11  2  6 17.0800000  0  4G 6G13G 9G11
  22206261.781    22206264.760    44816904.516 9 -43393345.421 9
  20723282.934    20723283.717    -8008338.377 9   3837399.582 9
  20094955.324    20094956.222    20896788.393 8 -61814377.225 8
  22398345.264    22398346.860    44491267.953 9 -43523678.801 9
 86  6 11  2  6 23.0800000  0  4G 6G13G 9G11
  22209891.594    22209893.744    44835979.130 9 -43378482.097 8
  20722353.545    20722354.385    -8013221.016 9   3833594.935 7
  20095544.717    20095546.397    20899895.819 8 -61811955.860 7
  22401313.340    22401316.917    44506867.792 9 -43511523.098 8
 86  6 11  2  6 29.0800000  0  4G 6G13G 9G11
  22213525.041    22213526.733    44855069.884 8 -43363606.210 8
  20721427.828    20721429.589    -8018084.961 9   3829804.843 9
  20096142.000    20096142.483    20903028.985 8 -61809514.441 7
  22404284.129    22404285.410    44522473.238 8 -43499363.009 9
 86  6 11  2  6 35.0800000  0  4G 6G13G 9G11
  22217161.206    22217163.242    44874176.662 9 -43348717.821 9
  20720506.046    20720507.726    -8022930.198 9   3826029.331 9
  20096741.648    20096743.521    20906187.904 8 -61807052.942 8
  22407253.708    22407256.764    44538084.330 9 -43487198.524 8
 86  6 11  2  6 41.0800000  0  4G 6G13G 9G11
  22220799.376    22220801.412    44893299.500 9 -43333816.917 9
  20719586.228    20719588.168    -8027756.813 9   3822268.355 8
  20097349.087    20097350.500    20909372.569 9 -61804571.386 8
  22410225.848    22410228.582    44553700.933 8 -43475029.750 8
 86  6 11  2  6 47.0800000  0  4G 6G13G 9G11
  22224440.393    22224443.357    44912438.412 9 -43318903.485 9
  20718672.060    20718674.437    -8032564.794 9   3818521.872 8
  20097958.533    20097961.363    20912582.974 8 -61802069.778 8
  22413199.270    22413200.937    44569323.101 9 -43462856.636 8
 86  6 11  2  6 53.0800000  0  4G 6G13G 9G11
  22228086.777    22228089.254    44931593.364 8 -43303977.565 9
  20717761.043    20717762.192    -8037354.151 9   3814789.893 9
  20098576.124    20098576.051    20915819.078 8 -61799548.138 7
  22416171.718    22416175.704    44584950.865 9 -43450679.166 8
 86  6 11  2  6 59.0800000  0  4G 6G13G 9G11
  22231734.646    22231736.236    44950764.283 9 -43289039.196 9
  20716853.019    20716854.786    -8042124.860 9   3811072.453 9
  20099196.018    20099197.167    20919080.948 8 -61797006.410 8
  22419147.394    22419150.243    44600584.136 8 -43438497.391 9
 86  6 11  2  7  5.0800000  0  4G 6G13G 9G11
  22235386.109    22235388.144    44969951.279 9 -43274088.293 9
  20715948.384    20715950.963    -8046876.909 9   3807369.574 8
  20099822.162    20099823.200    20922368.616 8 -61794444.606 7
  22422122.883    22422125.339    44616222.907 8 -43426311.349 8
 86  6 11  2  7 11.0800000  0  4G 6G13G 9G11
  22239039.617    22239042.769    44989154.219 9 -43259124.978 9
  20715047.184    20715049.234    -8051610.320 9   3803681.205 9
  20100452.213    20100455.053    20925681.946 8 -61791862.785 8
  22425101.442    22425103.953    44631867.152 9 -43414121.032 9
 86  6 11  2  7 17.0800000  0  4G 6G13G 9G11
  22242697.003    22242699.253    45008373.112 9 -43244149.227 9
  20714150.832    20714153.089    -8056325.022 9   3800007.408 8
  20101087.287    20101088.135    20929021.052 8 -61789260.889 8
  22428078.755    22428080.916    44647516.894 9 -43401926.435 8
 86  6 11  2  7 23.0800000  0  4G 6G13G 9G11
  22246357.481    22246359.659    45027607.937 9 -43229161.068 8
  20713258.191    20713258.424    -8061021.069 8   3796348.153 8
  20101728.032    20101730.177    20932385.916 8 -61786638.931 8
  22431058.523    22431060.899    44663172.095 9 -43389727.572 8
 86  6 11  2  7 29.0800000  0  4G 6G13G 9G11
  22250020.520    22250023.442    45046858.678 9 -43214160.493 8
  20712367.108    20712369.301    -8065698.519 9   3792703.380 8
  20102372.342    20102374.200    20935776.588 8 -61783996.851 8
  22434037.997    22434040.638    44678832.720 9 -43377524.488 8
 86  6 11  2  7 35.0800000  0  4G 6G13G 9G11
  22253687.865    22253689.371    45066125.359 9 -43199147.500 9
  20711480.771    20711482.559    -8070357.395 9   3789073.094 8
  20103023.845    20103024.822    20939193.090 8 -61781334.639 8
  22437020.362    22437021.629    44694498.788 9 -43365317.180 9
 86  6 11  2  7 41.0800000  0  4G 6G13G 9G11
  22257356.771    22257359.107    45085407.976 9 -43184122.108 9
  20710597.231    20710599.569    -8074997.692 9   3785457.270 8
  20103678.012    20103679.322    20942635.375 9 -61778652.330 8
  22440001.947    22440003.758    44710170.279 9 -43353105.625 8
 86  6 11  2  7 47.0800000  0  4G 6G13G 9G11
  22261029.955    22261031.675    45104706.434 9 -43169084.345 9
  20709717.924    20709720.308    -8079619.354 8   3781855.984 9
  20104338.452    20104339.930    20946103.382 8 -61775949.992 8
  22442986.013    22442986.537    44725847.195 9 -43340889.851 9
 86  6 11  2  7 53.0800000  0  4G 6G13G 9G11
  22264704.126    22264706.390    45124020.809 9 -43154034.201 9
  20708841.909    20708843.994    -8084222.324 9   3778269.250 8
  20105002.907    20105004.952    20949597.152 8 -61773227.575 7
  22445969.116    22445971.634    44741529.554 8 -43328669.835 9
 86  6 11  2  7 59.0800000  0  4G 6G13G 9G11
  22268383.234    22268384.940    45143350.993 9 -43138971.722 9
  20707969.999    20707971.785    -8088806.760 9   3774696.971 8
  20105672.541    20105674.526    20953116.720 8 -61770485.055 7
  22448954.964    22448957.097    44757217.273 9 -43316445.660 8
 86  6 11  2  8  5.0800000  0  4G 6G13G 9G11
  22272064.531    22272066.552    45162697.001 9 -43123896.924 8
  20707100.741    20707101.821    -8093372.586 9   3771139.186 9
  20106347.463    20106348.718    20956662.136 8 -61767722.405 7
  22451940.398    22451942.845    44772910.329 9 -43304217.298 8
 86  6 11  2  8 11.0800000  0  4G 6G13G 9G11
  22275749.490    22275751.655    45182058.788 8 -43108809.822 8
  20706236.333    20706237.689    -8097919.847 9   3767595.856 9
  20107026.498    20107028.185    20960233.270 7 -61764939.699 8
  22454928.065    22454930.840    44788608.659 9 -43291984.841 8
 86  6 11  2  8 17.0800000  0  4G 6G13G 9G11
  22279437.198    22279438.589    45201436.430 9 -43093710.366 9
  20705374.491    20705375.234    -8102448.538 9   3764067.004 9
  20107711.775    20107712.012    20963830.262 7 -61762136.856 8
  22457916.504    22457918.579    44804312.318 8 -43279748.224 8
 86  6 11  2  8 23.0800000  0  4G 6G13G 9G11
  22283126.967    22283128.931    45220829.791 9 -43078598.673 9
  20704515.313    20704516.702    -8106958.653 9   3760552.637 8
  20108401.364    20108402.333    20967453.051 8 -61759313.909 8
  22460904.907    22460908.435    44820021.271 9 -43267507.487 8
 86  6 11  2  8 29.0800000  0  4G 6G13G 9G11
  22286820.942    22286821.389    45240238.904 9 -43063474.700 9
  20703660.810    20703662.485    -8111450.203 9   3757052.725 8
  20109095.531    20109096.429    20971101.528 8 -61756470.934 8
  22463895.393    22463898.204    44835735.411 9 -43255262.714 9
 86  6 11  2  8 35.0800000  0  4G 6G13G 9G11
  22290516.992    22290518.455    45259663.742 9 -43048338.465 9
  20702810.332    20702811.708    -8115923.206 9   3753567.271 9
  20109794.506    20109795.515    20974775.879 7 -61753607.804 8
  22466888.532    22466889.906    44851454.808 9 -43243013.831 8
 86  6 11  2  8 41.0800000  0  4G 6G13G 9G11
  22294216.148    22294218.840    45279104.239 9 -43033190.047 9
  20701961.973    20701963.515    -8120377.667 9   3750096.265 9
  20110497.982    20110499.724    20978475.887 7 -61750724.687 7
  22469880.520    22469882.572    44867179.396 8 -43230760.908 9
 86  6 11  2  8 47.0800000  0  4G 6G13G 9G11
  22297917.749    22297921.143    45298560.388 9 -43018029.417 9
  20701117.501    20701119.484    -8124813.644 8   3746639.667 9
  20111206.715    20111209.238    20982201.758 7 -61747821.409 7
  22472873.030    22472875.485    44882909.166 9 -43218503.955 9
 86  6 11  2  8 53.0800000  0  4G 6G13G 9G11
  22301624.144    22301626.107    45318032.262 9 -43002856.535 9
  20700277.180    20700278.657    -8129231.033 9   3743197.542 9
  20111922.448    20111923.124    20985953.464 7 -61744898.003 8
  22475867.800    22475869.747    44898644.206 9 -43206242.892 8
 86  6 11  2  8 59.0800000  0  4G 6G13G 9G11
  22305332.371    22305334.792    45337519.763 9 -42987671.477 9
  20699440.071    20699441.370    -8133629.990 9   3739769.784 8
  20112639.771    20112641.558    20989730.879 8 -61741954.566 8
  22478862.306    22478864.797    44914384.395 9 -43193977.813 9
 86  6 11  2  9  5.0800000  0  4G 6G13G 9G11
  22309043.360    22309045.309    45357022.894 9 -42972474.240 8
  20698606.252    20698608.255    -8138010.425 9   3736356.467 8
  20113363.798    20113365.208    20993534.072 8 -61738991.049 8
  22481858.437    22481862.029    44930129.774 9 -43181708.697 8
 86  6 11  2  9 11.0800000  0  4G 6G13G 9G11
  22312758.126    22312759.374    45376541.673 9 -42957264.802 9
  20697775.897    20697778.666    -8142372.326 9   3732957.566 9
  20114091.416    20114093.934    20997363.060 8 -61736007.422 9
  22484856.406    22484857.953    44945880.306 9 -43169435.557 9
 86  6 11  2  9 17.0800000  0  4G 6G13G 9G11
  22316475.225    22316475.587    45396076.067 9 -42942043.216 8
  20696950.037    20696951.848    -8146715.737 8   3729573.097 8
  20114825.602    20114827.642    21001217.958 8 -61733003.608 7
  22487853.996    22487856.686    44961635.991 9 -43157158.403 9
 86  6 11  2  9 23.0800000  0  4G 6G13G 9G11
  22320195.887    22320197.664    45415626.071 9 -42926809.457 9
  20696127.789    20696128.934    -8151040.603 8   3726203.073 9
  20115564.537    20115566.039    21005098.682 8 -61729979.665 7
  22490853.310    22490855.735    44977396.807 8 -43144877.260 8
 86  6 11  2  9 29.0800000  0  4G 6G13G 9G11
  22323919.324    22323920.687    45435191.594 9 -42911563.605 9
  20695307.640    20695309.199    -8155346.993 9   3722847.448 9
  20116306.493    20116308.646    21009005.124 7 -61726935.689 7
  22493853.410    22493856.029    44993162.663 9 -43132592.175 9
 86  6 11  2  9 35.0800000  0  4G 6G13G 9G11
  22327644.495    22327646.171    45454772.662 9 -42896305.641 8
  20694491.418    20694493.994    -8159634.860 9   3719506.246 8
  20117056.340    20117057.735    21012937.372 7 -61723871.611 7
  22496854.091    22496856.925    45008933.657 9 -43120303.097 8
 86  6 11  2  9 41.0800000  0  4G 6G13G 9G11
  22331373.927    22331375.747    45474369.283 9 -42881035.560 9
  20693678.745    20693681.038    -8163904.258 9   3716179.444 9
  20117809.072    20117810.198    21016895.510 8 -61720787.353 9
  22499856.832    22499859.587    45024709.731 9 -43108010.053 8
 86  6 11  2  9 47.0800000  0  4G 6G13G 9G11
  22335105.478    22335107.527    45493981.428 9 -42865753.375 8
  20692869.929    20692872.240    -8168155.201 9   3712867.027 9
  20118568.059    20118569.129    21020879.337 8 -61717683.075 8
  22502859.051    22502862.356    45040490.852 9 -43095713.089 8
 86  6 11  2  9 53.0800000  0  4G 6G13G 9G11
  22338841.021    22338843.428    45513609.093 9 -42850459.093 9
  20692065.430    20692066.320    -8172387.607 9   3709569.051 8
  20119330.242    20119330.855    21024889.155 8 -61714558.536 8
  22505863.595    22505866.263    45056277.068 9 -43083412.148 9
 86  6 11  2  9 59.0800000  0  4G 6G13G 9G11
  22342579.354    22342579.987    45533252.231 9 -42835152.771 8
  20691262.351    20691263.543    -8176601.605 9   3706285.416 8
  20120098.309    20120098.342    21028924.765 8 -61711413.899 7
  22508867.982    22508870.993    45072068.222 9 -43071107.346 8
 86  6 11  2 10  5.0800000  0  4G 6G13G 9G11
  22346321.080    22346322.585    45552910.893 8 -42819834.339 8
  20690464.513    20690465.471    -8180797.129 9   3703016.170 9
  20120871.789    20120873.167    21032986.148 8 -61708249.201 8
  22511874.907    22511876.224    45087864.398 9 -43058798.653 9
 86  6 11  2 10 11.0800000  0  4G 6G13G 9G11
  22350064.121    22350066.157    45572584.962 9 -42804503.900 8
  20689669.821    20689671.398    -8184974.250 9   3699761.274 9
  20121649.049    20121650.414    21037073.395 7 -61705064.320 7
  22514881.540    22514884.418    45103665.535 9 -43046486.074 8
 86  6 11  2 10 17.0800000  0  4G 6G13G 9G11
  22353810.926    22353812.417    45592274.510 9 -42789161.410 8
  20688878.687    20688879.627    -8189132.968 9   3696520.735 9
  20122431.216    20122432.639    21041186.471 8 -61701859.333 8
  22517889.755    22517891.966    45119471.668 8 -43034169.620 9
 86  6 11  2 10 23.0800000  0  4G 6G13G 9G11
  22357560.993    22357561.968    45611979.389 9 -42773806.973 9
  20688090.522    20688092.095    -8193273.327 9   3693294.475 8
  20123219.383    20123219.823    21045325.411 7 -61698634.181 8
  22520897.912    22520901.412    45135282.682 9 -43021849.349 8
 86  6 11  2 10 29.0800000  0  4G 6G13G 9G11
  22361312.863    22361315.184    45631699.678 9 -42758440.513 8
  20687305.247    20687307.627    -8197395.194 9   3690082.619 8
  20124012.399    20124014.284    21049490.069 8 -61695389.019 8
  22523907.858    22523910.134    45151098.652 9 -43009525.223 8
 86  6 11  2 10 35.0800000  0  4G 6G13G 9G11
  22365068.668    22365070.202    45651435.357 9 -42743062.078 9
  20686525.546    20686526.577    -8201498.630 9   3686885.149 8
  20124808.143    20124810.308    21053680.571 7 -61692123.683 7
  22526918.626    22526920.923    45166919.541 9 -42997197.266 9
 86  6 11  2 10 41.0800000  0  4G 6G13G 9G11
  22368827.406    22368828.282    45671186.361 9 -42727671.683 8
  20685747.415    20685749.236    -8205583.700 9   3683701.983 8
  20125611.405    20125612.760    21057896.925 8 -61688838.214 9
  22529929.437    22529932.765    45182745.324 9 -42984865.486 8
 86  6 11  2 10 47.0800000  0  4G 6G13G 9G11
  22372588.019    22372589.941    45690952.687 9 -42712269.376 9
  20684973.951    20684975.009    -8209650.397 9   3680533.118 9
  20126418.633    20126420.607    21062139.083 8 -61685532.636 7
  22532942.652    22532943.941    45198575.910 9 -42972529.964 9
 86  6 11  2 10 53.0800000  0  4G 6G13G 9G11
  22376353.211    22376355.032    45710734.314 9 -42696855.117 8
  20684203.107    20684204.852    -8213698.773 9   3677378.547 9
  20127231.354    20127232.743    21066407.094 8 -61682206.924 7
  22535955.668    22535959.166    45214411.333 9 -42960190.683 8
 86  6 11  2 10 59.0800000  0  4G 6G13G 9G11
  22380120.864    22380121.039    45730531.264 9 -42681428.933 8
  20683436.686    20683438.181    -8217728.705 9   3674238.328 9
  20128048.574    20128048.881    21070700.941 7 -61678861.062 8
  22538970.049    22538972.833    45230251.703 9 -42947847.543 9
 86  6 11  2 11  5.0800000  0  4G 6G13G 9G11
  22383891.208    22383891.798    45750343.466 8 -42665990.870 8
  20682672.664    20682674.946    -8221740.184 9   3671112.508 8
  20128869.792    20128872.873    21075020.552 7 -61675495.129 7
  22541985.762    22541987.866    45246096.855 9 -42935500.675 8
 86  6 11  2 11 11.0800000  0  4G 6G13G 9G11
  22387662.982    22387665.990    45770170.864 9 -42650540.941 8
  20681913.728    20681914.727    -8225733.280 9   3668000.994 8
  20129696.551    20129698.463    21079366.057 7 -61672109.041 7
  22545002.375    22545004.336    45261946.773 8 -42923150.107 9
 86  6 11  2 11 17.0800000  0  4G 6G13G 9G11
  22391438.477    22391441.012    45790013.542 9 -42635079.126 8
  20681156.579    20681157.935    -8229708.029 9   3664903.801 8
  20130528.364    20130531.052    21083737.303 8 -61668702.863 7
  22548018.395    22548021.287    45277801.462 9 -42910795.796 8
 86  6 11  2 11 23.0800000  0  4G 6G13G 9G11
  22395218.836    22395219.354    45809871.480 9 -42619605.431 9
  20680404.466    20680405.586    -8233664.460 9   3661820.875 8
  20131366.020    20131367.682    21088134.477 8 -61665276.499 7
  22551037.219    22551039.030    45293660.988 9 -42898437.731 9
 86  6 11  2 11 29.0800000  0  4G 6G13G 9G11
  22399000.455    22399002.104    45829744.621 9 -42604119.879 8
  20679655.005    20679657.727    -8237602.583 9   3658752.204 8
  20132206.762    20132208.061    21092557.479 8 -61661830.004 7
  22554055.422    22554058.005    45309525.290 9 -42886075.949 9
 86  6 11  2 11 35.0800000  0  4G 6G13G 9G11
  22402784.907    22402787.114    45849632.910 9 -42588622.507 8
  20678908.426    20678910.779    -8241522.376 9   3655697.818 9
  20133054.011    20133055.122    21097006.269 8 -61658363.427 8
  22557074.390    22557077.860    45325394.357 9 -42873710.432 9
 86  6 11  2 11 41.0800000  0  4G 6G13G 9G11
  22406572.478    22406574.156    45869536.376 9 -42573113.322 9
  20678166.591    20678167.795    -8245423.877 9   3652657.685 9
  20133904.545    20133906.594    21101480.876 8 -61654876.719 7
  22560096.527    22560098.759    45341268.139 8 -42861341.261 8
 86  6 11  2 11 47.0800000  0  4G 6G13G 9G11
  22410362.883    22410363.630    45889454.993 9 -42557592.333 8
  20677427.303    20677428.233    -8249307.066 9   3649631.820 9
  20134762.666    20134763.397    21105981.269 7 -61651369.922 7
  22563116.768    22563119.566    45357146.611 9 -42848968.432 9
 86  6 11  2 11 53.0800000  0  4G 6G13G 9G11
  22414155.521    22414157.055    45909388.763 9 -42542059.539 8
  20676691.910    20676694.332    -8253171.932 9   3646620.233 8
  20135621.666    20135625.390    21110507.634 8 -61647842.902 8
  22566140.343    22566142.934    45373029.835 9 -42836591.893 9
 86  6 11  2 11 59.0800000  0  4G 6G13G 9G11
  22417951.348    22417954.771    45929337.633 9 -42526514.972 8
  20675959.011    20675961.901    -8257018.531 9   3643622.888 8
  20136489.618    20136491.152    21115059.770 7 -61644295.769 8
  22569164.083    22569166.567    45388917.748 9 -42824211.714 8
 86  6 11  2 12  5.0800000  0  4G 6G13G 9G11
  22421751.039    22421752.945    45949301.600 9 -42510958.644 9
  20675231.685    20675232.440    -8260846.870 8   3640639.777 8
  20137360.590    20137361.970    21119637.764 9 -61640728.511 8
  22572187.986    22572190.478    45404810.366 9 -42811827.855 9
 86  6 11  2 12 11.0800000  0  4G 6G13G 9G11
  22425552.792    22425554.183    45969280.619 9 -42495390.584 8
  20674507.003    20674508.517    -8264656.854 9   3637670.956 8
  20138237.127    20138237.225    21124241.561 7 -61637141.133 8
  22575213.022    22575215.226    45420707.625 9 -42799440.386 9
 86  6 11  2 12 17.0800000  0  4G 6G13G 9G11
  22429357.491    22429359.512    45989274.690 9 -42479810.804 8
  20673785.112    20673786.296    -8268448.595 9   3634716.352 9
  20139118.703    20139119.834    21128871.201 7 -61633533.626 8
  22578238.865    22578241.242    45436609.491 9 -42787049.333 8
 86  6 11  2 12 23.0800000  0  4G 6G13G 9G11
  22433164.752    22433166.903    46009283.816 9 -42464219.287 8
  20673066.468    20673067.878    -8272222.071 9   3631775.984 8
  20140004.192    20140005.114    21133526.540 7 -61629906.083 7
  22581265.695    22581268.451    45452515.904 9 -42774654.720 8
 86  6 11  2 12 29.0800000  0  4G 6G13G 9G11
  22436975.804    22436977.267    46029307.971 9 -42448616.067 8
  20672352.780    20672353.812    -8275977.332 9   3628849.800 9
  20140895.364    20140895.304    21138207.890 7 -61626258.279 8
  22584293.434    22584296.326    45468426.928 9 -42762256.528 9
 86  6 11  2 12 35.0800000  0  4G 6G13G 9G11
  22440789.305    22440791.382    46049347.103 9 -42433001.153 9
  20671641.730    20671643.092    -8279714.334 9   3625937.872 8
  20141789.799    20141791.829    21142915.021 8 -61622590.392 8
  22587322.191    22587325.253    45484342.513 9 -42749854.774 8
 86  6 11  2 12 41.0800000  0  4G 6G13G 9G11
  22444605.651    22444606.098    46069401.218 9 -42417374.582 8
  20670932.638    20670933.829    -8283433.029 9   3623040.184 8
  20142690.402    20142690.476    21147647.975 8 -61618902.375 8
  22590351.890    22590353.463    45500262.666 9 -42737449.461 8
 86  6 11  2 12 47.0800000  0  4G 6G13G 9G11
  22448425.347    22448426.081    46089470.302 9 -42401736.346 8
  20670229.466    20670231.730    -8287133.503 9   3620156.685 8
  20143596.795    20143597.540    21152406.734 8 -61615194.260 8
  22593382.676    22593384.100    45516187.332 9 -42725040.641 9
 86  6 11  2 12 53.0800000  0  4G 6G13G 9G11
  22452246.158    22452247.636    46109554.326 9 -42386086.468 8
  20669529.268    20669530.301    -8290815.879 9   3617287.309 8
  20144507.456    20144508.634    21157191.465 7 -61611465.904 7
  22596413.127    22596415.217    45532116.552 9 -42712628.260 8
 86  6 11  2 12 59.0800000  0  4G 6G13G 9G11
  22456071.349    22456072.685    46129653.198 9 -42370425.025 9
  20668831.093    20668832.244    -8294480.054 9   3614432.100 8
  20145421.602    20145424.283    21162001.966 7 -61607717.457 8
  22599445.431    22599447.270    45548050.246 8 -42700212.403 9
 86  6 11  2 13  5.0800000  0  4G 6G13G 9G11
  22459897.957    22459899.649    46149767.016 8 -42354751.926 8
  20668137.197    20668139.071    -8298125.965 8   3611591.139 9
  20146342.746    20146344.835    21166838.204 8 -61603948.961 8
  22602477.958    22602480.675    45563988.453 8 -42687793.033 8
 86  6 11  2 13 11.0800000  0  4G 6G13G 9G11
  22463729.199    22463730.905    46169895.728 8 -42339067.227 9
  20667447.187    20667448.503    -8301753.684 9   3608764.356 9
  20147267.410    20147269.270    21171700.370 7 -61600160.257 7
  22605513.136    22605515.534    45579931.121 9 -42675370.175 8
 86  6 11  2 13 17.0800000  0  4G 6G13G 9G11
  22467561.774    22467563.537    46190039.308 9 -42323370.938 8
  20666759.854    20666761.843    -8305363.263 9   3605951.701 8
  20148198.347    20148200.219    21176588.380 7 -61596351.429 7
  22608547.150    22608549.119    45595878.267 9 -42662943.836 8
 86  6 11  2 13 23.0800000  0  4G 6G13G 9G11
  22471398.297    22471399.659    46210197.739 9 -42307663.081 9
  20666076.798    20666079.241    -8308954.621 9   3603153.231 9
  20149133.117    20149134.559    21181502.220 8 -61592522.480 8
  22611582.753    22611584.013    45611829.879 9 -42650514.008 9
 86  6 11  2 13 29.0800000  0  4G 6G13G 9G11
  22475237.224    22475239.331    46230371.001 9 -42291943.668 8
  20665397.366    20665398.271    -8312527.855 9   3600368.892 8
  20150073.588    20150074.740    21186441.866 9 -61588673.389 8
  22614618.677    22614620.716    45627785.916 9 -42638080.739 8
 86  6 11  2 13 35.0800000  0  4G 6G13G 9G11
  22479078.756    22479079.260    46250559.074 9 -42276212.712 8
  20664720.068    20664722.719    -8316082.909 9   3597598.732 9
  20151018.542    20151019.104    21191407.383 8 -61584804.162 7
  22617655.845    22617658.730    45643746.383 9 -42625644.011 9
 86  6 11  2 13 41.0800000  0  4G 6G13G 9G11
  22482923.307    22482924.826    46270761.907 9 -42260470.250 9
  20664047.586    20664049.031    -8319619.805 9   3594842.710 9
  20151967.757    20151968.401    21196398.721 8 -61580914.807 8
  22620693.858    22620696.106    45659711.228 9 -42613203.885 8
 86  6 11  2 13 47.0800000  0  4G 6G13G 9G11
  22486770.619    22486772.140    46290979.503 9 -42244716.293 9
  20663377.844    20663379.175    -8323138.591 8   3592100.799 7
  20152922.202    20152923.844    21201415.871 8 -61577005.350 8
  22623732.144    22623733.868    45675680.389 9 -42600760.387 8
 86  6 11  2 13 53.0800000  0  4G 6G13G 9G11
  22490620.049    22490621.999    46311211.835 9 -42228950.847 8
  20662711.669    20662712.184    -8326639.274 9   3589372.991 7
  20153882.036    20153883.911    21206458.861 8 -61573075.736 8
  22626771.524    22626774.793    45691653.908 9 -42588313.488 9
 86  6 11  2 13 59.0800000  0  4G 6G13G 9G11
  22494472.756    22494474.921    46331458.890 8 -42213173.938 8
  20662048.642    20662049.897    -8330121.819 9   3586659.328 9
  20154846.714    20154847.613    21211527.702 7 -61569126.002 8
  22629812.320    22629814.481    45707631.764 9 -42575863.216 8
 86  6 11  2 14  5.0800000  0  4G 6G13G 9G11
  22498329.212    22498330.331    46351720.615 9 -42197385.588 9
  20661389.461    20661391.842    -8333586.185 9   3583959.818 9
  20155816.445    20155816.381    21216622.277 8 -61565156.199 8
  22632853.968    22632856.492    45723613.921 9 -42563409.592 9
 86  6 11  2 14 11.0800000  0  4G 6G13G 9G11
  22502187.199    22502188.892    46371997.056 9 -42181585.769 8
  20660734.804    20660735.821    -8337032.428 9   3581274.439 9
  20156790.412    20156790.957    21221742.680 8 -61561166.284 8
  22635895.365    22635898.814    45739600.372 9 -42550952.623 9
 86  6 11  2 14 17.0800000  0  4G 6G13G 9G11
  22506048.964    22506050.197    46392288.167 8 -42165774.519 9
  20660080.780    20660083.442    -8340460.500 9   3578603.219 8
  20157771.174    20157770.832    21226888.933 8 -61557156.213 7
  22638938.758    22638941.692    45755591.070 9 -42538492.346 8
 86  6 11  2 14 23.0800000  0  4G 6G13G 9G11
  22509912.216    22509915.654    46412593.913 9 -42149951.880 9
  20659433.068    20659434.631    -8343870.458 9   3575946.100 8
  20158753.182    20158756.333    21232060.995 8 -61553126.049 7
  22641982.795    22641984.814    45771586.056 9 -42526028.718 8
 86  6 11  2 14 29.0800000  0  4G 6G13G 9G11
  22513779.934    22513780.768    46432914.339 9 -42134117.785 9
  20658787.723    20658789.565    -8347262.293 9   3573303.111 8
  20159743.879    20159745.320    21237258.833 7 -61549075.773 7
  22645027.119    22645029.409    45787585.372 9 -42513561.717 7
 86  6 11  2 14 35.0800000  0  4G 6G13G 9G11
  22517649.039    22517651.547    46453249.373 9 -42118272.325 9
  20658145.602    20658147.290    -8350636.051 9   3570674.224 9
  20160737.644    20160740.141    21242482.616 8 -61545005.301 8
  22648072.028    22648074.699    45803588.953 9 -42501091.406 9
 86  6 11  2 14 41.0800000  0  4G 6G13G 9G11
  22521522.051    22521521.839    46473598.989 9 -42102415.487 8
  20657506.270    20657508.284    -8353991.788 9   3568059.357 9
  20161735.864    20161736.855    21247732.235 8 -61540914.688 8
  22651118.864    22651122.521    45819596.731 9 -42488617.823 9
 86  6 11  2 14 47.0800000  0  4G 6G13G 9G11
  22525396.193    22525398.829    46493963.135 9 -42086547.334 7
  20656871.213    20656872.229    -8357329.433 9   3565458.606 9
  20162741.477    20162742.293    21253007.581 7 -61536804.040 7
  22654165.384    22654167.888    45835608.663 9 -42476140.993 8
 86  6 11  2 14 53.0800000  0  4G 6G13G 9G11
  22529274.542    22529276.735    46514341.885 9 -42070667.804 9
  20656240.518    20656241.344    -8360648.911 9   3562871.998 9
  20163748.638    20163751.205    21258308.809 9 -61532673.211 7
  22657214.258    22657215.675    45851624.830 9 -42463660.861 9
 86  6 11  2 14 59.0800000  0  4G 6G13G 9G11
  22533155.838    22533157.988    46534735.188 9 -42054776.929 9
  20655611.264    20655613.389    -8363950.316 9   3560299.477 9
  20164763.203    20164763.813    21263635.940 8 -61528522.206 8
  22660261.859    22660264.441    45867645.180 9 -42451177.472 8
 86  6 11  2 15  5.0800000  0  4G 6G13G 9G11
  22537039.038    22537040.959    46555143.033 9 -42038874.708 8
  20654986.739    20654988.109    -8367233.631 9   3557741.039 9
  20165781.616    20165782.412    21268988.823 7 -61524351.123 6
  22663311.269    22663313.266    45883669.718 9 -42438690.834 8
 86  6 11  2 15 11.0800000  0  4G 6G13G 9G11
  22540925.157    22540926.591    46575565.351 9 -42022961.224 8
  20654365.123    20654366.350    -8370498.970 9   3555196.623 8
  20166805.459    20166806.729    21274367.571 9 -61520159.890 7
  22666361.860    22666364.879    45899698.414 9 -42426200.949 9
 86  6 11  2 15 17.0800000  0  4G 6G13G 9G11
  22544814.181    22544816.460    46596002.174 9 -42007036.436 9
  20653747.481    20653749.408    -8373746.353 8   3552666.198 8
  20167833.392    20167834.687    21279772.082 9 -61515948.590 7
  22669412.523    22669415.170    45915731.228 9 -42413707.848 8
 86  6 11  2 15 23.0800000  0  4G 6G13G 9G11
  22548706.738    22548708.160    46616453.484 9 -41991100.363 8
  20653132.664    20653135.090    -8376975.748 9   3550149.789 8
  20168867.657    20168868.104    21285202.503 8 -61511717.106 8
  22672463.936    22672467.341    45931768.138 9 -42401211.559 9
 86  6 11  2 15 29.0800000  0  4G 6G13G 9G11
  22552599.699    22552602.864    46636919.186 9 -41975153.067 8
  20652521.505    20652523.263    -8380187.150 8   3547647.393 8
  20169905.709    20169906.429    21290658.651 9 -61507465.536 8
  22675516.816    22675519.336    45947809.160 8 -42388712.061 9
 86  6 11  2 15 35.0800000  0  4G 6G13G 9G11
  22556496.849    22556499.515    46657399.361 9 -41959194.516 9
  20651913.445    20651916.558    -8383380.537 9   3545159.043 9
  20170948.288    20170948.789    21296140.674 8 -61503193.848 7
  22678570.197    22678572.116    45963854.356 8 -42376209.313 8
 86  6 11  2 15 41.0800000  0  4G 6G13G 9G11
  22560398.021    22560399.083    46677893.921 9 -41943224.732 9
  20651309.678    20651311.465    -8386555.905 9   3542684.739 9
  20171996.761    20171997.592    21301648.522 8 -61498902.015 9
  22681623.794    22681627.149    45979903.631 9 -42363703.388 8
 86  6 11  2 15 47.0800000  0  4G 6G13G 9G11
  22564299.909    22564302.144    46698402.879 9 -41927243.737 9
  20650708.304    20650710.061    -8389713.295 9   3540224.435 9
  20173049.607    20173050.809    21307182.175 8 -61494590.083 7
  22684679.621    22684681.289    45995956.922 9 -42351194.329 9
 86  6 11  2 15 53.0800000  0  4G 6G13G 9G11
  22568205.889    22568208.125    46718926.230 9 -41911251.524 8
  20650112.012    20650113.950    -8392852.653 9   3537778.180 8
  20174107.668    20174108.630    21312741.593 8 -61490258.075 8
  22687734.105    22687737.354    46012014.249 9 -42338682.132 9
 86  6 11  2 15 59.0800000  0  4G 6G13G 9G11
  22572115.361    22572115.594    46739463.941 9 -41895248.124 9
  20649517.746    20649519.180    -8395974.061 9   3535345.920 9
  20175169.309    20175170.729    21318326.931 8 -61485905.864 7
  22690790.535    22690794.591    46028075.642 8 -42326166.768 8
 86  6 11  2 16  5.0800000  0  4G 6G13G 9G11
  22576024.203    22576027.926    46760015.916 9 -41879233.613 8
  20648926.433    20648928.283    -8399077.590 9   3532927.589 8
  20176239.053    20176238.668    21323938.009 7 -61481533.592 7
  22693849.167    22693850.883    46044141.034 8 -42313648.290 8
 86  6 11  2 16 11.0800000  0  4G 6G13G 9G11
  22579938.353    22579939.943    46780582.252 9 -41863207.911 8
  20648338.916    20648340.834    -8402163.184 9   3530523.226 8
  20177311.552    20177311.295    21329574.951 8 -61477141.186 7
  22696905.595    22696908.416    46060210.411 8 -42301126.698 8
 86  6 11  2 16 17.0800000  0  4G 6G13G 9G11
  22583855.294    22583856.543    46801162.879 9 -41847171.063 8
  20647755.294    20647757.625    -8405230.779 9   3528132.889 9
  20178389.307    20178388.680    21335237.669 7 -61472728.675 8
  22699965.710    22699967.842    46076283.762 9 -42288602.021 9
 86  6 11  2 16 23.0800000  0  4G 6G13G 9G11
  22587773.910    22587776.317    46821757.775 9 -41831123.102 9
  20647175.665    20647178.408    -8408280.398 9   3525756.558 8
  20179472.033    20179471.933    21340926.163 9 -61468296.079 7
  22703024.650    22703026.553    46092361.065 9 -42276074.252 9
 86  6 11  2 16 29.0800000  0  4G 6G13G 9G11
  22591695.988    22591698.187    46842366.931 9 -41815064.031 9
  20646598.606    20646601.769    -8411312.042 9   3523394.243 8
  20180559.529    20180559.938    21346640.624 7 -61463843.267 7
  22706084.025    22706086.103    46108442.348 9 -42263543.386 8
 86  6 11  2 16 35.0800000  0  4G 6G13G 9G11
  22595620.984    22595622.737    46862990.347 9 -41798993.845 9
  20646025.111    20646026.532    -8414325.782 9   3521045.880 9
  20181650.277    20181652.016    21352380.764 8 -61459370.423 9
  22709144.920    22709146.795    46124527.518 9 -42251009.491 8
 86  6 11  2 16 41.0800000  0  4G 6G13G 9G11
  22599547.537    22599549.967    46883627.930 9 -41782912.628 9
  20645454.543    20645456.751    -8417321.648 9   3518711.431 8
  20182749.208    20182748.758    21358146.759 8 -61454877.447 8
  22712207.266    22712209.184    46140616.605 9 -42238472.549 9
 86  6 11  2 16 47.0800000  0  4G 6G13G 9G11
  22603477.911    22603479.903    46904279.745 9 -41766820.308 8
  20644887.860    20644888.729    -8420299.643 9   3516390.934 8
  20183850.488    20183850.222    21363938.539 7 -61450364.367 8
  22715269.933    22715272.010    46156709.599 9 -42225932.556 9
 86  6 11  2 16 53.0800000  0  4G 6G13G 9G11
  22607410.660    22607411.870    46924945.708 9 -41750716.972 8
  20644325.064    20644326.821    -8423259.740 9   3514084.357 8
  20184955.873    20184958.127    21369756.213 7 -61445831.123 7
  22718331.443    22718335.100    46172806.529 9 -42213389.503 8
 86  6 11  2 16 59.0800000  0  4G 6G13G 9G11
  22611346.056    22611348.331    46945625.867 8 -41734602.577 8
  20643765.361    20643766.988    -8426201.870 9   3511791.791 9
  20186068.798    20186069.749    21375599.575 8 -61441277.862 7
  22721396.629    22721398.755    46188907.314 9 -42200843.437 8
 86  6 11  2 17  5.0800000  0  4G 6G13G 9G11
  22615284.025    22615285.062    46966320.118 9 -41718477.196 9
  20643208.958    20643211.101    -8429126.105 9   3509513.157 8
  20187185.802    20187187.441    21381468.764 8 -61436704.472 7
  22724461.673    22724463.276    46205011.873 9 -42188294.443 9
 86  6 11  2 17 11.0800000  0  4G 6G13G 9G11
  22619224.708    22619225.878    46987028.490 9 -41702340.808 9
  20642656.108    20642658.133    -8432032.495 9   3507248.447 8
  20188307.700    20188308.738    21387363.686 8 -61432111.025 7
  22727527.208    22727529.155    46221120.267 8 -42175742.448 9
 86  6 11  2 17 17.0800000  0  4G 6G13G 9G11
  22623167.734    22623168.110    47007750.950 9 -41686193.446 7
  20642106.463    20642107.887    -8434921.081 9   3504997.611 9
  20189434.405    20189436.043    21393284.439 8 -61427497.450 7
  22730592.489    22730594.964    46237232.493 9 -42163187.469 8
 86  6 11  2 17 23.0800000  0  4G 6G13G 9G11
  22627114.063    22627114.870    47028487.480 9 -41670035.119 8
  20641559.849    20641561.658    -8437791.858 8   3502760.640 8
  20190565.118    20190566.612    21399230.948 8 -61422863.813 7
  22733659.414    22733661.446    46253348.480 9 -42150629.562 9
 86  6 11  2 17 29.0800000  0  4G 6G13G 9G11
  22631062.556    22631064.891    47049238.072 9 -41653865.837 8
  20641016.413    20641018.886    -8440644.780 9   3500537.586 8
  20191702.655    20191703.020    21405203.239 8 -61418210.091 8
  22736727.097    22736728.893    46269468.234 9 -42138068.723 9
 86  6 11  2 17 35.0800000  0  4G 6G13G 9G11
  22635013.764    22635015.569    47070002.679 9 -41637685.638 8
  20640477.683    20640479.225    -8443479.922 9   3498328.377 8
  20192842.870    20192844.436    21411201.382 8 -61413536.208 8
  22739794.687    22739797.034    46285591.747 9 -42125504.951 8
 86  6 11  2 17 41.0800000  0  4G 6G13G 9G11
  22638967.823    22638970.509    47090781.270 9 -41621494.538 9
  20639940.898    20639943.199    -8446297.274 9   3496133.037 8
  20193991.724    20193991.432    21417225.239 8 -61408842.297 8
  22742863.572    22742866.034    46301718.995 9 -42112938.281 8
 86  6 11  2 17 47.0800000  0  4G 6G13G 9G11
  22642924.733    22642926.714    47111573.929 9 -41605292.472 8
  20639409.162    20639410.093    -8449096.810 9   3493951.590 8
  20195141.668    20195143.236    21423274.878 7 -61404128.292 8
  22745934.267    22745935.843    46317849.947 9 -42100368.704 8
 86  6 11  2 17 53.0800000  0  4G 6G13G 9G11
  22646883.503    22646885.298    47132380.556 9 -41589079.531 8
  20638879.662    20638882.050    -8451878.449 9   3491784.083 8
  20196296.492    20196298.675    21429350.309 7 -61399394.194 8
  22749004.004    22749005.894    46333984.662 9 -42087796.216 8
 86  6 11  2 17 59.0800000  0  4G 6G13G 9G11
  22650845.915    22650846.941    47153201.143 9 -41572855.715 9
  20638352.557    20638355.308    -8454642.268 9   3489630.443 9
  20197458.827    20197458.806    21435451.551 8 -61394639.981 8
  22752075.266    22752076.939    46350123.065 9 -42075220.837 9
 86  6 11  2 18  5.0800000  0  4G 6G13G 9G11
  22654810.745    22654813.002    47174035.665 9 -41556621.027 8
  20637830.744    20637832.861    -8457388.280 9   3487490.713 9
  20198623.223    20198625.119    21441578.488 8 -61389865.743 7
  22755146.640    22755148.015    46366265.204 8 -42062642.547 9
 86  6 11  2 18 11.0800000  0  4G 6G13G 9G11
  22658777.944    22658779.946    47194884.110 9 -41540375.493 9
  20637311.334    20637313.809    -8460116.568 9   3485364.781 8
  20199794.387    20199796.384    21447731.254 8 -61385071.385 8
  22758219.153    22758220.627    46382410.958 8 -42050061.453 9
 86  6 11  2 18 17.0800000  0  4G 6G13G 9G11
  22662747.878    22662749.878    47215746.453 9 -41524119.132 8
  20636796.263    20636797.104    -8462827.002 8   3483252.755 8
  20200970.116    20200971.885    21453909.835 8 -61380256.914 8
  22761292.638    22761293.769    46398560.405 9 -42037477.473 8
 86  6 11  2 18 23.0800000  0  4G 6G13G 9G11
  22666721.169    22666723.307    47236622.671 9 -41507851.967 9
  20636283.612    20636286.169    -8465519.732 9   3481154.512 8
  20202151.154    20202153.708    21460114.166 8 -61375422.373 7
  22764365.931    22764368.321    46414713.477 9 -42024890.674 9
 86  6 11  2 18 29.0800000  0  4G 6G13G 9G11
  22670696.029    22670697.528    47257512.721 9 -41491574.011 9
  20635773.976    20635776.551    -8468194.666 9   3479070.161 9
  20203336.012    20203338.452    21466344.276 8 -61370567.746 7
  22767440.275    22767442.822    46430870.237 9 -42012300.985 8
 86  6 11  2 18 35.0800000  0  4G 6G13G 9G11
  22674673.056    22674675.701    47278416.667 9 -41475285.235 9
  20635269.455    20635270.567    -8470851.839 9   3476999.637 8
  20204527.067    20204528.546    21472600.137 7 -61365693.050 8
  22770515.928    22770518.461    46447030.597 9 -41999708.511 9
 86  6 11  2 18 41.0800000  0  4G 6G13G 9G11
  22678655.039    22678655.976    47299334.422 8 -41458985.689 9
  20634766.426    20634768.780    -8473491.377 8   3474942.853 9
  20205720.582    20205725.024    21478881.773 8 -61360798.264 7
  22773591.768    22773593.743    46463194.565 9 -41987113.218 9
 86  6 11  2 18 47.0800000  0  4G 6G13G 9G11
  22682636.847    22682640.445    47320265.967 9 -41442675.422 8
  20634267.174    20634269.429    -8476113.233 9   3472899.855 8
  20206922.725    20206924.077    21485189.173 8 -61355883.418 7
  22776668.223    22776670.284    46479362.127 9 -41974515.121 9
 86  6 11  2 18 53.0800000  0  4G 6G13G 9G11
  22686623.102    22686625.078    47341211.302 9 -41426354.380 8
  20633770.895    20633773.589    -8478717.327 9   3470870.688 9
  20208128.102    20208129.140    21491522.253 8 -61350948.546 7
  22779745.937    22779748.420    46495533.245 8 -41961914.255 9
 86  6 11  2 18 59.0800000  0  4G 6G13G 9G11
  22690611.942    22690613.316    47362170.326 9 -41410022.685 9
  20633279.647    20633281.971    -8481303.780 9   3468855.279 9
  20209337.658    20209339.526    21497881.083 8 -61345993.619 7
  22782823.058    22782825.898    46511707.837 9 -41949310.688 9
 86  6 11  2 19  5.0800000  0  4G 6G13G 9G11
  22694603.148    22694603.802    47383143.131 9 -41393680.254 9
  20632790.453    20632792.751    -8483872.560 9   3466853.639 9
  20210552.908    20210553.316    21504265.686 9 -61341018.607 7
  22785902.431    22785903.884    46527885.973 9 -41936704.349 9
 86  6 11  2 19 11.0800000  0  4G 6G13G 9G11
  22698596.260    22698597.561    47404129.678 9 -41377327.114 8
  20632304.589    20632307.733    -8486423.655 9   3464865.770 8
  20211771.579    20211775.149    21510676.052 8 -61336023.532 7
  22788980.946    22788983.551    46544067.627 9 -41924095.277 8
 86  6 11  2 19 17.0800000  0  4G 6G13G 9G11
  22702592.034    22702594.334    47425129.907 9 -41360963.307 8
  20631824.301    20631825.253    -8488957.110 9   3462891.643 9
  20212997.706    20212998.270    21517112.133 8 -61331008.383 7
  22792061.129    22792063.469    46560252.754 9 -41911483.491 9
 86  6 11  2 19 23.0800000  0  4G 6G13G 9G11
  22706591.728    22706593.678    47446143.822 9 -41344588.841 8
  20631344.649    20631346.260    -8491472.891 9   3460931.303 9
  20214225.764    20214228.545    21523573.927 8 -61325973.247 7
  22795141.947    22795144.961    46576441.326 9 -41898869.029 8
 86  6 11  2 19 29.0800000  0  4G 6G13G 9G11
  22710592.822    22710594.549    47467171.392 8 -41328203.729 9
  20630869.530    20630870.965    -8493970.998 8   3458984.731 8
  20215460.418    20215463.086    21530061.470 8 -61320918.009 8
  22798222.968    22798225.551    46592633.337 9 -41886251.877 8
 86  6 11  2 19 35.0800000  0  4G 6G13G 9G11
  22714596.731    22714598.519    47488212.577 9 -41311808.006 8
  20630397.116    20630400.243    -8496451.410 9   3457051.922 8
  20216701.196    20216703.063    21536574.774 8 -61315842.707 7
  22801304.918    22801308.109    46608828.836 8 -41873632.018 9
 86  6 11  2 19 41.0800000  0  4G 6G13G 9G11
  22718603.293    22718605.339    47509267.389 9 -41295401.682 8
  20629929.371    20629931.863    -8498914.318 9   3455132.794 9
  20217943.220    20217947.190    21543113.756 8 -61310747.398 7
  22804387.767    22804390.037    46625027.731 9 -41861009.508 9
 86  6 11  2 19 47.0800000  0  4G 6G13G 9G11
  22722612.643    22722613.547    47530335.787 9 -41278984.753 8
  20629463.275    20629465.956    -8501359.564 9   3453227.391 8
  20219194.215    20219196.439    21549678.397 7 -61305632.096 8
  22807470.748    22807472.751    46641230.073 9 -41848384.311 9
 86  6 11  2 19 53.0800000  0  4G 6G13G 9G11
  22726624.514    22726626.070    47551417.764 9 -41262557.252 8
  20629000.974    20629003.425    -8503787.252 9   3451335.692 9
  20220448.215    20220449.668    21556268.858 7 -61300496.663 7
  22810554.551    22810557.426    46657435.829 9 -41835756.450 9
 86  6 11  2 19 59.0800000  0  4G 6G13G 9G11
  22730637.639    22730640.575    47572513.327 9 -41246119.160 8
  20628542.243    20628544.841    -8506197.352 9   3449457.700 9
  20221708.497    20221709.762    21562885.021 8 -61295341.226 7
  22813638.847    22813641.859    46673644.981 8 -41823125.949 9
 86  6 11  2 20  5.0800000  0  4G 6G13G 9G11
  22734655.545    22734657.280    47593622.417 9 -41229670.527 8
  20628087.969    20628089.915    -8508589.802 9   3447593.445 8
  20222970.152    20222973.206    21569526.898 8 -61290165.729 8
  22816723.909    22816726.965    46689857.490 9 -41810492.826 9
 86  6 11  2 20 11.0800000  0  4G 6G13G 9G11
  22738674.307    22738676.531    47614745.027 9 -41213211.367 8
  20627635.573    20627637.966    -8510964.723 9   3445742.852 9
  20224240.179    20224242.918    21576194.475 8 -61284970.213 7
  22819810.044    22819811.640    46706073.361 9 -41797857.099 9
 86  6 11  2 20 17.0800000  0  4G 6G13G 9G11
  22742696.889    22742698.899    47635881.094 9 -41196741.712 8
  20627186.816    20627189.921    -8513322.061 9   3443905.972 9
  20225513.454    20225516.522    21582887.775 8 -61279754.659 8
  22822895.534    22822900.014    46722292.538 9 -41785218.777 9
 86  6 11  2 20 23.0800000  0  4G 6G13G 9G11
  22746721.013    22746724.246    47657030.700 8 -41180261.510 9
  20626741.438    20626743.899    -8515661.881 9   3442082.739 9
  20226792.195    20226794.017    21589606.767 7 -61274519.101 8
  22825982.801    22825986.463    46738515.080 9 -41772577.844 9
 86  6 11  2 20 29.0800000  0  4G 6G13G 9G11
  22750749.165    22750750.456    47678193.719 9 -41163770.858 8
  20626300.088    20626301.397    -8517984.207 9   3440273.137 8
  20228075.200    20228077.581    21596351.436 8 -61269263.510 7
  22829071.303    22829073.393    46754740.870 9 -41759934.373 9
 86  6 11  2 20 35.0800000  0  4G 6G13G 9G11
  22754779.374    22754779.684    47699370.209 9 -41147269.710 8
  20625861.205    20625863.480    -8520288.929 9   3438477.252 8
  20229363.999    20229365.636    21603121.813 7 -61263987.894 7
  22832159.377    22832161.802    46770969.989 9 -41747288.312 8
 86  6 11  2 20 41.0800000  0  4G 6G13G 9G11
  22758810.356    22758811.272    47720560.128 9 -41130758.092 8
  20625425.908    20625429.156    -8522576.091 9   3436695.039 7
  20230657.764    20230658.328    21609917.926 8 -61258692.223 7
  22835248.367    22835251.516    46787202.417 9 -41734639.676 9
 86  6 11  2 20 47.0800000  0  4G 6G13G 9G11
  22762845.819    22762848.363    47741763.438 9 -41114236.045 9
  20624993.790    20624996.579    -8524845.718 8   3434926.515 9
  20231954.363    20231956.659    21616739.727 8 -61253376.532 7
  22838337.972    22838340.406    46803438.127 9 -41721988.491 9
 86  6 11  2 20 53.0800000  0  4G 6G13G 9G11
  22766882.654    22766885.611    47762980.161 9 -41097703.534 8
  20624565.846    20624568.200    -8527097.776 9   3433171.661 8
  20233258.002    20233260.656    21623587.298 8 -61248040.772 7
  22841427.884    22841430.804    46819677.071 9 -41709334.772 9
 86  6 11  2 20 59.0800000  0  4G 6G13G 9G11
  22770923.108    22770924.809    47784210.282 9 -41081160.607 8
  20624139.788    20624142.887    -8529332.254 9   3431430.502 8
  20234566.619    20234568.144    21630460.514 8 -61242685.021 7
  22844518.627    22844521.303    46835919.276 9 -41696678.503 8
 86  6 11  2 21  5.0800000  0  4G 6G13G 9G11
  22774964.560    22774967.954    47805453.730 9 -41064607.279 8
  20623718.685    20623720.717    -8531549.224 9   3429703.007 8
  20235879.561    20235881.957    21637359.482 8 -61237309.197 9
  22847610.057    22847614.178    46852164.733 9 -41684019.710 9
 86  6 11  2 21 11.0800000  0  4G 6G13G 9G11
  22779010.910    22779012.633    47826710.506 9 -41048043.570 8
  20623299.642    20623302.209    -8533748.743 9   3427989.106 8
  20237197.494    20237198.174    21644284.091 7 -61231913.406 6
  22850702.538    22850705.593    46868413.394 9 -41671358.426 8
 86  6 11  2 21 17.0800000  0  4G 6G13G 9G11
  22783058.064    22783060.045    47847980.534 9 -41031469.536 8
  20622884.748    20622886.418    -8535930.844 9   3426288.758 9
  20238520.207    20238522.862    21651234.311 8 -61226497.642 7
  22853794.869    22853796.822    46884665.226 9 -41658694.667 9
 86  6 11  2 21 23.0800000  0  4G 6G13G 9G11
  22787106.875    22787110.385    47869263.848 9 -41014885.140 8
  20622472.383    20622475.196    -8538095.434 9   3424602.075 8
  20239847.742    20239849.466    21658210.163 8 -61221061.916 7
  22856887.972    22856890.785    46900920.224 9 -41646028.434 9
 86  6 11  2 21 29.0800000  0  4G 6G13G 9G11
  22791160.154    22791162.118    47890560.437 9 -40998290.409 8
  20622064.506    20622065.887    -8540242.518 9   3422929.021 9
  20241179.699    20241180.362    21665211.756 8 -61215606.141 9
  22859982.857    22859984.861    46917178.409 8 -41633359.732 9
 86  6 11  2 21 35.0800000  0  4G 6G13G 9G11
  22795214.982    22795218.033    47911870.265 9 -40981685.352 8
  20621659.098    20621660.636    -8542372.147 8   3421269.570 9
  20242517.836    20242519.532    21672238.950 8 -61210130.404 7
  22863076.097    22863079.159    46933439.795 8 -41620688.524 9
 86  6 11  2 21 41.0800000  0  4G 6G13G 9G11
  22799273.906    22799274.801    47933193.293 9 -40965070.018 8
  20621257.416    20621259.105    -8544484.354 9   3419623.688 8
  20243859.323    20243860.103    21679291.774 8 -61204634.706 7
  22866170.983    22866174.545    46949704.273 9 -41608014.908 9
 86  6 11  2 21 47.0800000  0  4G 6G13G 9G11
  22803333.345    22803335.398    47954529.540 9 -40948444.393 9
  20620858.374    20620861.420    -8546579.149 9   3417991.386 8
  20245205.661    20245207.255    21686370.278 8 -61199118.990 7
  22869266.919    22869270.583    46965971.851 9 -41595338.876 9
 86  6 11  2 21 53.0800000  0  4G 6G13G 9G11
  22807397.195    22807398.053    47975878.903 9 -40931808.527 9
  20620463.238    20620464.891    -8548656.561 9   3416372.629 9
  20246557.565    20246559.846    21693474.448 8 -61193583.267 7
  22872363.736    22872366.125    46982242.530 9 -41582660.438 9
 86  6 11  2 21 59.0800000  0  4G 6G13G 9G11
  22811461.477    22811463.394    47997241.473 8 -40915162.374 7
  20620071.428    20620073.392    -8550716.568 9   3414767.435 8
  20247915.462    20247914.441    21700604.290 7 -61188027.540 8
  22875460.159    22875462.477    46998516.275 8 -41569979.600 9
 86  6 11  2 22  5.0800000  0  4G 6G13G 9G11
  22815528.537    22815530.871    48018617.162 9 -40898506.008 9
  20619682.447    20619684.163    -8552759.274 9   3413175.715 8
  20249275.782    20249277.935    21707759.771 8 -61182451.860 7
  22878557.706    22878559.553    47014793.082 9 -41557296.389 8
 86  6 11  2 22 11.0800000  0  4G 6G13G 9G11
  22819598.828    22819602.234    48040005.940 9 -40881839.444 8
  20619296.331    20619299.665    -8554784.663 9   3411597.485 9
  20250642.810    20250645.550    21714940.830 8 -61176856.220 7
  22881655.932    22881658.551    47031072.940 8 -41544610.791 9
 86  6 11  2 22 17.0800000  0  4G 6G13G 9G11
  22823671.343    22823673.384    48061407.850 9 -40865162.628 8
  20618915.631    20618918.010    -8556792.656 9   3410032.818 9
  20252014.102    20252015.426    21722147.580 7 -61171240.567 7
  22884754.214    22884757.078    47047355.858 9 -41531922.805 9
 86  6 11  2 22 23.0800000  0  4G 6G13G 9G11
  22827745.965    22827749.014    48082822.830 9 -40848475.656 9
  20618537.424    20618537.875    -8558783.268 9   3408481.691 9
  20253391.476    20253392.742    21729379.875 8 -61165605.021 8
  22887853.356    22887855.247    47063641.849 8 -41519232.426 9
 86  6 11  2 22 29.0800000  0  4G 6G13G 9G11
  22831823.442    22831825.285    48104250.828 9 -40831778.520 8
  20618160.898    20618162.856    -8560756.515 9   3406944.100 9
  20254771.783    20254772.378    21736637.826 8 -61159949.476 8
  22890953.143    22890955.691    47079930.862 9 -41506539.698 9
 86  6 11  2 22 35.0800000  0  4G 6G13G 9G11
  22835904.765    22835906.671    48125691.905 9 -40815071.203 9
  20617788.564    20617789.744    -8562712.407 9   3405420.033 9
  20256158.000    20256159.310    21743921.465 9 -61154273.918 8
  22894052.535    22894055.906    47096222.813 9 -41493844.683 8
 86  6 11  2 22 41.0800000  0  4G 6G13G 9G11
  22839986.826    22839989.084    48147145.953 9 -40798353.764 9
  20617420.030    20617421.944    -8564650.993 9   3403909.448 8
  20257548.983    20257549.505    21751230.728 7 -61148578.388 7
  22897154.067    22897156.701    47112517.703 9 -41481147.364 9
 86  6 11  2 22 47.0800000  0  4G 6G13G 9G11
  22844072.179    22844074.530    48168613.045 8 -40781626.178 8
  20617053.675    20617056.278    -8566572.283 9   3402412.334 9
  20258945.245    20258946.539    21758565.536 8 -61142862.965 7
  22900255.863    22900257.868    47128815.619 9 -41468447.702 9
 86  6 11  2 22 53.0800000  0  4G 6G13G 9G11
  22848159.857    22848161.826    48190093.064 9 -40764888.518 8
  20616692.099    20616694.007    -8568476.196 9   3400928.766 8
  20260346.543    20260346.122    21765925.947 8 -61137127.581 7
  22903357.826    22903360.573    47145116.460 9 -41455745.754 8
 86  6 11  2 22 59.0800000  0  4G 6G13G 9G11
  22852249.310    22852250.873    48211586.013 8 -40748140.768 9
  20616333.099    20616335.454    -8570362.798 9   3399458.696 8
  20261751.248    20261751.370    21773311.960 8 -61131372.239 7
  22906460.580    22906462.655    47161420.173 8 -41443041.565 9
 86  6 11  2 23  5.0800000  0  4G 6G13G 9G11
  22856341.682    22856344.117    48233091.856 8 -40731382.988 9
  20615977.499    20615979.044    -8572232.161 9   3398002.040 9
  20263161.948    20263162.485    21780723.505 8 -61125597.023 7
  22909562.792    22909565.352    47177726.786 9 -41430335.122 9
 86  6 11  2 23 11.0800000  0  4G 6G13G 9G11
  22860436.260    22860438.593    48254610.619 9 -40714615.125 8
  20615625.049    20615626.250    -8574084.187 9   3396558.903 8
  20264576.970    20264578.008    21788160.655 8 -61119801.854 7
  22912666.262    22912669.046    47194036.296 9 -41417626.414 9
 86  6 11  2 23 17.0800000  0  4G 6G13G 9G11
  22864534.421    22864538.018    48276142.270 9 -40697837.231 8
  20615275.396    20615278.415    -8575918.944 9   3395129.224 8
  20265996.585    20265998.280    21795623.445 8 -61113986.686 7
  22915770.884    22915772.967    47210348.737 8 -41404915.437 9
 86  6 11  2 23 23.0800000  0  4G 6G13G 9G11
  22868633.229    22868635.241    48297686.796 9 -40681049.300 8
  20614929.682    20614932.350    -8577736.449 9   3393712.992 8
  20267421.179    20267422.703    21803111.722 9 -61108151.678 7
  22918875.393    22918876.524    47226664.022 9 -41392202.219 9
 86  6 11  2 23 29.0800000  0  4G 6G13G 9G11
  22872736.006    22872739.074    48319244.166 8 -40664251.359 8
  20614586.759    20614589.188    -8579536.797 9   3392310.123 8
  20268852.469    20268852.190    21810625.610 9 -61102296.690 8
  22921979.500    22921983.571    47242982.167 9 -41379486.794 9
 86  6 11  2 23 35.0800000  0  4G 6G13G 9G11
  22876840.765    22876843.903    48340814.381 9 -40647443.416 9
  20614247.577    20614249.641    -8581319.882 9   3390920.716 8
  20270286.509    20270288.518    21818165.051 8 -61096421.802 7
  22925085.840    22925088.738    47259303.163 9 -41366769.146 8
 86  6 11  2 23 41.0800000  0  4G 6G13G 9G11
  22880947.936    22880951.173    48362397.353 8 -40630625.515 8
  20613911.938    20613913.955    -8583085.757 9   3389544.703 9
  20271726.070    20271728.453    21825730.079 7 -61090526.985 7
  22928192.880    22928195.613    47275626.980 9 -41354049.293 9
 86  6 11  2 23 47.0800000  0  4G 6G13G 9G11
  22885057.686    22885059.858    48383993.152 8 -40613797.638 8
  20613578.154    20613579.595    -8584834.391 9   3388182.138 8
  20273170.340    20273170.247    21833320.654 9 -61084612.239 6
  22931299.155    22931301.209    47291953.646 9 -41341327.219 8
 86  6 11  2 23 53.0800000  0  4G 6G13G 9G11
  22889170.666    22889171.704    48405601.732 9 -40596959.797 8
  20613249.339    20613251.500    -8586565.813 9   3386832.980 9
  20274620.519    20274621.314    21840936.813 9 -61078677.580 8
  22934406.955    22934409.766    47308283.095 8 -41328602.984 9
 86  6 11  2 23 59.0800000  0  4G 6G13G 9G11
  22893284.145    22893286.830    48427223.060 9 -40580112.025 8
  20612922.896    20612925.432    -8588280.054 9   3385497.205 9
  20276073.589    20276075.900    21848578.437 8 -61072723.078 8
  22937514.539    22937517.044    47324615.315 9 -41315876.578 8
 86  6 11  2 24  5.0800000  0  4G 6G13G 9G11
  22897401.572    22897403.063    48448857.110 9 -40563254.336 9
  20612600.593    20612602.005    -8589977.084 9   3384174.853 9
  20277533.598    20277534.807    21856245.668 8 -61066748.610 7
  22940622.224    22940625.815    47340950.358 9 -41303147.981 9
 86  6 11  2 24 11.0800000  0  4G 6G13G 9G11
  22901520.494    22901522.021    48470503.867 9 -40546386.740 8
  20612280.589    20612282.276    -8591656.933 9   3382865.879 9
  20278996.999    20278998.123    21863938.454 8 -61060754.235 7
  22943731.067    22943734.788    47357288.189 8 -41290417.201 9
 86  6 11  2 24 17.0800000  0  4G 6G13G 9G11
  22905641.825    22905644.099    48492163.332 8 -40529509.247 8
  20611964.012    20611966.179    -8593319.607 9   3381570.284 8
  20280464.808    20280467.047    21871656.788 9 -61054739.966 8
  22946841.463    22946844.268    47373628.795 8 -41277684.272 8
 86  6 11  2 24 23.0800000  0  4G 6G13G 9G11
  22909766.888    22909769.899    48513835.462 9 -40512621.885 8
  20611651.141    20611653.845    -8594965.081 9   3380288.103 9
  20281939.569    20281940.034    21879400.617 8 -61048705.798 8
  22949952.038    22949955.073    47389972.147 8 -41264949.191 8
 86  6 11  2 24 29.0800000  0  4G 6G13G 9G11
  22913892.346    22913895.136    48535520.228 8 -40495724.678 8
  20611340.868    20611344.198    -8596593.428 9   3379019.259 8
  20283417.551    20283419.060    21887169.947 8 -61042651.786 8
  22953062.313    22953064.889    47406318.212 8 -41252212.021 9
 86  6 11  2 24 35.0800000  0  4G 6G13G 9G11
  22918022.297    22918023.106    48557217.599 9 -40478817.638 8
  20611033.431    20611036.432    -8598204.637 9   3377763.766 9
  20284900.900    20284901.894    21894964.860 8 -61036577.826 7
  22956172.810    22956176.345    47422666.931 9 -41239472.755 9
 86  6 11  2 24 41.0800000  0  4G 6G13G 9G11
  22922152.295    22922154.914    48578927.620 9 -40461900.763 9
  20610731.278    20610733.020    -8599798.774 9   3376521.580 9
  20286388.470    20286388.732    21902785.253 8 -61030484.006 7
  22959284.930    22959286.283    47439018.376 8 -41226731.376 8
 86  6 11  2 24 47.0800000  0  4G 6G13G 9G11
  22926285.270    22926288.893    48600650.206 9 -40444974.079 8
  20610430.656    20610432.613    -8601375.825 9   3375292.715 8
  20287883.178    20287882.355    21910631.232 9 -61024370.272 7
  22962396.006    22962398.767    47455372.441 9 -41213987.948 8
 86  6 11  2 24 53.0800000  0  4G 6G13G 9G11
  22930421.985    22930423.502    48622385.344 9 -40428037.623 9
  20610134.169    20610136.405    -8602935.704 9   3374077.230 8
  20289380.020    20289381.672    21918502.662 8 -61018236.685 8
  22965509.807    22965511.461    47471729.156 8 -41201242.472 9
 86  6 11  2 24 59.0800000  0  4G 6G13G 9G11
  22934561.194    22934563.541    48644133.004 9 -40411091.395 8
  20609840.061    20609842.094    -8604478.503 9   3372875.049 9
  20290883.701    20290883.680    21926399.596 8 -61012083.234 7
  22968622.101    22968625.298    47488088.524 9 -41188494.917 8
 86  6 11  2 25  5.0800000  0  4G 6G13G 9G11
  22938702.763    22938704.048    48665893.181 8 -40394135.416 9
  20609550.190    20609552.486    -8606004.159 9   3371686.216 9
  20292390.372    20292390.923    21934322.003 8 -61005909.931 8
  22971735.995    22971737.491    47504450.487 8 -41175745.332 8
 86  6 11  2 25 11.0800000  0  4G 6G13G 9G11
  22942845.107    22942847.192    48687665.874 9 -40377169.705 8
  20609262.152    20609265.704    -8607512.748 8   3370510.700 8
  20293902.868    20293903.863    21942269.991 7 -60999716.718 8
  22974850.598    22974852.322    47520815.086 9 -41162993.708 8
 86  6 11  2 25 17.0800000  0  4G 6G13G 9G11
  22946990.372    22946993.380    48709451.033 9 -40360194.256 9
  20608978.697    20608981.051    -8609004.293 9   3369348.455 9
  20295420.787    20295421.753    21950243.340 9 -60993503.710 8
  22977964.893    22977968.391    47537182.308 9 -41150240.032 8
 86  6 11  2 25 23.0800000  0  4G 6G13G 9G11
  22951139.058    22951140.406    48731248.646 9 -40343209.119 8
  20608699.257    20608700.917    -8610478.822 9   3368199.484 9
  20296943.385    20296943.220    21958242.158 7 -60987270.869 7
  22981079.447    22981081.836    47553552.068 9 -41137484.382 9
 86  6 11  2 25 29.0800000  0  4G 6G13G 9G11
  22955289.789    22955290.180    48753058.754 9 -40326214.241 8
  20608420.739    20608424.595    -8611936.268 9   3367063.804 9
  20298470.190    20298468.924    21966266.512 8 -60981018.127 7
  22984196.038    22984198.965    47569924.446 9 -41124726.694 8
 86  6 11  2 25 35.0800000  0  4G 6G13G 9G11
  22959441.420    22959443.310    48774881.266 9 -40309209.695 8
  20608146.764    20608150.263    -8613376.681 9   3365941.409 8
  20300001.302    20300000.808    21974316.273 9 -60974745.592 7
  22987311.042    22987314.470    47586299.332 9 -41111967.040 9
 86  6 11  2 25 41.0800000  0  4G 6G13G 9G11
  22963597.085    22963599.029    48796716.165 9 -40292195.502 9
  20607876.052    20607879.111    -8614800.166 9   3364832.194 8
  20301538.524    20301538.160    21982391.489 8 -60968453.227 8
  22990428.722    22990429.911    47602676.741 8 -41099205.435 9
 86  6 11  2 25 47.0800000  0  4G 6G13G 9G11
  22967754.945    22967756.919    48818563.436 9 -40275171.662 9
  20607609.118    20607611.318    -8616206.647 9   3363736.247 9
  20303079.309    20303080.433    21990492.182 8 -60962140.992 7
  22993544.155    22993547.003    47619056.716 9 -41086441.816 8
 86  6 11  2 25 53.0800000  0  4G 6G13G 9G11
  22971914.667    22971916.073    48840423.035 9 -40258138.223 8
  20607344.452    20607346.373    -8617596.088 9   3362653.562 9
  20304626.248    20304627.484    21998618.388 8 -60955808.884 7
  22996663.201    22996665.283    47635439.226 9 -41073676.236 9
 86  6 11  2 25 59.0800000  0  4G 6G13G 9G11
  22976076.478    22976077.815    48862294.968 9 -40241095.159 9
  20607083.591    20607085.308    -8618968.587 9   3361584.087 9
  20306177.521    20306178.602    22006769.989 8 -60949456.987 7
  22999781.439    22999783.085    47651824.189 9 -41060908.744 9
 86  6 11  2 26  5.0800000  0  4G 6G13G 9G11
  22980240.442    22980241.775    48884179.158 9 -40224042.554 8
  20606825.925    20606827.710    -8620324.142 9   3360527.801 8
  20307733.473    20307732.206    22014946.913 8 -60943085.372 8
  23002900.020    23002901.959    47668211.613 9 -41048139.325 9
 86  6 11  2 26 11.0800000  0  4G 6G13G 9G11
  22984406.900    22984408.665    48906075.653 8 -40206980.350 8
  20606570.313    20606572.419    -8621662.716 9   3359484.758 8
  20309293.834    20309294.227    22023149.321 7 -60936693.884 8
  23006017.907    23006020.355    47684601.462 9 -41035368.008 9
 86  6 11  2 26 17.0800000  0  4G 6G13G 9G11
  22988576.973    22988578.891    48927984.457 9 -40189908.574 8
  20606319.587    20606320.829    -8622984.335 9   3358454.930 9
  20310860.047    20310860.655    22031377.266 9 -60930282.508 8
  23009136.968    23009140.215    47700993.823 9 -41022594.750 8
 86  6 11  2 26 23.0800000  0  4G 6G13G 9G11
  22992748.525    22992750.448    48949905.471 9 -40172827.266 8
  20606071.909    20606073.112    -8624289.030 8   3357438.284 9
  20312430.109    20312429.914    22039630.502 8 -60923851.415 8
  23012257.716    23012260.228    47717388.666 9 -41009819.554 9
 86  6 11  2 26 29.0800000  0  4G 6G13G 9G11
  22996921.317    22996923.342    48971838.783 9 -40155736.400 8
  20605825.522    20605827.322    -8625576.791 9   3356434.832 8
  20314005.535    20314005.929    22047909.095 8 -60917400.569 8
  23015377.213    23015380.326    47733785.956 9 -40997042.451 9
 86  6 11  2 26 35.0800000  0  4G 6G13G 9G11
  23001097.981    23001100.224    48993784.283 9 -40138636.024 8
  20605584.334    20605586.512    -8626847.645 9   3355444.568 8
  20315586.559    20315585.492    22056213.130 9 -60910929.895 7
  23018498.685    23018501.125    47750185.606 9 -40984263.502 8
 86  6 11  2 26 41.0800000  0  4G 6G13G 9G11
  23005276.691    23005278.840    49015741.970 9 -40121526.131 9
  20605345.002    20605346.715    -8628101.488 9   3354467.539 8
  20317170.957    20317171.665    22064542.632 8 -60904439.367 7
  23021618.769    23021622.461    47766587.668 9 -40971482.682 8
 86  6 11  2 26 47.0800000  0  4G 6G13G 9G11
  23009456.902    23009459.113    49037711.820 9 -40104406.781 8
  20605109.766    20605112.023    -8629338.497 9   3353503.631 8
  20318760.937    20318760.901    22072897.494 8 -60897929.076 7
  23024741.049    23024744.283    47782992.117 9 -40958699.999 8
 86  6 11  2 26 53.0800000  0  4G 6G13G 9G11
  23013640.280    23013642.364    49059693.833 9 -40087277.945 9
  20604877.931    20604878.951    -8630558.623 9   3352552.890 9
  20320355.968    20320356.577    22081277.749 9 -60891399.031 7
  23027862.806    23027865.312    47799398.932 9 -40945915.471 9
 86  6 11  2 26 59.0800000  0  4G 6G13G 9G11
  23017825.305    23017827.207    49081687.907 9 -40070139.722 9
  20604648.970    20604650.619    -8631761.897 9   3351615.272 9
  20321954.678    20321954.313    22089683.265 9 -60884849.282 7
  23030984.571    23030988.321    47815808.051 9 -40933129.160 9
 86  6 11  2 27  5.0800000  0  4G 6G13G 9G11
  23022012.446    23022014.872    49103694.092 9 -40052992.054 9
  20604422.538    20604425.493    -8632948.269 9   3350690.830 9
  20323559.466    20323559.030    22098114.229 9 -60878279.697 8
  23034108.832    23034110.944    47832219.465 9 -40920341.049 8
 86  6 11  2 27 11.0800000  0  4G 6G13G 9G11
  23026202.182    23026204.781    49125712.385 9 -40035834.956 8
  20604200.308    20604202.266    -8634117.773 9   3349779.537 9
  20325168.521    20325168.985    22106570.521 8 -60871690.377 8
  23037231.943    23037235.063    47848633.220 9 -40907551.104 9
 86  6 11  2 27 17.0800000  0  4G 6G13G 9G11
  23030395.572    23030397.078    49147742.735 8 -40018668.462 9
  20603981.017    20603982.504    -8635270.457 8   3348881.344 9
  20326784.099    20326783.292    22115052.250 8 -60865081.239 8
  23040356.591    23040359.482    47865049.331 8 -40894759.341 9
 86  6 11  2 27 23.0800000  0  4G 6G13G 9G11
  23034589.121    23034592.848    49169785.104 9 -40001492.616 8
  20603764.927    20603767.137    -8636406.349 9   3347996.223 9
  20328401.654    20328401.375    22123559.237 8 -60858452.426 7
  23043480.625    23043483.407    47881467.684 9 -40881965.834 8
 86  6 11  2 27 29.0800000  0  4G 6G13G 9G11
  23038786.203    23038788.571    49191839.541 9 -39984307.336 9
  20603551.647    20603554.073    -8637525.361 9   3347124.274 9
  20330024.903    20330025.096    22132091.677 9 -60851803.783 7
  23046605.286    23046607.590    47897888.381 9 -40869170.478 8
 86  6 11  2 27 35.0800000  0  4G 6G13G 9G11
  23042985.079    23042987.686    49213905.909 9 -39967112.777 8
  20603341.887    20603343.932    -8638627.567 8   3346265.413 9
  20331653.174    20331654.742    22140649.339 9 -60845135.458 7
  23049730.771    23049733.893    47914311.334 8 -40856373.378 8
 86  6 11  2 27 41.0800000  0  4G 6G13G 9G11
  23047187.033    23047188.775    49235984.222 8 -39949908.909 9
  20603135.876    20603137.632    -8639712.964 8   3345419.650 9
  20333286.826    20333287.591    22149232.345 8 -60838447.408 7
  23052855.385    23052858.512    47930736.588 9 -40843574.484 9
 86  6 11  2 27 47.0800000  0  4G 6G13G 9G11
  23051390.169    23051392.644    49258074.567 9 -39932695.669 8
  20602933.151    20602933.941    -8640781.555 9   3344586.973 9
  20334925.672    20334924.733    22157840.703 9 -60831739.611 7
  23055981.621    23055984.862    47947164.079 9 -40830773.847 8
 86  6 11  2 27 53.0800000  0  4G 6G13G 9G11
  23055596.331    23055598.023    49280176.803 8 -39915473.150 8
  20602732.106    20602734.296    -8641833.398 9   3343767.362 8
  20336566.779    20336568.230    22166474.335 9 -60825012.094 8
  23059108.058    23059111.164    47963593.794 9 -40817971.479 8
 86  6 11  2 27 59.0800000  0  4G 6G13G 9G11
  23059804.464    23059806.370    49302290.977 9 -39898241.346 9
  20602535.362    20602538.102    -8642868.496 9   3342960.798 9
  20338215.269    20338217.653    22175133.309 9 -60818264.847 7
  23062235.696    23062237.493    47980025.666 8 -40805167.425 8
 86  6 11  2 28  5.0800000  0  3G13G 9G11
  20602341.172    20602343.009    -8643886.880 8   3342167.250 8
  20339867.130    20339870.745    22183817.532 9 -60811497.924 7
  23065362.913    23065365.432    47996459.725 9 -40792361.669 9
 86  6 11  2 28 11.0800000  0  3G13G 9G11
  20602150.530    20602152.643    -8644888.478 9   3341386.786 8
  20341525.543    20341526.563    22192527.069 9 -60804711.280 8
  23068490.602    23068493.328    48012895.989 9 -40779554.194 8
 86  6 11  2 28 17.0800000  0  3G13G 9G11
  20601964.165    20601965.172    -8645873.332 9   3340619.364 8
  20343186.429    20343188.482    22201261.861 8 -60797904.952 8
  23071618.564    23071620.445    48029334.411 9 -40766745.032 9
 86  6 11  2 28 23.0800000  0  3G13G 9G11
  20601779.052    20601780.782    -8646841.501 8   3339864.957 8
  20344855.010    20344854.467    22210021.953 9 -60791078.908 8
  23074746.220    23074749.671    48045774.996 9 -40753934.192 9
 86  6 11  2 28 29.0800000  0  3G13G 9G11
  20601598.695    20601600.113    -8647792.964 9   3339123.554 9
  20346526.771    20346527.593    22218807.317 8 -60784233.166 8
  23077875.375    23077879.391    48062217.717 9 -40741121.685 8
 86  6 11  2 28 35.0800000  0  4G12G13G 9G11
                  22004099.859   -26422757.983 9
  20601419.705    20601421.670    -8648727.713 8   3338395.173 9
  20348202.903    20348203.669    22227617.934 9 -60777367.761 8
  23081005.805    23081007.847    48078662.575 8 -40728307.517 9
 86  6 11  2 28 41.0800000  0  4G12G13G 9G11
                  22001148.042   -26438264.951 9
  20601245.304    20601247.452    -8649645.817 9   3337679.783 8
  20349884.212    20349884.597    22236453.745 9 -60770482.721 8
  23084134.867    23084137.224    48095109.533 9 -40715491.711 9
 86  6 11  2 28 47.0800000  0  4G12G13G 9G11
                  21998225.071   -26453757.299 9
  20601074.076    20601075.435    -8650547.246 9   3336977.361 9
  20351570.339    20351571.590    22245314.894 8 -60763577.935 7
  23087264.574    23087268.791    48111558.604 8 -40702674.265 8
 86  6 11  2 28 53.0800000  0  4G12G13G 9G11
  21995280.068    21995282.501   -26469234.494 9  33720531.341 8
  20600906.029    20600908.206    -8651432.001 9   3336287.949 8
  20353261.795    20353263.068    22254201.292 9 -60756653.463 7
  23090395.503    23090398.261    48128009.706 9 -40689855.209 9
 86  6 11  2 28 59.0800000  0  4G12G13G 9G11
  21992337.139    21992339.042   -26484696.746 9  33708482.834 9
  20600739.270    20600742.499    -8652300.153 9   3335611.463 8
  20354958.203    20354957.860    22263112.873 8 -60749709.373 8
  23093527.421    23093528.883    48144462.842 9 -40677034.593 8
 86  6 11  2 29  5.0800000  0  4G12G13G 9G11
  21989397.730    21989399.190   -26500144.027 9  33696445.984 8
  20600577.880    20600580.090    -8653151.641 9   3334947.962 9
  20356658.478    20356658.160    22272049.697 9 -60742745.630 7
  23096657.534    23096661.072    48160918.023 8 -40664212.383 9
 86  6 11  2 29 11.0800000  0  4G12G13G 9G11
  21986461.313    21986462.858   -26515576.411 9  33684420.763 8
  20600419.893    20600421.793    -8653986.521 9   3334297.416 8
  20358365.150    20358363.416    22281011.670 8 -60735762.272 8
  23099790.118    23099792.811    48177375.198 9 -40651388.610 8
 86  6 11  2 29 17.0800000  0  4G12G13G 9G11
  21983527.169    21983529.016   -26530993.787 9  33672407.226 9
  20600264.179    20600264.671    -8654804.783 9   3333659.804 9
  20360073.950    20360072.873    22289998.903 9 -60728759.229 8
  23102921.799    23102924.349    48193834.410 9 -40638563.250 8
 86  6 11  2 29 23.0800000  0  4G12G13G 9G11
  21980595.844    21980598.091   -26546396.087 9  33660405.432 9
  20600111.847    20600113.234    -8655606.447 9   3333035.129 8
  20361788.499    20361790.097    22299011.331 8 -60721736.561 8
  23106054.209    23106056.838    48210295.630 9 -40625736.329 9
 86  6 11  2 29 29.0800000  0  4G12G13G 9G11
  21977668.656    21977669.459   -26561783.327 9  33648415.375 9
  20599961.887    20599963.968    -8656391.548 9   3332423.365 8
  20363508.006    20363508.650    22308048.931 9 -60714694.273 8
  23109187.200    23109189.235    48226758.898 9 -40612907.812 9
 86  6 11  2 29 35.0800000  0  4G12G13G 9G11
  21974743.142    21974744.887   -26577155.553 9  33636437.028 9
  20599814.207    20599818.310    -8657160.063 9   3331824.532 9
  20365233.740    20365233.293    22317111.738 8 -60707632.366 8
  23112319.797    23112323.427    48243224.214 9 -40600077.697 9
 86  6 11  2 29 41.0800000  0  4G12G13G 9G11
  21971820.533    21971822.521   -26592512.604 9  33624470.495 8
  20599672.053    20599675.010    -8657911.978 9   3331238.622 8
  20366962.156    20366962.941    22326199.777 9 -60700550.773 7
  23115454.469    23115457.076    48259691.545 9 -40587246.010 9
 86  6 11  2 29 47.0800000  0  4G12G13G 9G11
  21968901.873    21968903.532   -26607854.628 9  33612515.674 8
  20599532.950    20599533.174    -8658647.354 9   3330665.610 8
  20368696.546    20368696.696    22335312.955 8 -60693449.602 8
  23118588.297    23118590.232    48276160.796 9 -40574412.839 8
 86  6 11  2 29 53.0800000  0  4G12G13G 9G11
  21965984.958    21965986.316   -26623181.541 9  33600572.635 9
  20599396.097    20599398.114    -8659366.204 9   3330105.467 8
  20370436.416    20370436.434    22344451.319 8 -60686328.800 7
  23121721.932    23121724.245    48292631.957 8 -40561578.157 9
 86  6 11  2 29 59.0800000  0  4G12G13G 9G11
  21963071.119    21963072.136   -26638493.239 9  33588641.438 9
  20599262.313    20599264.115    -8660068.439 9   3329558.264 8
  20372179.801    20372179.193    22353614.777 9 -60679188.440 7
  23124857.411    23124859.489    48309105.100 9 -40548741.964 9
 86  6 11  2 30  5.0800000  0  4G12G13G 9G11
  21960159.785    21960161.817   -26653789.892 9  33576721.972 8
  20599131.380    20599133.926    -8660754.152 9   3329023.944 8
  20373927.271    20373930.480    22362803.411 8 -60672028.472 6
  23127992.018    23127995.255    48325580.105 9 -40535904.286 9
 86  6 11  2 30 11.0800000  0  4G12G13G 9G11
  21957251.370    21957254.190   -26669071.333 9  33564814.352 9
  20599004.243    20599006.420    -8661423.345 9   3328502.494 7
  20375681.364    20375682.185    22372017.194 8 -60664848.905 7
  23131127.857    23131130.248    48342056.988 9 -40523065.168 9
 86  6 11  2 30 17.0800000  0  4G12G13G 9G11
  21954346.533    21954347.933   -26684337.488 9  33552918.652 9
  20598879.903    20598882.402    -8662075.999 9   3327993.947 9
  20377439.200    20377439.769    22381256.143 8 -60657649.728 8
  23134263.121    23134266.173    48358535.749 9 -40510224.577 8
 86  6 11  2 30 23.0800000  0  4G12G13G 9G11
  21951445.058    21951447.318   -26699588.365 9  33541034.852 9
  20598758.765    20598760.698    -8662712.147 9   3327498.236 9
  20379201.879    20379202.486    22390520.205 9 -60650430.979 8
  23137399.633    23137402.633    48375016.390 9 -40497382.516 8
 86  6 11  2 30 29.0800000  0  4G12G13G 9G11
  21948546.430    21948547.017   -26714823.934 9  33529162.981 9
  20598641.325    20598643.546    -8663331.799 9   3327015.393 8
  20380969.601    20380970.458    22399809.378 9 -60643192.668 8
  23140537.102    23140538.371    48391498.933 9 -40484538.990 9
 86  6 11  2 30 35.0800000  0  4G12G13G 9G11
  21945649.134    21945650.780   -26730044.161 9  33517303.071 8
  20598526.348    20598528.504    -8663935.040 9   3326545.338 7
  20382742.530    20382741.014    22409123.754 8 -60635934.713 7
  23143673.562    23143675.919    48407983.335 9 -40471694.008 8
 86  6 11  2 30 41.0800000  0  4G12G13G 9G11
  21942756.030    21942757.775   -26745249.166 9  33505455.011 9
  20598414.504    20598416.791    -8664521.819 9   3326088.109 9
  20384519.300    20384521.134    22418463.113 8 -60628657.295 7
  23146810.373    23146812.894    48424469.567 9 -40458847.596 9
 86  6 11  2 30 47.0800000  0  4G12G13G 9G11
  21939865.701    21939867.318   -26760438.835 9  33493618.919 8
  20598305.817    20598308.486    -8665092.123 9   3325643.716 8
  20386301.502    20386301.788    22427827.529 8 -60621360.353 7
  23149947.878    23149949.899    48440957.610 8 -40445999.769 9
 86  6 11  2 30 53.0800000  0  4G12G13G 9G11
  21936977.892    21936979.666   -26775613.077 9  33481794.832 8
  20598200.441    20598203.433    -8665645.980 9   3325212.135 8
  20388088.445    20388088.737    22437217.081 8 -60614043.816 8
  23153085.505    23153088.713    48457447.488 9 -40433150.517 9
 86  6 11  2 30 59.0800000  0  4G12G13G 9G11
  21934093.029    21934095.678   -26790771.989 9  33469982.692 8
  20598098.030    20598100.768    -8666183.545 9   3324793.262 8
  20389880.599    20389879.325    22446631.663 9 -60606707.775 6
  23156224.340    23156226.368    48473939.121 9 -40420299.898 9
 86  6 11  2 31  5.0800000  0  4G12G13G 9G11
  21931211.816    21931213.175   -26805915.526 9  33458182.547 9
  20597998.777    20598002.031    -8666704.796 9   3324387.098 8
  20391675.773    20391676.327    22456071.312 8 -60599352.216 7
  23159362.139    23159364.982    48490432.527 9 -40407447.902 9
 86  6 11  2 31 11.0800000  0  4G12G13G 9G11
  21928333.149    21928334.652   -26821043.619 9  33446394.422 9
  20597903.110    20597905.190    -8667209.616 8   3323993.735 8
  20393477.618    20393478.323    22465536.069 9 -60591977.081 6
  23162500.725    23162504.870    48506927.670 8 -40394594.539 9
 86  6 11  2 31 17.0800000  0  4G12G13G 9G11
  21925456.545    21925459.134   -26836156.267 9  33434618.329 8
  20597810.246    20597811.344    -8667697.940 8   3323613.214 8
  20395282.787    20395283.105    22475025.836 9 -60584582.468 7
  23165639.489    23165643.169    48523424.552 9 -40381739.840 9
 86  6 11  2 31 23.0800000  0  4G12G13G 9G11
  21922584.446    21922586.735   -26851253.448 9  33422854.297 9
  20597721.247    20597722.821    -8668169.852 9   3323245.486 8
  20397093.022    20397094.558    22484540.691 9 -60577168.288 7
  23168779.999    23168782.963    48539923.258 9 -40368883.707 8
 86  6 11  2 31 29.0800000  0  4G12G13G 9G11
  21919714.365    21919716.655   -26866335.064 9  33411102.392 9
  20597634.368    20597635.437    -8668625.459 9   3322890.477 8
  20398909.237    20398909.616    22494080.615 8 -60569734.591 7
  23171920.202    23171922.508    48556423.700 8 -40356026.214 9
 86  6 11  2 31 35.0800000  0  4G12G13G 9G11
  21916847.690    21916848.920   -26881401.140 9  33399362.589 9
  20597551.444    20597552.427    -8669064.751 8   3322548.169 9
  20400728.583    20400730.055    22503645.469 9 -60562281.462 7
  23175059.137    23175064.305    48572925.824 8 -40343167.424 9
 86  6 11  2 31 41.0800000  0  4G12G13G 9G11
  21913983.548    21913984.879   -26896451.635 9  33387634.919 8
  20597470.044    20597471.915    -8669487.763 9   3322218.541 8
  20402554.431    20402554.879    22513235.299 8 -60554808.857 7
  23178200.089    23178204.008    48589429.609 9 -40330307.339 9
 86  6 11  2 31 47.0800000  0  4G12G13G 9G11
  21911122.654    21911123.441   -26911486.518 9  33375919.434 9
  20597391.766    20597393.750    -8669894.483 8   3321901.628 8
  20404384.598    20404384.075    22522850.164 8 -60547316.766 7
  23181341.352    23181344.488    48605935.075 9 -40317445.935 8
 86  6 11  2 31 53.0800000  0  4G12G13G 9G11
  21908264.150    21908265.723   -26926505.800 9  33364216.102 9
  20597317.931    20597319.968    -8670284.874 9   3321597.421 9
  20406218.750    20406218.349    22532490.011 9 -60539805.198 8
  23184482.691    23184486.136    48622442.193 9 -40304583.254 8
 86  6 11  2 31 59.0800000  0  4G12G13G 9G11
  21905408.363    21905411.182   -26941509.443 9  33352524.956 9
  20597246.746    20597249.449    -8670658.911 9   3321305.970 8
  20408056.773    20408058.822    22542154.901 8 -60532274.121 8
  23187623.867    23187627.919    48638950.982 9 -40291719.266 9
 86  6 11  2 32  5.0800000  0  4G12G13G 9G11
  21902557.114    21902558.702   -26956497.402 9  33340846.026 8
  20597179.367    20597180.119    -8671016.640 9   3321027.209 8
  20409901.228    20409901.936    22551844.694 9 -60524723.618 7
  23190765.808    23190769.431    48655461.427 8 -40278853.992 9
 86  6 11  2 32 11.0800000  0  4G12G13G 9G11
  21899708.154    21899709.455   -26971469.758 9  33329179.249 8
  20597113.961    20597115.872    -8671358.153 9   3320761.097 8
  20411749.443    20411749.842    22561559.448 8 -60517153.695 8
  23193908.836    23193910.986    48671973.469 8 -40265987.469 9
 86  6 11  2 32 17.0800000  0  4G12G13G 9G11
  21896861.640    21896863.129   -26986426.407 9  33317524.721 9
  20597051.676    20597053.169    -8671683.433 9   3320507.646 8
  20413602.310    20413602.340    22571299.180 8 -60509564.308 7
  23197051.084    23197054.286    48688487.150 9 -40253119.658 9
 86  6 11  2 32 23.0800000  0  4G12G13G 9G11
  21894018.275    21894019.691   -27001367.322 9  33305882.451 9
  20596993.352    20596995.010    -8671992.467 9   3320266.838 9
  20415461.110    20415462.587    22581063.883 9 -60501955.442 7
  23200193.155    23200196.291    48705002.481 8 -40240250.583 9
 86  6 11  2 32 29.0800000  0  4G12G13G 9G11
  21891178.916    21891179.716   -27016292.501 9  33294252.440 9
  20596937.388    20596939.100    -8672285.295 9   3320038.657 8
  20417324.035    20417326.617    22590853.548 9 -60494327.140 7
  23203336.604    23203339.591    48721519.380 8 -40227380.279 8
 86  6 11  2 32 35.0800000  0  4G12G13G 9G11
  21888341.059    21888342.806   -27031201.861 9  33282634.752 9
  20596885.038    20596886.406    -8672561.844 9   3319823.171 9
  20419191.434    20419192.958    22600668.154 9 -60486679.402 8
  23206480.042    23206483.600    48738037.857 8 -40214508.727 9
 86  6 11  2 32 41.0800000  0  4G12G13G 9G11
  21885506.923    21885508.955   -27046095.404 9  33271029.393 8
  20596835.545    20596836.708    -8672822.240 9   3319620.258 8
  20421063.730    20421064.184    22610507.691 8 -60479012.246 8
  23209623.470    23209627.293    48754557.977 9 -40201635.920 9
 86  6 11  2 32 47.0800000  0  4G12G13G 9G11
  21882675.492    21882676.937   -27060973.177 9  33259436.329 8
  20596789.227    20596790.431    -8673066.530 9   3319429.904 8
  20422941.433    20422941.739    22620372.077 8 -60471325.701 8
  23212768.222    23212771.108    48771079.630 8 -40188761.904 9
 86  6 11  2 32 53.0800000  0  4G12G13G 9G11
  21879847.566    21879850.100   -27075835.133 9  33247855.583 9
  20596745.498    20596747.779    -8673294.598 9   3319252.182 8
  20424822.996    20424825.087    22630261.340 9 -60463619.783 7
  23215912.289    23215914.752    48787602.791 8 -40175886.734 9
 86  6 11  2 32 59.0800000  0  4G12G13G 9G11
  21877022.531    21877024.291   -27090681.227 9  33236287.209 8
  20596705.518    20596707.047    -8673506.461 9   3319087.098 8
  20426710.900    20426710.487    22640175.487 9 -60455894.482 7
  23219057.284    23219059.784    48804127.490 8 -40163010.339 9
 86  6 11  2 33  5.0800000  0  4G12G13G 9G11
  21874200.243    21874201.803   -27105511.342 9  33224731.266 9
  20596667.152    20596670.276    -8673702.121 8   3318934.649 8
  20428601.602    20428602.084    22650114.622 8 -60448149.706 7
  23222201.794    23222204.523    48820653.674 9 -40150132.802 9
 86  6 11  2 33 11.0800000  0  4G12G13G 9G11
  21871381.547    21871384.579   -27120325.564 9  33213187.718 8
  20596632.891    20596635.838    -8673881.631 9   3318794.765 9
  20430496.217    20430499.300    22660078.530 8 -60440385.630 7
  23225346.581    23225349.039    48837181.379 9 -40137254.067 9
 86  6 11  2 33 17.0800000  0  4G12G13G 9G11
  21868565.612    21868567.214   -27135123.896 9  33201656.551 9
  20596602.133    20596604.826    -8674044.946 9   3318667.510 8
  20432397.898    20432399.915    22670067.322 9 -60432602.153 8
  23228491.763    23228495.287    48853710.538 8 -40124374.213 8
 86  6 11  2 33 23.0800000  0  4G12G13G 9G11
  21865752.553    21865754.943   -27149906.262 9  33190137.815 9
  20596574.770    20596576.655    -8674192.166 9   3318552.794 8
  20434305.009    20434304.186    22680080.955 9 -60424799.334 7
  23231636.889    23231640.512    48870241.161 8 -40111493.208 9
 86  6 11  2 33 29.0800000  0  4G12G13G 9G11
  21862942.428    21862944.389   -27164672.678 9  33178631.524 9
  20596549.636    20596552.006    -8674323.260 9   3318450.640 8
  20436213.565    20436214.498    22690119.467 9 -60416977.117 7
  23234783.666    23234786.817    48886773.216 8 -40098611.080 9
 86  6 11  2 33 35.0800000  0  4G12G13G 9G11
  21860135.151    21860138.212   -27179423.138 9  33167137.657 8
  20596527.257    20596529.588    -8674438.274 9   3318361.017 8
  20438128.614    20438129.475    22700182.792 8 -60409135.560 7
  23237930.185    23237933.272    48903306.758 9 -40085727.821 9
 86  6 11  2 33 41.0800000  0  4G12G13G 9G11
  21857331.036    21857334.213   -27194157.550 9  33155656.299 9
  20596509.216    20596510.918    -8674537.215 9   3318283.923 8
  20440049.770    20440049.487    22710270.973 7 -60401274.636 7
  23241076.211    23241079.442    48919841.735 9 -40072843.417 9
 86  6 11  2 33 47.0800000  0  4G12G13G 9G11
  21854530.612    21854532.301   -27208875.928 9  33144187.445 9
  20596493.307    20596494.576    -8674620.145 9   3318219.309 9
  20441971.531    20441974.738    22720383.960 8 -60393394.394 8
  23244222.960    23244225.382    48936378.109 8 -40059957.942 9
 86  6 11  2 33 53.0800000  0  4G12G13G 9G11
  21851732.535    21851734.939   -27223578.228 9  33132731.094 9
  20596479.804    20596482.564    -8674686.999 9   3318167.219 8
  20443902.895    20443904.000    22730521.799 8 -60385494.784 8
  23247370.082    23247373.347    48952915.916 9 -40047071.341 8
 86  6 11  2 33 59.0800000  0  4G12G13G 9G11
  21848938.808    21848939.724   -27238264.458 9  33121287.289 8
  20596469.934    20596473.141    -8674737.857 9   3318127.585 8
  20445836.313    20445837.125    22740684.389 8 -60377575.894 7
  23250517.517    23250520.411    48969455.029 9 -40034183.717 9
 86  6 11  2 34  5.0800000  0  4G12G13G 9G11
  21846146.841    21846147.914   -27252934.427 9  33109856.142 9
  20596464.024    20596466.655    -8674772.574 9   3318100.536 9
  20447774.526    20447775.921    22750871.909 9 -60369637.572 7
  23253664.602    23253667.603    48985995.638 8 -40021294.940 9
 86  6 11  2 34 11.0800000  0  4G12G13G 9G11
  21843357.822    21843359.598   -27267588.234 9  33098437.589 9
  20596459.945    20596461.318    -8674791.271 9   3318085.962 8
  20449717.056    20449719.306    22761084.132 8 -60361679.993 8
  23256812.103    23256815.160    49002537.617 8 -40008405.081 8
 86  6 11  2 34 17.0800000  0  4G12G13G 9G11
  21840572.824    21840574.913   -27282225.878 9  33087031.632 9
  20596461.351    20596462.065    -8674793.983 9   3318083.853 9
  20451665.531    20451666.056    22771321.192 9 -60353703.062 8
  23259960.238    23259964.462    49019080.975 9 -39995514.172 8
 86  6 11  2 34 23.0800000  0  4G12G13G 9G11
  21837790.359    21837791.718   -27296847.376 9  33075638.256 9
  20596462.897    20596464.029    -8674780.724 9   3318094.193 8
  20453618.831    20453621.129    22781582.951 9 -60345706.893 8
  23263109.226    23263112.399    49035625.655 8 -39982622.207 8
 86  6 11  2 34 29.0800000  0  4G12G13G 9G11
  21835011.342    21835013.187   -27311452.676 9  33064257.496 9
  20596467.786    20596469.567    -8674751.523 9   3318116.948 9
  20455576.000    20455577.510    22791869.426 9 -60337691.448 8
  23266258.428    23266260.479    49052171.616 9 -39969729.252 9
 86  6 11  2 34 35.0800000  0  4G12G13G 9G11
  21832233.771    21832236.289   -27326041.758 9  33052889.387 9
  20596476.229    20596478.836    -8674706.350 9   3318152.139 8
  20457538.956    20457540.025    22802180.562 8 -60329656.811 8
  23269406.423    23269409.825    49068718.837 9 -39956835.314 9
 86  6 11  2 34 41.0800000  0  4G12G13G 9G11
  21829461.006    21829463.567   -27340614.566 9  33041533.944 9
  20596487.526    20596489.596    -8674645.178 9   3318199.810 8
  20459504.477    20459506.874    22812516.431 8 -60321602.892 8
  23272555.518    23272558.370    49085267.369 8 -39943940.366 9
 86  6 11  2 34 47.0800000  0  4G12G13G 9G11
  21826690.933    21826693.508   -27355171.047 9  33030191.234 8
  20596503.212    20596504.606    -8674568.022 9   3318259.929 8
  20461476.513    20461476.986    22822877.095 8 -60313529.644 8
  23275705.602    23275707.937    49101817.293 7 -39931044.322 9
 86  6 11  2 34 53.0800000  0  4G12G13G 9G11
  21823924.121    21823926.254   -27369711.258 9  33018861.210 9
  20596520.554    20596521.791    -8674474.973 9   3318332.438 9
  20463453.009    20463455.145    22833262.421 9 -60305437.183 7
  23278854.612    23278858.671    49118368.392 8 -39918147.361 9
 86  6 11  2 34 59.0800000  0  4G12G13G 9G11
  21821160.659    21821163.493   -27384235.105 9  33007543.922 9
  20596540.501    20596543.712    -8674365.958 9   3318417.389 9
  20465433.916    20465435.340    22843672.496 8 -60297325.458 7
  23282004.615    23282007.795    49134920.769 8 -39905249.408 9
 86  6 11  2 35  5.0800000  0  4G12G13G 9G11
  21818399.442    21818402.334   -27398742.557 9  32996239.431 8
  20596565.135    20596567.183    -8674240.972 9   3318514.770 8
  20467418.440    20467421.126    22854107.256 8 -60289194.478 8
  23285154.311    23285157.792    49151474.407 9 -39892350.476 9
 86  6 11  2 35 11.0800000  0  4G12G13G 9G11
  21815642.490    21815644.550   -27413233.644 9  32984947.674 8
  20596592.107    20596594.249    -8674100.109 9   3318624.537 8
  20469410.157    20469410.626    22864566.731 8 -60281044.237 7
  23288305.174    23288308.447    49168029.282 9 -39879450.572 8
 86  6 11  2 35 17.0800000  0  4G12G13G 9G11
  21812888.400    21812890.861   -27427708.291 9  32973668.719 8
  20596621.820    20596624.413    -8673943.367 9   3318746.678 8
  20471404.462    20471406.389    22875050.755 8 -60272874.874 8
  23291454.399    23291457.892    49184585.371 9 -39866549.722 8
 86  6 11  2 35 23.0800000  0  4G12G13G 9G11
  21810136.556    21810138.516   -27442166.509 9  32962402.584 9
  20596654.238    20596657.634    -8673770.735 9   3318881.191 8
  20473405.019    20473405.885    22885559.514 8 -60264686.226 9
  23294605.483    23294608.956    49201142.686 8 -39853647.915 8
 86  6 11  2 35 29.0800000  0  4G12G13G 9G11
  21807388.618    21807391.238   -27456608.303 9  32951149.234 9
  20596690.962    20596692.767    -8673582.245 9   3319028.070 8
  20475409.984    20475410.992    22896092.821 8 -60256478.462 8
  23297756.760    23297760.491    49217701.164 8 -39840745.204 8
 86  6 11  2 35 35.0800000  0  4G12G13G 9G11
  21804643.356    21804645.590   -27471033.613 9  32939908.740 9
  20596730.523    20596731.106    -8673377.885 9   3319187.319 8
  20477418.218    20477419.670    22906650.841 8 -60248251.443 8
  23300907.638    23300911.711    49234260.869 8 -39827841.547 9
 86  6 11  2 35 41.0800000  0  4G12G13G 9G11
  21801901.673    21801903.518   -27485442.382 9  32928681.132 9
  20596770.772    20596772.996    -8673157.706 9   3319358.878 8
  20479432.050    20479432.791    22917233.551 9 -60240005.172 8
  23304059.207    23304062.045    49250821.748 8 -39814936.964 8
 86  6 11  2 35 47.0800000  0  4G12G13G 9G11
  21799162.006    21799165.053   -27499834.680 9  32917466.358 8
  20596816.035    20596818.710    -8672921.744 9   3319542.748 9
  20481450.760    20481452.240    22927840.780 8 -60231739.804 8
  23307210.344    23307214.382    49267383.793 8 -39802031.477 8
 86  6 11  2 35 53.0800000  0  4G12G13G 9G11
  21796426.947    21796429.738   -27514210.378 9  32906264.520 9
  20596863.245    20596866.977    -8672669.917 9   3319738.977 9
  20483474.590    20483475.401    22938472.613 9 -60223455.262 8
  23310363.330    23310366.869    49283947.005 9 -39789125.080 9
 86  6 11  2 35 59.0800000  0  4G12G13G 9G11
  21793694.620    21793696.796   -27528569.569 9  32895075.533 9
  20596914.940    20596918.040    -8672402.309 9   3319947.504 8
  20485503.000    20485501.745    22949129.107 8 -60215151.495 7
  23313514.816    23313518.747    49300511.285 9 -39776217.847 9
 86  6 11  2 36  5.0800000  0  4G12G13G 9G11
  21790965.571    21790967.947   -27542912.121 9  32883899.517 8
  20596968.996    20596971.953    -8672118.972 9   3320168.287 8
  20487534.772    20487536.608    22959810.224 8 -60206828.568 8
  23316665.858    23316670.368    49317076.650 8 -39763309.759 8
 86  6 11  2 36 11.0800000  0  4G12G13G 9G11
  21788239.526    21788241.616   -27557238.043 9  32872736.476 9
  20597025.317    20597028.146    -8671819.814 9   3320401.403 8
  20489571.890    20489572.609    22970515.854 8 -60198486.517 7
  23319819.332    23319823.385    49333643.161 9 -39750400.806 9
 86  6 11  2 36 17.0800000  0  4G12G13G 9G11
  21785515.930    21785518.663   -27571547.309 9  32861586.390 8
  20597085.698    20597087.070    -8671504.814 9   3320646.852 8
  20491613.579    20491614.945    22981246.138 8 -60190125.262 7
  23322972.112    23322975.184    49350210.791 8 -39737490.961 9
 86  6 11  2 36 23.0800000  0  4G12G13G 9G11
  21782797.183    21782798.285   -27585839.927 9  32850449.284 9
  20597148.896    20597150.943    -8671174.104 9   3320904.545 9
  20493661.167    20493661.316    22992000.935 8 -60181744.904 7
  23326125.121    23326128.215    49366779.511 9 -39724580.276 9
 86  6 11  2 36 29.0800000  0  4G12G13G 9G11
  21780080.439    21780081.970   -27600115.887 9  32839325.169 9
  20597214.366    20597216.994    -8670827.649 9   3321174.518 9
  20495711.757    20495713.409    23002780.181 8 -60173345.495 8
  23329279.031    23329281.953    49383349.248 8 -39711668.800 9
 86  6 11  2 36 35.0800000  0  4G12G13G 9G11
  21777365.929    21777368.490   -27614375.208 9  32828214.007 9
  20597283.429    20597285.435    -8670465.528 9   3321456.696 8
  20497768.030    20497769.085    23013583.986 8 -60164926.949 7
  23332432.233    23332435.305    49399920.031 8 -39698756.488 9
 86  6 11  2 36 41.0800000  0  4G12G13G 9G11
  21774656.611    21774657.698   -27628617.684 9  32817115.983 9
  20597355.534    20597357.212    -8670087.675 9   3321751.126 8
  20499829.283    20499830.728    23024412.413 8 -60156489.226 8
  23335584.891    23335588.679    49416491.894 9 -39685843.358 9
 86  6 11  2 36 47.0800000  0  4G12G13G 9G11
  21771949.584    21771951.173   -27642843.440 9  32806030.973 8
  20597430.112    20597432.761    -8669694.140 9   3322057.767 9
  20501893.849    20501894.335    23035265.308 8 -60148032.420 8
  23338739.983    23338741.918    49433064.805 9 -39672929.403 9
 86  6 11  2 36 53.0800000  0  4G12G13G 9G11
  21769245.305    21769247.050   -27657052.483 9  32794958.990 9
  20597508.225    20597510.125    -8669284.935 9   3322376.642 9
  20503963.670    20503963.555    23046142.596 8 -60139556.611 8
  23341892.806    23341896.422    49449638.706 9 -39660014.677 9
 86  6 11  2 36 59.0800000  0  4G12G13G 9G11
  21766544.730    21766546.304   -27671244.750 9  32783900.094 8
  20597589.095    20597590.385    -8668860.043 9   3322707.717 8
  20506037.763    20506039.640    23057044.412 8 -60131061.701 8
  23345047.503    23345050.546    49466213.638 8 -39647099.134 9
 86  6 11  2 37  5.0800000  0  4G12G13G 9G11
  21763846.474    21763849.451   -27685420.152 9  32772854.329 9
  20597672.772    20597674.880    -8668419.455 8   3323051.040 9
  20508116.497    20508118.847    23067970.675 8 -60122547.738 8
  23348201.077    23348205.366    49482789.576 9 -39634182.838 8
 86  6 11  2 37 11.0800000  0  4G12G13G 9G11
  21761153.155    21761155.029   -27699578.739 9  32761821.659 9
  20597759.849    20597762.492    -8667963.166 9   3323406.589 9
  20510201.067    20510202.445    23078921.531 8 -60114014.596 9
  23351356.641    23351358.983    49499366.455 9 -39621265.767 9
 86  6 11  2 37 17.0800000  0  4G12G13G 9G11
  21758462.425    21758463.843   -27713720.446 9  32750802.151 9
  20597849.940    20597851.849    -8667491.180 9   3323774.366 8
  20512290.282    20512289.662    23089896.771 8 -60105462.463 7
  23354511.038    23354513.495    49515944.273 8 -39608348.002 9
 86  6 11  2 37 23.0800000  0  4G12G13G 9G11
  21755773.413    21755775.460   -27727845.269 9  32739795.800 9
  20597941.848    20597945.116    -8667003.569 9   3324154.331 9
  20514382.604    20514384.159    23100896.581 8 -60096891.199 8
  23357665.284    23357668.471    49532523.037 8 -39595429.491 9
 86  6 11  2 37 29.0800000  0  4G12G13G 9G11
  21753088.752    21753090.940   -27741953.172 9  32728802.627 9
  20598037.287    20598040.833    -8666500.356 9   3324546.451 8
  20516480.141    20516481.761    23111920.656 8 -60088301.017 9
  23360818.772    23360823.262    49549102.752 8 -39582510.222 8
 86  6 11  2 37 35.0800000  0  4G12G13G 9G11
  21750408.081    21750410.055   -27756044.122 9  32717822.677 9
  20598136.357    20598139.492    -8665981.563 9   3324950.705 8
  20518582.680    20518583.402    23122969.175 8 -60079691.779 8
  23363976.181    23363979.761    49565683.424 9 -39569590.221 8
 86  6 11  2 37 41.0800000  0  4G12G13G 9G11
  21747729.659    21747731.432   -27770118.121 9  32706855.927 9
  20598238.137    20598240.812    -8665447.239 9   3325367.054 8
  20520690.624    20520690.427    23134042.060 8 -60071063.558 9
  23367131.967    23367134.281    49582264.975 9 -39556669.541 8
 86  6 11  2 37 47.0800000  0  4G12G13G 9G11
  21745054.641    21745056.242   -27784175.087 9  32695902.446 9
  20598342.455    20598344.979    -8664897.369 9   3325795.529 8
  20522801.295    20522803.962    23145139.369 7 -60062416.306 8
  23370287.301    23370289.959    49598847.395 8 -39543748.171 9
 86  6 11  2 37 53.0800000  0  4G12G13G 9G11
  21742382.742    21742384.545   -27798215.070 9  32684962.200 8
  20598450.611    20598452.921    -8664331.991 9   3326236.083 9
  20524917.870    20524918.711    23156261.014 8 -60053750.092 8
  23373442.019    23373446.274    49615430.739 8 -39530826.081 8
 86  6 11  2 37 59.0800000  0  4G12G13G 9G11
  21739715.208    21739716.825   -27812238.000 9  32674035.245 9
  20598560.072    20598563.455    -8663751.008 8   3326688.799 9
  20527039.416    20527040.206    23167407.065 7 -60045064.871 8
  23376597.584    23376601.207    49632015.022 9 -39517903.264 8
 86  6 11  2 38  5.0800000  0  4G12G13G 9G11
  21737049.205    21737051.509   -27826243.898 9  32663121.562 9
  20598674.581    20598676.502    -8663154.517 9   3327153.598 8
  20529164.280    20529166.308    23178577.513 8 -60036360.619 9
  23379754.349    23379757.543    49648600.158 9 -39504979.788 8
 86  6 11  2 38 11.0800000  0  4G12G13G 9G11
  21734387.109    21734388.883   -27840232.732 9  32652221.175 9
  20598791.577    20598793.372    -8662542.495 9   3327630.507 9
  20531295.238    20531296.300    23189772.243 8 -60027637.464 8
  23382910.491    23382913.607    49665186.148 9 -39492055.633 9
 86  6 11  2 38 17.0800000  0  4G12G13G 9G11
  21731729.190    21731730.407   -27854204.448 9  32641334.125 9
  20598910.583    20598913.307    -8661914.963 9   3328119.486 9
  20533429.810    20533430.386    23200991.312 8 -60018895.340 8
  23386068.279    23386070.672    49681773.026 9 -39479130.797 8
 86  6 11  2 38 23.0800000  0  4G12G13G 9G11
  21729072.846    21729074.592   -27868159.066 9  32630460.393 9
  20599032.719    20599035.064    -8661271.933 9   3328620.550 8
  20535568.571    20535571.148    23212234.694 8 -60010134.254 7
  23389223.464    23389227.345    49698360.732 9 -39466205.311 9
 86  6 11  2 38 29.0800000  0  4G12G13G 9G11
  21726420.894    21726422.584   -27882096.491 9  32619600.069 9
  20599158.522    20599161.693    -8660613.439 9   3329133.661 8
  20537713.632    20537714.297    23223502.448 8 -60001354.204 9
  23392380.737    23392383.402    49714949.228 9 -39453279.214 9
 86  6 11  2 38 35.0800000  0  4G12G13G 9G11
  21723771.404    21723774.038   -27896016.728 9  32608753.132 8
  20599285.723    20599288.948    -8659939.523 9   3329658.793 9
  20539863.107    20539863.293    23234794.474 8 -59992555.223 8
  23395537.602    23395539.423    49731538.445 9 -39440352.549 9
 86  6 11  2 38 41.0800000  0  4G12G13G 9G11
  21721126.436    21721128.582   -27909919.850 9  32597919.535 9
  20599418.419    20599420.192    -8659250.088 9   3330196.024 8
  20542015.666    20542017.926    23246110.807 8 -59983737.303 9
  23398694.467    23398697.567    49748128.493 9 -39427425.244 8
 86  6 11  2 38 47.0800000  0  4G12G13G 9G11
  21718483.171    21718485.818   -27923805.663 9  32587099.419 9
  20599551.623    20599553.554    -8658545.194 9   3330745.296 8
  20544172.762    20544174.739    23257451.477 8 -59974900.425 8
  23401851.634    23401853.783    49764719.334 9 -39414497.311 9
 86  6 11  2 38 53.0800000  0  4G12G13G 9G11
  21715845.600    21715846.572   -27937674.236 9  32576292.744 9
  20599688.738    20599691.047    -8657824.977 9   3331306.502 8
  20546337.202    20546338.371    23268816.337 8 -59966044.703 8
  23405008.528    23405010.992    49781310.928 9 -39401568.801 8
 86  6 11  2 38 59.0800000  0  4G12G13G 9G11
  21713209.373    21713211.106   -27951525.541 9  32565499.518 9
  20599829.893    20599830.912    -8657089.321 9   3331879.735 9
  20548503.599    20548506.203    23280205.487 8 -59957170.043 8
  23408166.279    23408168.780    49797903.278 9 -39388639.693 8
 86  6 11  2 39  5.0800000  0  4G12G13G 9G11
  21710576.354    21710578.500   -27965359.580 9  32554719.757 9
  20599971.527    20599973.596    -8656338.209 9   3332465.033 9
  20550676.038    20550677.604    23291618.883 7 -59948276.493 8
  23411324.124    23411325.223    49814496.403 9 -39375709.989 9
 86  6 11  2 39 11.0800000  0  4G12G13G 9G11
  21707947.627    21707949.329   -27979176.358 9  32543953.434 8
  20600117.397    20600119.601    -8655571.696 9   3333062.308 8
  20552851.626    20552853.378    23303056.485 8 -59939364.080 8
  23414481.734    23414484.142    49831090.289 9 -39362779.698 8
 86  6 11  2 39 17.0800000  0  4G12G13G 9G11
  21705321.703    21705322.791   -27992975.809 9  32533200.621 9
  20600266.787    20600269.248    -8654789.765 9   3333671.605 8
  20555032.210    20555035.336    23314518.313 8 -59930432.794 9
  23417639.108    23417641.644    49847684.893 8 -39349848.824 8
 86  6 11  2 39 23.0800000  0  4G12G13G 9G11
  21702698.414    21702700.317   -28006757.891 9  32522461.346 9
  20600417.442    20600419.799    -8653992.453 9   3334292.898 8
  20557219.560    20557221.022    23326004.367 9 -59921482.635 9
  23420797.269    23420799.983    49864280.238 9 -39336917.385 9
 86  6 11  2 39 29.0800000  0  4G12G13G 9G11
  21700079.617    21700081.133   -28020522.577 9  32511735.605 9
  20600572.254    20600575.202    -8653179.779 8   3334926.136 9
  20559409.561    20559411.373    23337514.615 8 -59912513.602 9
  23423956.181    23423957.550    49880876.293 9 -39323985.398 7
 86  6 11  2 39 35.0800000  0  4G12G13G 9G11
  21697463.324    21697465.700   -28034269.872 9  32501023.435 9
  20600730.753    20600732.408    -8652351.832 8   3335571.302 9
  20561603.800    20561607.837    23349049.030 9 -59903525.758 8
  23427113.510    23427116.553    49897473.049 9 -39311052.872 9
 86  6 11  2 39 41.0800000  0  4G12G13G 9G11
  21694850.724    21694852.010   -28047999.706 9  32490324.866 9
  20600891.730    20600892.886    -8651508.632 9   3336228.344 8
  20563804.513    20563805.261    23360607.667 8 -59894519.023 9
  23430272.100    23430274.571    49914070.457 9 -39298119.821 8
 86  6 11  2 39 47.0800000  0  4G12G13G 9G11
  21692241.127    21692243.759   -28061712.109 9  32479639.878 8
  20601054.566    20601056.641    -8650650.204 9   3336897.248 9
  20566008.233    20566009.460    23372190.386 7 -59885493.539 8
  23433430.596    23433433.432    49930668.442 8 -39285186.328 9
 86  6 11  2 39 53.0800000  0  4G12G13G 9G11
  21689634.807    21689637.139   -28075406.996 9  32468968.536 9
  20601220.929    20601223.277    -8649776.448 8   3337578.110 9
  20568216.986    20568218.251    23383797.157 8 -59876449.303 9
  23436590.145    23436592.165    49947267.066 9 -39272252.332 9
 86  6 11  2 39 59.0800000  0  4G12G13G 9G11
  21687032.523    21687034.641   -28089084.408 9  32458310.819 9
  20601388.668    20601392.354    -8648887.343 8   3338270.919 9
  20570430.035    20570432.297    23395428.104 8 -59867386.226 9
  23439747.441    23439749.339    49963866.343 8 -39259317.818 9
 86  6 11  2 40  5.0800000  0  4G12G13G 9G11
  21684432.929    21684435.147   -28102744.328 9  32447666.731 9
  20601561.587    20601563.467    -8647983.002 9   3338975.587 9
  20572648.369    20572649.450    23407083.372 9 -59858304.215 8
  23442906.695    23442909.367    49980466.287 9 -39246382.807 7
 86  6 11  2 40 11.0800000  0  4G12G13G 9G11
  21681837.770    21681837.972   -28116386.693 9  32437036.319 8
  20601737.097    20601738.620    -8647063.392 9   3339692.173 9
  20574870.348    20574871.771    23418762.585 8 -59849203.533 8
  23446066.307    23446068.199    49997066.848 9 -39233447.301 8
 86  6 11  2 40 17.0800000  0  4G12G13G 9G11
  21679243.743    21679245.804   -28130011.458 9  32426419.619 8
  20601915.124    20601917.209    -8646128.466 9   3340420.689 9
  20577097.844    20577099.090    23430465.806 8 -59840084.148 9
  23449224.067    23449226.660    50013668.026 8 -39220511.326 9
 86  6 11  2 40 23.0800000  0  4G12G13G 9G11
  21676654.666    21676655.783   -28143618.661 9  32415816.603 9
  20602094.737    20602097.511    -8645178.289 9   3341161.089 8
  20579329.002    20579330.132    23442193.262 8 -59830945.863 8
  23452384.109    23452387.653    50030269.802 7 -39207574.877 8
 86  6 11  2 40 29.0800000  0  4G12G13G 9G11
  21674068.666    21674070.626   -28157208.335 9  32405227.248 9
  20602279.601    20602281.206    -8644212.928 9   3341913.324 9
  20581565.257    20581566.909    23453944.764 8 -59821788.862 8
  23455542.384    23455546.172    50046872.131 9 -39194637.996 8
 86  6 11  2 40 35.0800000  0  4G12G13G 9G11
  21671486.529    21671487.904   -28170780.349 9  32394651.654 9
  20602465.642    20602468.048    -8643232.326 8   3342677.430 9
  20583805.935    20583807.896    23465720.260 8 -59812613.152 8
  23458703.484    23458705.505    50063474.977 9 -39181700.707 7
 86  6 11  2 40 41.0800000  0  4G12G13G 9G11
  21668907.068    21668908.184   -28184334.683 9  32384089.835 9
  20602654.369    20602656.979    -8642236.477 9   3343453.416 8
  20586051.796    20586053.005    23477519.896 8 -59803418.634 7
  23461863.005    23461864.074    50080078.411 9 -39168762.964 8
 86  6 11  2 40 47.0800000  0  4G12G13G 9G11
  21666331.142    21666331.643   -28197871.349 9  32373541.790 8
  20602847.236    20602850.736    -8641225.509 9   3344241.189 9
  20588300.775    20588303.843    23489343.505 8 -59794205.442 7
  23465022.067    23465025.154    50096682.391 9 -39155824.805 7
 86  6 11  2 40 53.0800000  0  4G12G13G 9G11
  21663758.921    21663760.481   -28211390.267 9  32363007.574 9
  20603042.602    20603045.437    -8640199.408 9   3345040.745 8
  20590555.112    20590558.160    23501191.252 9 -59784973.433 8
  23468181.185    23468183.650    50113286.929 9 -39142886.208 8
 86  6 11  2 40 59.0800000  0  4G12G13G 9G11
  21661189.835    21661191.150   -28224891.460 9  32352487.156 7
  20603241.254    20603243.094    -8639158.152 9   3345852.113 8
  20592814.670    20592816.678    23513062.994 7 -59775722.726 9
  23471341.620    23471343.970    50129891.984 8 -39129947.196 8
 86  6 11  2 41  5.0800000  0  4G12G13G 9G11
  21658623.024    21658625.256   -28238374.831 9  32341980.640 9
  20603442.076    20603443.945    -8638101.765 9   3346675.278 9
  20595078.483    20595080.652    23524958.756 8 -59766453.311 8
  23474501.341    23474503.490    50146497.590 9 -39117007.766 8
 86  6 11  2 41 11.0800000  0  4G12G13G 9G11
  21656061.548    21656062.850   -28251840.416 9  32331487.972 8
  20603646.113    20603647.596    -8637030.164 9   3347510.299 9
  20597347.629    20597349.344    23536878.545 8 -59757165.164 8
  23477661.747    23477664.070    50163103.712 9 -39104067.929 9
 86  6 11  2 41 17.0800000  0  4G12G13G 9G11
  21653502.621    21653503.594   -28265288.255 9  32321009.137 8
  20603852.741    20603855.002    -8635943.401 9   3348357.125 8
  20599619.814    20599621.424    23548822.168 8 -59747858.444 9
  23480821.661    23480822.773    50179710.296 9 -39091127.723 9
 86  6 11  2 41 23.0800000  0  4G12G13G 9G11
  21650945.712    21650948.115   -28278718.368 9  32310544.116 9
  20604062.976    20604064.406    -8634841.554 9   3349215.708 9
  20601897.201    20601899.585    23560789.837 8 -59738533.002 8
  23483981.860    23483983.596    50196317.361 9 -39078187.167 8
 86  6 11  2 41 29.0800000  0  4G12G13G 9G11
  21648394.568    21648396.014   -28292130.638 9  32300092.998 9
  20604274.913    20604277.083    -8633724.616 9   3350086.051 9
  20604178.876    20604180.750    23572781.465 8 -59729188.887 8
  23487141.666    23487145.005    50212924.835 8 -39065246.276 9
 86  6 11  2 41 35.0800000  0  4G12G13G 9G11
  21645845.386    21645846.832   -28305525.091 9  32289655.767 9
  20604490.652    20604491.946    -8632592.610 9   3350968.143 8
  20606464.905    20606467.716    23584796.975 8 -59719826.157 9
  23490303.147    23490305.089    50229532.754 9 -39052305.034 9
 86  6 11  2 41 41.0800000  0  4G12G13G 9G11
  21643300.295    21643302.056   -28318901.592 9  32279232.519 9
  20604708.750    20604710.419    -8631445.519 8   3351861.976 9
  20608756.515    20608758.522    23596836.494 8 -59710444.718 8
  23493463.839    23493464.658    50246141.182 9 -39039363.398 9
 86  6 11  2 41 47.0800000  0  4G12G13G 9G11
  21640757.639    21640758.654   -28332260.164 9  32268823.250 9
  20604929.605    20604931.446    -8630283.430 9   3352767.502 8
  20611052.604    20611054.249    23608899.825 8 -59701044.718 8
  23496623.689    23496625.845    50262750.026 9 -39026421.443 9
 86  6 11  2 41 53.0800000  0  4G12G13G 9G11
  21638219.244    21638220.030   -28345600.878 9  32258427.886 9
  20605153.343    20605154.534    -8629106.364 9   3353684.693 8
  20613351.988    20613354.261    23620987.058 9 -59691626.114 8
  23499784.903    23499787.074    50279359.250 9 -39013479.194 8
 86  6 11  2 41 59.0800000  0  4G12G13G 9G11
  21635684.099    21635685.386   -28358923.658 9  32248046.502 8
  20605380.723    20605383.079    -8627914.317 9   3354613.566 9
  20615656.808    20615658.827    23633098.238 8 -59682188.809 9
  23502945.676    23502947.203    50295968.860 9 -39000536.645 8
 86  6 11  2 42  5.0800000  0  4G12G13G 9G11
  21633151.729    21633154.004   -28372228.454 9  32237679.131 9
  20605610.725    20605612.631    -8626707.286 9   3355554.111 9
  20617965.678    20617967.917    23645233.221 8 -59672732.999 9
  23506105.038    23506108.018    50312578.843 8 -38987593.799 9
 86  6 11  2 42 11.0800000  0  4G12G13G 9G11
  21630623.052    21630624.827   -28385515.208 9  32227325.822 9
  20605843.428    20605844.948    -8625485.238 8   3356506.354 9
  20620279.929    20620281.960    23657392.081 8 -59663258.567 9
  23509266.640    23509268.861    50329189.225 8 -38974650.649 9
 86  6 11  2 42 17.0800000  0  4G12G13G 9G11
  21628098.266    21628100.914   -28398784.034 9  32216986.471 9
  20606078.406    20606081.417    -8624248.164 9   3357470.322 9
  20622597.327    20622600.628    23669574.772 8 -59653765.559 8
  23512427.926    23512429.783    50345799.992 8 -38961707.189 8
 86  6 11  2 42 23.0800000  0  4G12G13G 9G11
  21625576.657    21625579.776   -28412034.890 9  32206661.144 9
  20606316.923    20606318.814    -8622996.142 9   3358445.921 8
  20624920.343    20624923.075    23681781.257 9 -59644254.017 8
  23515587.875    23515592.013    50362411.071 9 -38948763.501 9
 86  6 11  2 42 29.0800000  0  4G12G13G 9G11
  21623059.069    21623060.586   -28425267.613 9  32196349.916 9
  20606556.939    20606559.694    -8621729.201 9   3359433.146 8
  20627249.095    20627249.502    23694011.569 8 -59634723.896 9
  23518749.669    23518751.998    50379022.431 9 -38935819.569 9
 86  6 11  2 42 35.0800000  0  4G12G13G 9G11
  21620544.228    21620545.517   -28438482.240 9  32186052.812 9
  20606801.857    20606803.354    -8620447.251 9   3360432.071 8
  20629580.963    20629582.468    23706265.712 8 -59625175.238 8
  23521910.006    23521913.107    50395634.124 8 -38922875.405 9
 86  6 11  2 42 41.0800000  0  4G12G13G 9G11
  21618033.108    21618035.970   -28451678.800 9  32175769.790 9
  20607048.580    20607050.268    -8619150.448 9   3361442.578 8
  20631916.556    20631919.156    23718543.626 7 -59615608.026 8
  23525072.574    23525073.793    50412246.180 9 -38909930.934 9
 86  6 11  2 42 47.0800000  0  4G12G13G 9G11
  21615525.308    21615527.139   -28464857.218 9  32165500.886 8
  20607298.171    20607299.594    -8617838.694 9   3362464.714 8
  20634258.008    20634259.858    23730845.383 7 -59606022.261 7
  23528232.321    23528235.801    50428858.627 8 -38896986.183 9
 86  6 11  2 42 53.0800000  0  4G12G13G 9G11
  21613021.499    21613022.802   -28478017.448 9  32155246.163 8
  20607550.686    20607552.334    -8616512.002 9   3363498.497 9
  20636602.923    20636604.318    23743170.811 8 -59596418.033 7
  23531394.023    23531396.345    50445471.349 8 -38884041.203 9
 86  6 11  2 42 59.0800000  0  4G12G13G 9G11
  21610520.725    21610522.442   -28491159.489 9  32145005.611 9
  20607805.232    20607807.291    -8615170.368 9   3364543.937 8
  20638954.085    20638954.885    23755519.924 8 -59586795.341 9
  23534555.153    23534558.161    50462084.321 9 -38871096.025 8
 86  6 11  2 43  5.0800000  0  4G12G13G 9G11
  21608023.342    21608024.886   -28504283.250 9  32134779.298 9
  20608064.250    20608066.108    -8613813.851 8   3365600.966 9
  20641307.522    20641309.288    23767892.883 9 -59577154.078 8
  23537715.789    23537719.061    50478697.561 9 -38858150.647 8
 86  6 11  2 43 11.0800000  0  4G12G13G 9G11
  21605528.920    21605531.023   -28517388.768 9  32124567.219 8
  20608325.514    20608326.583    -8612442.498 9   3366669.542 8
  20643667.186    20643668.484    23780289.467 8 -59567494.410 8
  23540877.570    23540881.357    50495311.001 9 -38845205.108 8
 86  6 11  2 43 17.0800000  0  4G12G13G 9G11
  21603038.361    21603040.479   -28530476.029 9  32114369.354 9
  20608588.464    20608590.648    -8611056.330 9   3367749.692 9
  20646030.505    20646031.514    23792709.795 8 -59557816.243 8
  23544040.194    23544042.745    50511924.770 9 -38832259.311 9
 86  6 11  2 43 23.0800000  0  4G12G13G 9G11
  21600551.181    21600553.227   -28543545.070 9  32104185.686 9
  20608855.015    20608857.306    -8609655.369 9   3368841.345 9
  20648398.451    20648398.916    23805153.915 8 -59548119.523 9
  23547200.938    23547204.053    50528538.785 9 -38819313.326 8
 86  6 11  2 43 29.0800000  0  4G12G13G 9G11
  21598067.964    21598070.153   -28556595.808 9  32094016.276 9
  20609124.935    20609126.920    -8608239.620 9   3369944.521 9
  20650770.604    20650772.248    23817621.669 9 -59538404.393 8
  23550362.189    23550365.754    50545153.079 8 -38806367.122 9
 86  6 11  2 43 35.0800000  0  4G12G13G 9G11
  21595587.808    21595590.054   -28569628.196 9  32083861.175 9
  20609397.022    20609398.549    -8606809.067 9   3371059.247 8
  20653146.847    20653149.757    23830113.124 9 -59528670.802 9
  23553524.370    23553527.450    50561767.592 9 -38793420.757 9
 86  6 11  2 43 41.0800000  0  4G12G13G 9G11
  21593111.688    21593112.618   -28582642.311 9  32073720.309 8
  20609671.998    20609673.149    -8605363.711 9   3372185.501 8
  20655528.782    20655530.266    23842628.222 8 -59518918.774 8
  23556686.050    23556689.002    50578382.295 8 -38780474.228 9
 86  6 11  2 43 47.0800000  0  4G12G13G 9G11
  21590639.432    21590639.961   -28595638.098 9  32063593.723 9
  20609950.733    20609952.281    -8603903.548 9   3373323.283 9
  20657915.040    20657916.330    23855166.979 9 -59509148.326 7
  23559847.716    23559850.760    50594997.247 9 -38767527.520 9
 86  6 11  2 43 53.0800000  0  4G12G13G 9G11
  21588168.992    21588170.653   -28608615.499 9  32053481.463 9
  20610229.905    20610232.022    -8602428.470 9   3374472.704 9
  20660306.288    20660307.700    23867729.309 8 -59499359.494 8
  23563009.461    23563012.970    50611612.388 8 -38754580.655 9
 86  6 11  2 43 59.0800000  0  4G12G13G 9G11
  21585702.960    21585705.179   -28621574.519 9  32043383.531 9
  20610513.940    20610515.869    -8600938.655 9   3375633.600 8
  20662701.293    20662701.708    23880315.313 9 -59489552.226 8
  23566172.036    23566173.963    50628227.669 8 -38741633.679 9
 86  6 11  2 44  5.0800000  0  4G12G13G 9G11
  21583240.763    21583242.223   -28634515.082 9  32033299.965 8
  20610800.549    20610802.851    -8599434.096 9   3376805.981 8
  20665101.068    20665102.729    23892924.909 8 -59479726.578 8
  23569332.700    23569335.795    50644843.115 9 -38728686.587 8
 86  6 11  2 44 11.0800000  0  4G12G13G 9G11
  21580781.786    21580784.218   -28647437.143 9  32023230.834 9
  20611090.088    20611091.153    -8597914.813 9   3377989.842 8
  20667504.799    20667505.210    23905558.087 9 -59469882.540 8
  23572495.654    23572498.183    50661458.732 9 -38715739.346 9
 86  6 11  2 44 17.0800000  0  4G12G13G 9G11
  21578326.056    21578327.587   -28660340.713 9  32013176.104 8
  20611380.855    20611382.660    -8596380.791 9   3379185.182 8
  20669912.857    20669914.871    23918214.820 9 -59460020.157 8
  23575656.255    23575659.862    50678074.528 9 -38702791.971 8
 86  6 11  2 44 23.0800000  0  4G12G13G 9G11
  21575874.749    21575876.051   -28673225.814 9  32003135.773 9
  20611676.150    20611678.301    -8594832.122 9   3380391.930 9
  20672326.522    20672327.503    23930895.144 8 -59450139.380 7
  23578819.000    23578821.708    50694690.436 8 -38689844.510 8
 86  6 11  2 44 29.0800000  0  4G12G13G 9G11
  21573425.601    21573427.833   -28686092.422 9  31993109.845 8
  20611973.419    20611975.175    -8593268.787 8   3381610.124 9
  20674743.253    20674745.316    23943598.924 9 -59440240.347 8
  23581982.391    23581983.038    50711306.464 8 -38676896.955 8
 86  6 11  2 44 35.0800000  0  4G12G13G 9G11
  21570981.004    21570981.849   -28698940.515 9  31983098.348 9
  20612273.769    20612276.064    -8591690.833 8   3382839.697 9
  20677165.216    20677166.882    23956326.297 8 -59430322.920 9
  23585142.075    23585144.869    50727922.568 8 -38663949.348 9
 86  6 11  2 44 41.0800000  0  4G12G13G 9G11
  21568539.813    21568541.359   -28711769.996 9  31973101.358 9
  20612576.934    20612578.944    -8590098.201 9   3384080.710 9
  20679592.123    20679592.746    23969077.195 9 -59420387.153 8
  23588302.939    23588308.251    50744538.789 8 -38651001.643 8
 86  6 11  2 44 47.0800000  0  4G12G13G 9G11
  21566101.384    21566103.358   -28724580.866 9  31963118.858 8
  20612883.026    20612884.713    -8588490.894 9   3385333.152 8
  20682022.797    20682024.086    23981851.567 9 -59410433.098 7
  23591466.630    23591468.888    50761155.100 8 -38638053.870 9
 86  6 11  2 44 53.0800000  0  4G12G13G 9G11
  21563667.304    21563669.249   -28737373.175 9  31953150.826 8
  20613191.149    20613193.680    -8586869.001 9   3386596.974 9
  20684457.702    20684458.792    23994649.471 9 -59400460.713 8
  23594628.426    23594631.985    50777771.472 8 -38625106.052 9
 86  6 11  2 44 59.0800000  0  4G12G13G 9G11
  21561236.343    21561238.204   -28750146.899 9  31943197.277 9
  20613503.153    20613505.023    -8585232.576 9   3387872.113 8
  20686899.111    20686899.343    24007470.799 9 -59390470.079 8
  23597791.459    23597794.273    50794387.898 7 -38612158.187 8
 86  6 11  2 45  5.0800000  0  4G12G13G 9G11
  21558808.961    21558811.250   -28762902.011 9  31933258.235 9
  20613817.026    20613818.871    -8583581.586 9   3389158.595 8
  20689342.588    20689343.341    24020315.549 9 -59380461.177 8
  23600952.402    23600956.068    50811004.409 8 -38599210.257 8
 86  6 11  2 45 11.0800000  0  4G12G13G 9G11
  21556385.685    21556387.445   -28775638.471 9  31923333.723 9
  20614134.453    20614136.026    -8581915.975 9   3390456.463 8
  20691790.866    20691792.329    24033183.738 9 -59370434.033 8
  23604115.277    23604117.141    50827620.912 8 -38586262.334 8
 86  6 11  2 45 17.0800000  0  4G12G13G 9G11
  21553965.499    21553966.845   -28788356.282 9  31913423.743 8
  20614454.224    20614456.158    -8580235.749 8   3391765.736 8
  20694244.617    20694244.480    24046075.288 7 -59360388.660 9
  23607277.665    23607279.593    50844237.422 8 -38573314.402 9
 86  6 11  2 45 23.0800000  0  4G12G13G 9G11
  21551548.848    21551550.852   -28801055.398 9  31903528.330 9
  20614776.535    20614778.247    -8578540.978 9   3393086.338 8
  20696703.064    20696703.440    24058990.330 9 -59350325.002 8
  23610437.644    23610441.617    50860853.931 9 -38560366.488 8
 86  6 11  2 45 29.0800000  0  4G12G13G 9G11
  21549135.503    21549137.149   -28813735.767 9  31893647.523 9
  20615101.572    20615103.681    -8576831.627 8   3394418.299 8
  20699164.042    20699165.179    24071928.667 9 -59340243.172 9
  23613601.306    23613602.882    50877470.415 8 -38547418.566 8
 86  6 11  2 45 35.0800000  0  4G12G13G 9G11
  21546726.192    21546728.625   -28826397.357 9  31883781.352 8
  20615429.950    20615431.697    -8575107.672 9   3395761.645 8
  20701632.108    20701631.753    24084890.438 8 -59330143.100 8
  23616763.329    23616766.395    50894086.869 8 -38534470.689 9
 86  6 11  2 45 41.0800000  0  4G12G13G 9G11
  21544320.746    21544323.020   -28839040.161 9  31873929.820 8
  20615760.435    20615762.835    -8573369.149 9   3397116.338 9
  20704101.328    20704101.435    24097875.592 8 -59320024.805 8
  23619925.769    23619928.203    50910703.365 8 -38521522.776 9
 86  6 11  2 45 47.0800000  0  4G12G13G 9G11
  21541918.748    21541920.164   -28851664.192 9  31864092.923 9
  20616094.823    20616097.186    -8571616.125 9   3398482.333 9
  20706578.187    20706577.886    24110884.149 9 -59309888.268 8
  23623087.792    23623090.672    50927319.914 9 -38508574.819 9
 86  6 11  2 45 53.0800000  0  4G12G13G 9G11
  21539519.753    21539521.113   -28864269.407 9  31854270.675 9
  20616430.259    20616432.857    -8569848.651 9   3399859.585 8
  20709057.913    20709058.005    24123916.078 9 -59299733.520 8
  23626249.566    23626251.601    50943936.421 9 -38495626.893 9
 86  6 11  2 45 59.0800000  0  4G12G13G 9G11
  21537123.765    21537126.241   -28876855.756 9  31844463.139 9
  20616769.605    20616771.985    -8568066.717 9   3401248.103 8
  20711541.907    20711540.802    24136971.301 9 -59289560.623 8
  23629410.638    23629413.074    50960552.875 8 -38482679.016 9
 86  6 11  2 46  5.0800000  0  4G12G13G 9G11
  21534733.299    21534733.830   -28889423.235 9  31834670.299 9
  20617112.267    20617112.881    -8566270.337 9   3402647.877 9
  20714030.064    20714031.109    24150049.790 9 -59279369.602 8
  23632572.353    23632575.777    50977169.247 8 -38469731.201 8
 86  6 11  2 46 11.0800000  0  4G12G13G 9G11
  21532345.009    21532346.855   -28901971.761 9  31824892.225 9
  20617455.905    20617458.069    -8564459.526 9   3404058.903 8
  20716522.139    20716523.608    24163151.624 9 -59269160.380 8
  23635735.473    23635737.623    50993785.540 9 -38456783.439 9
 86  6 11  2 46 17.0800000  0  4G12G13G 9G11
  21529960.383    21529962.228   -28914501.374 9  31815128.893 9
  20617803.414    20617805.223    -8562634.212 9   3405481.225 9
  20719020.912    20719020.931    24176276.853 9 -59258932.942 8
  23638896.852    23638900.175    51010401.756 8 -38443835.749 8
 86  6 11  2 46 23.0800000  0  4G12G13G 9G11
  21527579.948    21527582.925   -28927011.984 9  31805380.374 9
  20618153.243    20618155.051    -8560794.406 9   3406914.846 9
  20721523.330    20721523.862    24189425.316 9 -59248687.385 8
  23642058.511    23642061.176    51027017.956 8 -38430888.069 9
 86  6 11  2 46 29.0800000  0  4G12G13G 9G11
  21525202.676    21525205.739   -28939503.694 9  31795646.579 8
  20618506.068    20618508.138    -8558940.199 9   3408359.681 8
  20724029.795    20724030.377    24202596.991 8 -59238423.743 9
  23645221.466    23645223.765    51043634.037 8 -38417940.466 9
 86  6 11  2 46 35.0800000  0  4G12G13G 9G11
  21522829.368    21522831.300   -28951976.487 9  31785927.520 9
  20618860.811    20618863.836    -8557071.589 9   3409815.739 8
  20726540.830    20726541.148    24215791.833 8 -59228142.059 7
  23648383.931    23648386.375    51060249.955 9 -38404993.004 9
 86  6 11  2 46 41.0800000  0  4G12G13G 9G11
  21520460.066    21520461.698   -28964430.368 9  31776223.201 8
  20619220.632    20619222.169    -8555188.626 9   3411282.985 8
  20729056.095    20729056.088    24229009.875 9 -59217842.282 7
  23651544.999    23651547.268    51076865.668 8 -38392045.697 9
 86  6 11  2 46 47.0800000  0  4G12G13G 9G11
  21518093.626    21518095.272   -28976865.202 9  31766533.730 9
  20619580.735    20619584.016    -8553291.303 9   3412761.415 9
  20731575.897    20731575.354    24242251.192 8 -59207524.381 8
  23654706.019    23654709.408    51093481.234 9 -38379098.510 9
 86  6 11  2 46 53.0800000  0  4G12G13G 9G11
  21515730.720    21515733.024   -28989280.951 9  31756859.122 9
  20619944.528    20619946.419    -8551379.659 9   3414251.023 9
  20734100.088    20734100.202    24255515.704 9 -59197188.389 8
  23657868.603    23657871.446    51110096.704 8 -38366151.392 8
 86  6 11  2 46 59.0800000  0  4G12G13G 9G11
  21513370.963    21513373.666   -29001677.567 9  31747199.427 9
  20620310.931    20620313.101    -8549453.686 8   3415751.770 8
  20736628.548    20736629.092    24268803.412 9 -59186834.351 8
  23661030.196    23661033.361    51126712.019 8 -38353204.398 9
 86  6 11  2 47  5.0800000  0  4G12G13G 9G11
  21511016.227    21511018.574   -29014055.135 9  31737554.567 9
  20620681.264    20620681.368    -8547513.428 9   3417263.673 8
  20739161.955    20739162.437    24282114.192 8 -59176462.313 8
  23664190.889    23664194.714    51143327.132 9 -38340257.553 9
 86  6 11  2 47 11.0800000  0  4G12G13G 9G11
  21508664.353    21508666.029   -29026413.613 9  31727924.589 9
  20621052.466    20621054.343    -8545558.874 9   3418786.687 8
  20741699.160    20741698.867    24295448.195 9 -59166072.169 8
  23667353.279    23667356.995    51159942.077 9 -38327310.850 9
 86  6 11  2 47 17.0800000  0  4G12G13G 9G11
  21506316.631    21506318.433   -29038752.960 9  31718309.525 8
  20621426.744    20621429.701    -8543589.967 9   3420320.897 8
  20744241.089    20744241.896    24308805.353 9 -59155664.008 7
  23670515.116    23670518.153    51176556.894 8 -38314364.242 9
 86  6 11  2 47 23.0800000  0  4G12G13G 9G11
  21503971.625    21503974.216   -29051073.146 9  31708709.374 9
  20621803.559    20621805.869    -8541606.836 9   3421866.200 8
  20746787.254    20746787.262    24322185.542 9 -59145237.885 7
  23673676.639    23673679.491    51193171.507 8 -38301417.804 9
 86  6 11  2 47 29.0800000  0  4G12G13G 9G11
  21501631.657    21501632.659   -29063374.215 9  31699124.130 9
  20622184.134    20622187.069    -8539609.453 9   3423422.608 9
  20749337.336    20749338.698    24335588.837 9 -59134793.772 8
  23676837.338    23676841.063    51209785.891 9 -38288471.526 9
 86  6 11  2 47 35.0800000  0  4G12G13G 9G11
  21499293.407    21499295.425   -29075656.018 9  31689553.897 9
  20622567.337    20622569.161    -8537597.789 8   3424990.141 8
  20751892.040    20751892.309    24349015.203 9 -59124331.664 8
  23679999.027    23680002.421    51226400.080 9 -38275525.423 9
 86  6 11  2 47 41.0800000  0  4G12G13G 9G11
  21496960.064    21496961.738   -29087918.650 9  31679998.604 9
  20622952.745    20622954.671    -8535571.902 9   3426568.762 8
  20754452.120    20754452.938    24362464.606 9 -59113851.613 7
  23683160.716    23683164.739    51243014.010 9 -38262579.493 9
 86  6 11  2 47 47.0800000  0  4G12G13G 9G11
  21494631.386    21494632.488   -29100162.013 9  31670458.329 8
  20623341.138    20623342.957    -8533531.877 9   3428158.395 8
  20757016.016    20757016.437    24375937.099 9 -59103353.581 7
  23686323.259    23686325.940    51259627.721 9 -38249633.740 9
 86  6 11  2 47 53.0800000  0  4G12G13G 9G11
  21492303.824    21492306.957   -29112386.113 9  31660933.060 9
  20623731.755    20623734.328    -8531477.584 8   3429759.142 8
  20759582.264    20759584.321    24389432.640 8 -59092837.569 8
  23689483.675    23689487.320    51276241.149 9 -38236688.224 9
 86  6 11  2 47 59.0800000  0  4G12G13G 9G11
  21489981.757    21489983.202   -29124590.946 9  31651422.816 9
  20624125.214    20624126.230    -8529409.039 9   3431370.986 7
  20762155.537    20762155.944    24402951.220 9 -59082303.629 8
  23692645.197    23692649.150    51292854.354 8 -38223742.850 9
 86  6 11  2 48  5.0800000  0  4G12G13G 9G11
  21487662.809    21487665.455   -29136776.477 9  31641927.585 9
  20624521.197    20624525.339    -8527326.270 9   3432993.926 9
  20764731.999    20764732.747    24416492.663 8 -59071751.834 8
  23695806.850    23695810.072    51309467.281 9 -38210797.731 9
 86  6 11  2 48 11.0800000  0  4G12G13G 9G11
  21485348.883    21485350.085   -29148942.668 9  31632447.446 9
  20624921.102    20624922.493    -8525229.286 9   3434627.949 8
  20767314.816    20767314.837    24430057.211 9 -59061182.072 8
  23698969.144    23698972.317    51326079.947 9 -38197852.800 8
 86  6 11  2 48 17.0800000  0  4G12G13G 9G11
  21483036.990    21483038.177   -29161089.549 9  31622982.345 8
  20625322.349    20625324.563    -8523118.230 9   3436272.939 9
  20769900.222    20769899.592    24443644.733 9 -59050594.388 7
  23702128.608    23702133.032    51342692.269 8 -38184908.131 9
 86  6 11  2 48 23.0800000  0  4G12G13G 9G11
  21480728.316    21480730.333   -29173217.063 9  31613532.337 9
  20625727.590    20625729.358    -8520992.927 9   3437929.009 9
  20772490.125    20772490.886    24457255.148 9 -59039988.884 8
  23705290.652    23705293.868    51359304.326 8 -38171963.669 9
 86  6 11  2 48 29.0800000  0  4G12G13G 9G11
  21478424.164    21478426.411   -29185325.210 9  31604097.419 9
  20626135.029    20626136.434    -8518853.473 9   3439596.114 9
  20775084.302    20775083.935    24470888.613 9 -59029365.406 8
  23708451.024    23708455.621    51375916.068 9 -38159019.461 9
 86  6 11  2 48 35.0800000  0  4G12G13G 9G11
  21476123.603    21476125.178   -29197413.973 9  31594677.605 8
  20626544.064    20626545.980    -8516699.938 8   3441274.194 9
  20777682.264    20777683.513    24484545.012 9 -59018724.050 8
  23711613.097    23711615.906    51392527.436 9 -38146075.533 9
 86  6 11  2 48 41.0800000  0  4G12G13G 9G11
  21473826.606    21473829.525   -29209483.342 9  31585272.913 9
  20626955.995    20626958.422    -8514532.300 9   3442963.280 8
  20780285.912    20780286.541    24498224.318 9 -59008064.871 7
  23714773.755    23714778.008    51409138.433 9 -38133131.903 9
 86  6 11  2 48 47.0800000  0  4G12G13G 9G11
  21471534.130    21471536.220   -29221533.241 9  31575883.398 8
  20627372.230    20627373.234    -8512350.529 9   3444663.349 9
  20782892.857    20782893.994    24511926.465 9 -58997387.867 8
  23717935.185    23717937.808    51425749.069 9 -38120188.544 9
 86  6 11  2 48 53.0800000  0  4G12G13G 9G11
  21469245.346    21469246.320   -29233563.670 9  31566509.025 9
  20627788.753    20627791.910    -8510154.754 9   3446374.342 9
  20785504.832    20785505.740    24525651.512 9 -58986693.023 8
  23721094.755    23721099.709    51442359.335 9 -38107245.487 9
 86  6 11  2 48 59.0800000  0  4G12G13G 9G11
  21466959.380    21466961.770   -29245574.634 9  31557149.841 9
  20628210.229    20628212.242    -8507944.972 9   3448096.248 9
  20788121.926    20788121.321    24539399.371 9 -58975980.413 8
  23724256.170    23724260.538    51458969.240 9 -38094302.702 9
 86  6 11  2 49  5.0800000  0  4G12G13G 9G11
  21464677.537    21464678.710   -29257566.116 9  31547805.828 9
  20628633.801    20628634.639    -8505721.208 9   3449829.065 9
  20790742.940    20790741.974    24553170.104 9 -58965249.983 8
  23727417.336    23727420.300    51475578.775 9 -38081360.204 9
 86  6 11  2 49 11.0800000  0  4G12G13G 9G11
  21462399.255    21462402.003   -29269538.021 9  31538477.080 9
  20629059.101    20629060.935    -8503483.385 9   3451572.819 9
  20793366.674    20793368.246    24566963.682 9 -58954501.746 8
  23730576.591    23730581.059    51492187.869 9 -38068418.062 9
 86  6 11  2 49 17.0800000  0  4G12G13G 9G11
  21460124.638    21460127.499   -29281490.403 9  31529163.533 8
  20629487.107    20629489.732    -8501231.529 9   3453327.508 9
  20795995.421    20795996.198    24580780.072 9 -58943735.737 7
  23733738.221    23733741.923    51508796.573 9 -38055476.214 9
 86  6 11  2 49 23.0800000  0  4G12G13G 9G11
  21457853.783    21457856.831   -29293423.260 9  31519865.205 9
  20629918.857    20629920.566    -8498965.605 9   3455093.167 9
  20798628.822    20798630.484    24594619.320 9 -58932951.897 8
  23736898.657    23736902.115    51525404.832 9 -38042534.708 9
 86  6 11  2 49 29.0800000  0  4G12G13G 9G11
  21455587.350    21455590.197   -29305336.483 9  31510582.179 9
  20630353.188    20630354.283    -8496685.730 9   3456869.695 9
  20801266.553    20801268.319    24608481.308 9 -58922150.345 8
  23740058.420    23740062.257    51542012.677 9 -38029593.538 8
 86  6 11  2 49 35.0800000  0  4G12G13G 9G11
  21453324.108    21453325.911   -29317229.966 9  31501314.531 9
  20630789.926    20630791.124    -8494391.853 9   3458657.127 8
  20803909.747    20803908.765    24622365.982 9 -58911331.119 7
  23743218.862    23743222.936    51558620.147 9 -38016652.646 9
 86  6 11  2 49 41.0800000  0  4G12G13G 9G11
  21451064.829    21451065.859   -29329103.895 9  31492062.121 9
  20631228.450    20631230.595    -8492083.999 9   3460455.463 8
  20806555.834    20806555.898    24636273.493 9 -58900494.118 8
  23746379.742    23746382.721    51575227.215 9 -38003712.077 9
 86  6 11  2 49 47.0800000  0  4G12G13G 9G11
  21448807.898    21448810.789   -29340958.121 9  31482825.059 8
  20631670.725    20631672.234    -8489762.237 9   3462264.617 9
  20809207.545    20809207.001    24650203.770 9 -58889639.347 8
  23749540.527    23749542.841    51591833.838 9 -37990771.855 9
 86  6 11  2 49 53.0800000  0  4G12G13G 9G11
  21446556.132    21446558.493   -29352792.627 9  31473603.375 9
  20632115.662    20632115.600    -8487426.509 9   3464084.676 8
  20811861.857    20811860.945    24664156.833 9 -58878766.826 8
  23752700.449    23752702.804    51608439.982 9 -37977832.000 9
 86  6 11  2 49 59.0800000  0  4G12G13G 9G11
  21444308.086    21444310.576   -29364607.373 9  31464397.080 9
  20632561.926    20632564.750    -8485076.847 9   3465915.577 8
  20814521.875    20814522.142    24678132.585 9 -58867876.645 8
  23755859.639    23755863.706    51625045.679 9 -37964892.492 9
 86  6 11  2 50  5.0800000  0  4G12G13G 9G11
  21442063.774    21442065.548   -29376402.388 9  31455206.172 9
  20633011.761    20633012.806    -8482713.262 9   3467757.331 9
  20817184.924    20817184.848    24692130.960 8 -58856968.816 8
  23759019.745    23759022.274    51641650.911 9 -37951953.355 9
 86  6 11  2 50 11.0800000  0  4G12G13G 9G11
  21439822.911    21439825.416   -29388177.724 9  31446030.578 8
  20633464.550    20633466.745    -8480335.835 9   3469609.874 8
  20819852.972    20819853.024    24706151.981 8 -58846043.366 8
  23762180.130    23762182.288    51658255.672 9 -37939014.580 8
 86  6 11  2 50 17.0800000  0  4G12G13G 9G11
  21437585.255    21437587.573   -29399933.251 9  31436870.437 9
  20633919.404    20633921.619    -8477944.572 9   3471473.197 8
  20822525.747    20822526.273    24720195.632 8 -58835100.264 8
  23765339.701    23765341.986    51674859.868 9 -37926076.241 9
 86  6 11  2 50 23.0800000  0  4G12G13G 9G11
  21435352.592    21435353.879   -29411669.034 9  31427725.667 9
  20634377.197    20634378.008    -8475539.465 9   3473347.309 9
  20825201.341    20825201.597    24734262.031 9 -58824139.410 8
  23768499.355    23768500.540    51691463.574 8 -37913138.293 9
 86  6 11  2 50 29.0800000  0  4G12G13G 9G11
  21433122.733    21433124.650   -29423385.053 9  31418596.306 9
  20634837.724    20634839.518    -8473120.470 9   3475232.239 9
  20827883.193    20827884.596    24748350.892 9 -58813161.100 8
  23771658.738    23771660.889    51708066.720 9 -37900200.776 9
 86  6 11  2 50 35.0800000  0  4G12G13G 9G11
  21430897.581    21430899.370   -29435081.251 9  31409482.394 9
  20635300.480    20635301.695    -8470687.619 9   3477127.964 9
  20830569.837    20830568.319    24762462.436 9 -58802165.089 7
  23774818.760    23774820.481    51724669.369 9 -37887263.648 9
 86  6 11  2 50 41.0800000  0  4G12G13G 9G11
  21428676.064    21428677.294   -29446757.550 9  31400383.987 8
  20635765.532    20635767.376    -8468240.940 8   3479034.471 9
  20833257.951    20833259.081    24776596.585 8 -58791151.480 7
  23777977.350    23777979.743    51741271.450 9 -37874326.966 9
 86  6 11  2 50 47.0800000  0  4G12G13G 9G11
  21426457.325    21426460.000   -29458413.940 9  31391301.085 8
  20636233.968    20636235.166    -8465780.508 9   3480951.688 9
  20835952.919    20835952.375    24790753.300 9 -58780120.272 7
  23781135.674    23781139.312    51757872.976 9 -37861390.699 9
 86  6 11  2 50 53.0800000  0  4G12G13G 9G11
  21424243.577    21424245.107   -29470050.413 9  31382233.704 8
  20636705.015    20636705.036    -8463306.331 9   3482879.610 9
  20838651.575    20838650.449    24804932.546 9 -58769071.505 9
  23784295.102    23784298.668    51774473.961 9 -37848454.882 9
 86  6 11  2 50 59.0800000  0  4G12G13G 9G11
  21422032.378    21422034.539   -29481666.997 9  31373181.827 8
  20637177.684    20637179.847    -8460818.351 9   3484818.306 9
  20841352.276    20841352.757    24819134.396 9 -58758005.133 8
  23787453.993    23787456.506    51791074.342 9 -37835519.515 9
 86  6 11  2 51  5.0800000  0  4G12G13G 9G11
  21419826.057    21419827.775   -29493263.664 9  31364145.462 9
  20637654.731    20637656.850    -8458316.593 9   3486767.715 9
  20844060.529    20844060.156    24833358.716 9 -58746921.260 7
  23790612.931    23790615.217    51807674.104 9 -37822584.631 9
 86  6 11  2 51 11.0800000  0  4G12G13G 9G11
  21417622.842    21417624.388   -29504840.360 9  31355124.659 8
  20638132.751    20638134.700    -8455801.083 9   3488727.863 8
  20846771.190    20846771.433    24847605.598 9 -58735819.785 8
  23793771.507    23793774.186    51824273.245 9 -37809650.232 8
 86  6 11  2 51 17.0800000  0  4G12G13G 9G11
  21415423.719    21415424.779   -29516396.977 9  31346119.507 8
  20638614.127    20638617.333    -8453271.850 9   3490698.695 9
  20849486.606    20849487.343    24861874.956 9 -58724700.802 7
  23796929.804    23796932.483    51840871.769 9 -37796716.318 9
 86  6 11  2 51 23.0800000  0  4G12G13G 9G11
  21413227.574    21413230.407   -29527933.586 9  31337129.949 9
  20639098.671    20639098.565    -8450728.867 9   3492680.232 9
  20852206.393    20852207.190    24876166.851 9 -58713564.269 8
  23800088.916    23800091.479    51857469.708 9 -37783782.853 8
 86  6 11  2 51 29.0800000  0  4G12G13G 9G11
  21411036.578    21411038.668   -29539450.251 9  31328155.928 9
  20639584.762    20639586.231    -8448172.245 8   3494672.417 9
  20854929.955    20854930.058    24890481.179 9 -58702410.253 8
  23803247.190    23803249.733    51874067.064 9 -37770849.862 8
 86  6 11  2 51 35.0800000  0  4G12G13G 9G11
  21408848.703    21408850.764   -29550946.820 9  31319197.569 9
  20640073.509    20640075.508    -8445601.997 9   3496675.200 9
  20857658.424    20857658.603    24904817.877 9 -58691238.797 8
  23806405.093    23806407.715    51890663.784 9 -37757917.348 8
 86  6 11  2 51 41.0800000  0  4G12G13G 9G11
  21406664.404    21406666.923   -29562423.300 9  31310254.856 9
  20640564.851    20640566.427    -8443017.992 9   3498688.707 9
  20860391.741    20860390.478    24919177.050 9 -58680049.833 7
  23809563.904    23809565.495    51907259.876 9 -37744985.329 8
 86  6 11  2 51 47.0800000  0  4G12G13G 9G11
  21404484.814    21404487.432   -29573879.748 9  31301327.754 9
  20641060.310    20641061.859    -8440420.293 9   3500712.900 8
  20863127.627    20863127.983    24933558.545 8 -58668843.469 8
  23812722.408    23812723.256    51923855.356 9 -37732053.791 8
 86  6 11  2 51 53.0800000  0  4G12G13G 9G11
  21402308.858    21402311.061   -29585316.079 9  31292416.328 9
  20641556.747    20641558.805    -8437808.925 9   3502747.720 8
  20865868.652    20865868.479    24947962.487 9 -58657619.630 7
  23815879.881    23815882.295    51940450.162 9 -37719122.761 9
 86  6 11  2 51 59.0800000  0  4G12G13G 9G11
  21400136.407    21400138.467   -29596732.347 9  31283520.545 9
  20642056.688    20642057.152    -8435184.017 9   3504793.114 9
  20868613.766    20868614.291    24962388.846 9 -58646378.326 7
  23819037.226    23819039.663    51957044.294 9 -37706192.270 9
 86  6 11  2 52  5.0800000  0  4G12G13G 9G11
  21397968.021    21397970.484   -29608128.444 9  31274640.457 9
  20642557.560    20642559.876    -8432545.490 9   3506849.105 9
  20871363.403    20871362.411    24976837.469 9 -58635119.658 8
  23822195.028    23822198.216    51973637.758 9 -37693262.299 7
 86  6 11  2 52 11.0800000  0  4G12G13G 9G11
  21395802.210    21395805.445   -29619504.345 9  31265776.135 9
  20643063.086    20643064.849    -8429893.297 9   3508915.757 8
  20874116.423    20874116.095    24991308.512 9 -58623843.519 8
  23825352.646    23825353.329    51990230.528 9 -37680332.865 8
 86  6 11  2 52 17.0800000  0  4G12G13G 9G11
  21393641.794    21393645.013   -29630860.114 9  31256927.489 9
  20643569.634    20643572.294    -8427227.564 9   3510992.947 8
  20876874.684    20876875.354    25005801.786 9 -58612550.059 7
  23828509.841    23828511.639    52006822.602 9 -37667403.984 8
 86  6 11  2 52 23.0800000  0  4G12G13G 9G11
  21391484.354    21391487.216   -29642195.705 9  31248094.559 9
  20644080.043    20644081.684    -8424548.191 9   3513080.784 9
  20879637.317    20879637.595    25020317.411 9 -58601239.193 8
  23831666.992    23831667.839    52023413.951 9 -37654475.662 9
 86  6 11  2 52 29.0800000  0  4G12G13G 9G11
  21389331.694    21389332.679   -29653511.093 9  31239277.378 9
  20644592.827    20644593.610    -8421855.296 9   3515179.139 8
  20882403.369    20882403.955    25034855.279 9 -58589910.979 8
  23834824.351    23834826.050    52040004.552 8 -37641547.913 9
 86  6 11  2 52 35.0800000  0  4G12G13G 9G11
  21387182.052    21387183.468   -29664806.149 9  31230476.037 8
  20645106.831    20645109.012    -8419148.853 8   3517288.055 8
  20885173.712    20885174.068    25049415.426 8 -58578565.413 7
  23837981.538    23837983.051    52056594.419 9 -37628620.746 9
 86  6 11  2 52 41.0800000  0  4G12G13G 9G11
  21385036.688    21385039.207   -29676080.909 9  31221690.513 9
  20645624.910    20645627.755    -8416428.884 9   3519407.509 8
  20887948.603    20887949.840    25063997.846 8 -58567202.499 7
  23841137.602    23841140.174    52073183.566 9 -37615694.132 8
 86  6 11  2 52 47.0800000  0  4G12G13G 9G11
  21382894.616    21382896.720   -29687335.384 9  31212920.794 8
  20646145.303    20646147.137    -8413695.365 9   3521537.519 8
  20890728.900    20890728.578    25078602.453 9 -58555822.279 8
  23844294.117    23844296.795    52089771.971 8 -37602768.109 8
 86  6 11  2 52 53.0800000  0  4G12G13G 9G11
  21380757.395    21380758.526   -29698569.527 9  31204166.918 8
  20646668.222    20646669.574    -8410948.320 9   3523678.083 8
  20893511.892    20893512.173    25093229.324 9 -58544424.722 8
  23847449.952    23847453.425    52106359.614 9 -37589842.674 9
 86  6 11  2 52 59.0800000  0  4G12G13G 9G11
  21378623.179    21378624.539   -29709783.350 9  31195428.868 9
  20647193.612    20647194.698    -8408187.790 9   3525829.154 8
  20896299.401    20896299.686    25107878.433 9 -58533009.840 8
  23850606.803    23850609.402    52122946.517 9 -37576917.812 9
 86  6 11  2 53  5.0800000  0  4G12G13G 9G11
  21376493.170    21376495.645   -29720976.808 9  31186706.712 8
  20647720.670    20647724.382    -8405413.753 9   3527990.730 8
  20899091.281    20899091.256    25122549.699 9 -58521577.681 9
  23853763.718    23853765.946    52139532.659 8 -37563993.562 9
 86  6 11  2 53 11.0800000  0  4G12G13G 9G11
  21374366.653    21374369.214   -29732149.919 9  31178000.386 9
  20648251.209    20648253.560    -8402626.279 9   3530162.790 8
  20901888.010    20901887.876    25137243.204 9 -58510128.201 8
  23856919.518    23856921.618    52156117.977 9 -37551069.932 8
 86  6 11  2 53 17.0800000  0  4G12G13G 9G11
  21372245.299    21372247.476   -29743302.664 9  31169309.941 9
  20648784.840    20648786.592    -8399825.392 9   3532345.296 8
  20904688.196    20904687.720    25151958.828 9 -58498661.492 7
  23860075.203    23860078.354    52172702.472 9 -37538146.939 8
 86  6 11  2 53 23.0800000  0  4G12G13G 9G11
  21370126.179    21370128.256   -29754435.041 9  31160635.366 9
  20649320.473    20649322.103    -8397011.088 9   3534538.259 8
  20907492.200    20907492.117    25166696.500 9 -58487177.587 8
  23863231.137    23863233.324    52189286.132 9 -37525224.610 8
 86  6 11  2 53 29.0800000  0  4G12G13G 9G11
  21368011.338    21368014.271   -29765546.949 9  31151976.739 9
  20649858.034    20649859.441    -8394183.339 8   3536741.712 8
  20910300.305    20910302.103    25181456.238 9 -58475676.494 8
  23866387.073    23866389.738    52205868.919 9 -37512302.959 8
 86  6 11  2 53 35.0800000  0  4G12G13G 9G11
  21365901.519    21365903.208   -29776638.419 9  31143334.034 9
  20650399.096    20650400.743    -8391342.138 9   3538955.633 8
  20913113.220    20913113.841    25196238.073 9 -58464158.190 8
  23869541.528    23869544.771    52222450.861 9 -37499381.966 8
 86  6 11  2 53 41.0800000  0  4G12G13G 9G11
  21363794.405    21363796.523   -29787709.419 9  31134707.284 9
  20650942.066    20650943.695    -8388487.597 9   3541179.949 9
  20915930.570    20915931.313    25211042.029 9 -58452622.642 8
  23872697.362    23872699.205    52239031.963 9 -37486461.628 7
 86  6 11  2 53 47.0800000  0  4G12G13G 9G11
  21361691.097    21361693.958   -29798759.920 9  31126096.510 9
  20651488.461    20651489.710    -8385619.740 9   3543414.637 9
  20918751.967    20918751.716    25225868.133 9 -58441069.838 7
  23875853.733    23875854.224    52255612.206 8 -37473541.952 8
 86  6 11  2 53 53.0800000  0  4G12G13G 9G11
  21359591.680    21359595.429   -29809789.949 9  31117501.677 9
  20652036.210    20652037.833    -8382738.537 9   3545659.733 8
  20921577.649    20921577.420    25240716.274 9 -58429499.872 8
  23879007.824    23879010.194    52272191.596 9 -37460622.955 8
 86  6 11  2 53 59.0800000  0  4G12G13G 9G11
  21357498.016    21357499.591   -29820799.336 9  31108922.937 7
  20652587.500    20652589.287    -8379844.004 8   3547915.214 9
  20924407.178    20924407.187    25255586.386 9 -58417912.767 8
  23882162.929    23882165.652    52288770.172 9 -37447704.583 8
 86  6 11  2 54  5.0800000  0  4G12G13G 9G11
  21355406.813    21355409.362   -29831788.183 9  31100360.204 9
  20653140.457    20653142.531    -8376936.039 9   3550181.165 8
  20927241.423    20927242.028    25270478.508 9 -58406308.523 8
  23885317.162    23885319.190    52305347.876 8 -37434786.901 8
 86  6 11  2 54 11.0800000  0  4G12G13G 9G11
  21353319.231    21353321.792   -29842756.460 9  31091813.495 9
  20653696.235    20653698.142    -8374014.648 9   3552457.579 8
  20930078.966    20930080.393    25285392.664 8 -58394687.102 8
  23888471.236    23888475.046    52321924.696 8 -37421869.905 8
 86  6 11  2 54 17.0800000  0  4G12G13G 9G11
  21351235.856    21351237.887   -29853704.157 9  31083282.827 9
  20654254.160    20654255.500    -8371080.025 9   3554744.287 8
  20932921.454    20932921.232    25300328.825 9 -58383048.530 7
  23891625.433    23891628.920    52338500.570 9 -37408953.634 8
 86  6 11  2 54 23.0800000  0  4G12G13G 9G11
  21349156.644    21349159.277   -29864631.280 9  31074768.187 9
  20654814.898    20654817.158    -8368132.158 9   3557041.328 8
  20935767.667    20935767.471    25315286.815 9 -58371392.962 8
  23894779.144    23894781.600    52355075.562 9 -37396038.054 8
 86  6 11  2 54 29.0800000  0  4G12G13G 9G11
  21347081.281    21347083.214   -29875537.721 9  31066269.667 9
  20655378.153    20655380.152    -8365171.022 9   3559348.709 8
  20938618.566    20938618.583    25330266.809 9 -58359720.232 9
  23897933.955    23897936.842    52371649.681 7 -37383123.157 9
 86  6 11  2 54 35.0800000  0  4G12G13G 9G11
  21345009.653    21345012.129   -29886423.446 9  31057787.285 9
  20655944.869    20655946.752    -8362196.628 8   3561666.416 9
  20941473.078    20941473.668    25345268.783 9 -58348030.390 8
  23901086.915    23901090.501    52388222.899 8 -37370208.960 8
 86  6 11  2 54 41.0800000  0  4G12G13G 9G11
  21342942.862    21342943.563   -29897288.547 9  31049320.982 9
  20656513.201    20656515.822    -8359209.018 9   3563994.421 8
  20944332.408    20944332.383    25360292.547 9 -58336323.569 8
  23904241.276    23904243.547    52404795.127 9 -37357295.529 8
 86  6 11  2 54 47.0800000  0  4G12G13G 9G11
  21340878.318    21340880.579   -29908132.944 9  31040870.799 9
  20657084.835    20657086.899    -8356208.163 9   3566332.749 9
  20947195.191    20947196.782    25375338.160 9 -58324599.733 8
  23907394.450    23907397.972    52421366.410 9 -37344382.846 8
 86  6 11  2 54 53.0800000  0  4G12G13G 9G11
  21338818.394    21338821.086   -29918956.643 9  31032436.753 9
  20657657.991    20657659.963    -8353194.099 9   3568681.377 9
  20950062.202    20950062.928    25390405.623 9 -58312858.835 8
  23910547.616    23910550.252    52437936.717 8 -37331470.933 9
